[[{"header":{"parameterUnit":"m.s-1","parameterCategory":1,"la1":30.6,"la2":28.766,"lo1":-90.7593,"lo2":-88.6598,"dy":0.0162,"dx":0.0183,"nx":116,"ny":114,"refTime":"2024-05-12T18:00:00:Z","depth":0,"parameterNumber":2,"parameterNumberName":"U-component_of_WINDS"},"data":[0.0,0.0,0.0,0.0,0.0,0.0,0.0,0.0,0.0,0.0,0.0,0.0,0.0,0.0,0.0,0.0,0.0,0.0,0.0,0.0,0.0,0.0,0.0,0.0,0.0,0.0,0.0,0.0,0.0,0.0,0.0,0.0,0.0,0.0,0.0,0.0,0.0,0.0,0.0,0.0,0.0,0.0,0.0,0.0,0.0,0.0,0.0,0.0,0.0,0.0,0.0,0.0,0.0,0.0,0.0,0.0,0.0,0.0,0.0,0.0,0.0,0.0,0.0,0.0,0.0,0.0,0.0,0.0,0.0,0.0,0.0,0.0,0.0,0.0,0.0,0.0,0.0,0.0,0.0,0.0,0.0,0.0,0.0,0.0,0.0,0.0,0.0,0.0,0.0,0.0,0.0,0.0,0.0,0.0,0.0,0.0,0.0,0.0,0.0,0.0,0.0,0.0,0.0,0.0,0.0,0.0,0.0,0.0,0.0,0.0,0.0,0.0,0.0,0.0,0.0,0.0,0.0,0.0,0.0,0.0,0.0,0.0,0.0,0.0,0.0,0.0,0.0,0.0,0.0,0.0,0.0,0.0,0.0,0.0,0.0,0.0,0.0,0.0,0.0,0.0,0.0,0.0,0.0,0.0,0.0,0.0,0.0,0.0,0.0,0.0,0.0,0.0,0.0,0.0,0.0,0.0,0.0,0.0,0.0,0.0,0.0,0.0,0.0,0.0,0.0,0.0,0.0,0.0,0.0,0.0,0.0,0.0,0.0,0.0,0.0,0.0,0.0,0.0,0.0,0.0,0.0,0.0,0.0,0.0,0.0,0.0,0.0,0.0,0.0,0.0,0.0,0.0,0.0,0.0,0.0,0.0,0.0,0.0,0.0,0.0,0.0,0.0,0.0,0.0,0.0,0.0,0.0,0.0,0.0,0.0,0.0,0.0,0.0,0.0,0.0,0.0,0.0,0.0,0.0,0.0,0.0,0.0,0.0,0.0,0.0,0.0,0.0,0.0,0.0,0.0,0.0,0.0,0.0,0.0,0.0,0.0,0.0,0.0,0.0,0.0,0.0,0.0,0.0,0.0,0.0,0.0,0.0,0.0,0.0,0.0,0.0,0.0,0.0,0.0,0.0,0.0,0.0,0.0,0.0,0.0,0.0,0.0,0.0,0.0,0.0,0.0,0.0,0.0,0.0,0.0,0.0,0.0,0.0,0.0,0.0,0.0,0.0,0.0,0.0,0.0,0.0,0.0,0.0,0.0,0.0,0.0,0.0,0.0,0.0,0.0,0.0,0.0,0.0,0.0,0.0,0.0,0.0,0.0,0.0,0.0,0.0,0.0,0.0,0.0,0.0,0.0,0.0,0.0,0.0,0.0,0.0,0.0,0.0,0.0,0.0,0.0,0.0,0.0,0.0,0.0,0.0,0.0,0.0,0.0,0.0,0.0,0.0,0.0,0.0,0.0,0.0,0.0,0.0,0.0,0.0,0.0,0.0,0.0,0.0,0.0,0.0,0.0,0.0,0.0,0.0,0.0,0.0,0.0,0.0,0.0,0.0,0.0,0.0,0.0,0.0,0.0,0.0,0.0,0.0,0.0,0.0,0.0,0.0,0.0,0.0,0.0,0.0,0.0,0.0,0.0,0.0,0.0,0.0,0.0,0.0,0.0,0.0,0.0,0.0,0.0,0.0,0.0,0.0,0.0,0.0,0.0,0.0,0.0,0.0,0.0,0.0,0.0,0.0,0.0,0.0,0.0,0.0,0.0,0.0,0.0,0.0,0.0,0.0,0.0,0.0,0.0,0.0,0.0,0.0,0.0,0.0,0.0,0.0,0.0,0.0,0.0,0.0,0.0,0.0,0.0,0.0,0.0,0.0,0.0,0.0,0.0,0.0,0.0,0.0,0.0,0.0,0.0,0.0,0.0,0.0,0.0,0.0,0.0,0.0,0.0,0.0,0.0,0.0,0.0,0.0,0.0,0.0,0.0,0.0,0.0,0.0,0.0,0.0,0.0,0.0,0.0,0.0,0.0,0.0,0.0,0.0,0.0,0.0,0.0,0.0,0.0,0.0,0.0,0.0,0.0,0.0,0.0,0.0,0.0,0.0,0.0,0.0,0.0,0.0,0.0,0.0,0.0,0.0,0.0,0.0,0.0,0.0,0.0,0.0,0.0,0.0,0.0,0.0,0.0,0.0,0.0,0.0,0.0,0.0,0.0,0.0,0.0,0.0,0.0,0.0,0.0,0.0,0.0,0.0,0.0,0.0,0.0,0.0,0.0,0.0,0.0,0.0,0.0,0.0,0.0,0.0,0.0,0.0,0.0,0.0,0.0,0.0,0.0,0.0,0.0,0.0,0.0,0.0,0.0,0.0,0.0,0.0,0.0,0.0,0.0,0.0,0.0,0.0,0.0,0.0,0.0,0.0,0.0,0.0,0.0,0.0,0.0,0.0,0.0,0.0,0.0,0.0,0.0,0.0,0.0,0.0,0.0,0.0,0.0,0.0,0.0,0.0,0.0,0.0,0.0,0.0,0.0,0.0,0.0,0.0,0.0,0.0,0.0,0.0,0.0,0.0,0.0,0.0,0.0,0.0,0.0,0.0,0.0,0.0,0.0,0.0,0.0,0.0,0.0,0.0,0.0,0.0,0.0,0.0,0.0,0.0,0.0,0.0,0.0,0.0,0.0,0.0,0.0,0.0,0.0,0.0,0.0,0.0,0.0,0.0,0.0,0.0,0.0,0.0,0.0,0.0,0.0,0.0,0.0,0.0,0.0,0.0,0.0,0.0,0.0,0.0,0.0,0.0,0.0,0.0,0.0,0.0,0.0,0.0,0.0,0.0,0.0,0.0,0.0,0.0,0.0,0.0,0.0,0.0,0.0,0.0,0.0,0.0,0.0,0.0,0.0,0.0,0.0,0.0,0.0,0.0,0.0,0.0,0.0,0.0,0.0,0.0,0.0,0.0,0.0,0.0,0.0,0.0,0.0,0.0,0.0,0.0,0.0,0.0,0.0,0.0,0.0,0.0,0.0,0.0,0.0,0.0,0.0,0.0,0.0,0.0,0.0,0.0,0.0,0.0,0.0,0.0,0.0,0.0,0.0,0.0,0.0,0.0,0.0,0.0,0.0,0.0,0.0,0.0,0.0,0.0,0.0,0.0,0.0,0.0,0.0,0.0,0.0,0.0,0.0,0.0,0.0,0.0,0.0,0.0,0.0,0.0,0.0,0.0,0.0,0.0,0.0,0.0,0.0,0.0,0.0,0.0,0.0,0.0,0.0,0.0,0.0,0.0,0.0,0.0,0.0,0.0,0.0,0.0,0.0,0.0,0.0,0.0,0.0,0.0,0.0,0.0,0.0,0.0,0.0,0.0,0.0,0.0,0.0,0.0,0.0,0.0,0.0,0.0,0.0,0.0,0.0,0.0,0.0,0.0,0.0,0.0,0.0,0.0,0.0,0.0,0.0,0.0,0.0,0.0,0.0,0.0,0.0,0.0,0.0,0.0,0.0,0.0,0.0,0.0,0.0,0.0,0.0,0.0,0.0,0.0,0.0,0.0,0.0,0.0,0.0,0.0,0.0,0.0,0.0,0.0,0.0,0.0,0.0,0.0,0.0,0.0,0.0,0.0,0.0,0.0,0.0,0.0,0.0,0.0,0.0,0.0,0.0,0.0,0.0,0.0,0.0,0.0,0.0,0.0,0.0,0.0,0.0,0.0,0.0,0.0,0.0,0.0,0.0,0.0,0.0,0.0,0.0,0.0,0.0,0.0,0.0,0.0,0.0,0.0,0.0,0.0,0.0,0.0,0.0,0.0,0.0,0.0,0.0,0.0,0.0,0.0,0.0,0.0,0.0,0.0,0.0,0.0,0.0,0.0,0.0,0.0,0.0,0.0,0.0,0.0,0.0,0.0,0.0,0.0,0.0,0.0,0.0,0.0,0.0,0.0,0.0,0.0,0.0,0.0,0.0,0.0,0.0,0.0,0.0,0.0,0.0,0.0,0.0,0.0,0.0,0.0,0.0,0.0,0.0,0.0,0.0,0.0,0.0,0.0,0.0,0.0,0.0,0.0,0.0,0.0,0.0,0.0,0.0,0.0,0.0,0.0,0.0,0.0,0.0,0.0,0.0,0.0,0.0,0.0,0.0,0.0,0.0,0.0,0.0,0.0,0.0,0.0,0.0,0.0,0.0,0.0,0.0,0.0,0.0,0.0,0.0,0.0,0.0,0.0,0.0,0.0,0.0,0.0,0.0,0.0,0.0,0.0,0.0,0.0,0.0,0.0,0.0,0.0,0.0,0.0,0.0,0.0,0.0,0.0,0.0,0.0,0.0,0.0,0.0,0.0,0.0,0.0,0.0,0.0,0.0,0.0,0.0,0.0,0.0,0.0,0.0,0.0,0.0,0.0,0.0,0.0,0.0,0.0,0.0,0.0,0.0,0.0,0.0,0.0,0.0,0.0,0.0,0.0,0.0,0.0,0.0,0.0,0.0,0.0,0.0,0.0,0.0,0.0,0.0,0.0,0.0,0.0,0.0,0.0,0.0,0.0,0.0,0.0,0.0,0.0,0.0,0.0,0.0,0.0,0.0,0.0,0.0,0.0,0.0,0.0,0.0,0.0,0.0,0.0,0.0,0.0,0.0,0.0,0.0,0.0,0.0,0.0,0.0,0.0,0.0,0.0,0.0,0.0,0.0,0.0,0.0,0.0,0.0,0.0,0.0,0.0,0.0,0.0,0.0,0.0,0.0,0.0,0.0,0.0,0.0,0.0,0.0,0.0,0.0,0.0,0.0,0.0,0.0,0.0,0.0,0.0,0.0,0.0,0.0,0.0,0.0,0.0,0.0,0.0,0.0,0.0,0.0,0.0,0.0,0.0,0.0,0.0,0.0,0.0,0.0,0.0,0.0,0.0,0.0,0.0,0.0,0.0,0.0,0.0,0.0,0.0,0.0,0.0,0.0,0.0,0.0,0.0,0.0,0.0,0.0,0.0,0.0,0.0,0.0,0.0,0.0,0.0,0.0,0.0,0.0,0.0,0.0,0.0,0.0,0.0,0.0,0.0,0.0,0.0,0.0,0.0,0.0,0.0,0.0,0.0,0.0,0.0,0.0,0.0,0.0,0.0,0.0,0.0,0.0,0.0,0.0,0.0,0.0,0.0,0.0,0.0,0.0,0.0,0.0,0.0,0.0,0.0,0.0,0.0,0.0,0.0,0.0,0.0,0.0,0.0,0.0,0.0,0.0,0.0,0.0,0.0,0.0,0.0,0.0,0.0,0.0,0.0,0.0,0.0,0.0,0.0,0.0,0.0,0.0,0.0,0.0,0.0,0.0,0.0,0.0,0.0,0.0,0.0,0.0,0.0,0.0,0.0,0.0,0.0,0.0,0.0,0.0,0.0,0.0,0.0,0.0,0.0,0.0,0.0,0.0,0.0,0.0,0.0,0.0,0.0,0.0,0.0,0.0,0.0,0.0,0.0,0.0,0.0,0.0,0.0,0.0,0.0,0.0,0.0,0.0,0.0,0.0,0.0,0.0,0.0,0.0,0.0,0.0,0.0,0.0,0.0,0.0,0.0,0.0,0.0,0.0,0.0,0.0,0.0,0.0,0.0,0.0,0.0,0.0,0.0,0.0,0.0,0.0,0.0,0.0,0.0,0.0,0.0,0.0,0.0,0.0,0.0,0.0,0.0,0.0,0.0,0.0,0.0,0.0,0.0,0.0,0.0,0.0,0.0,0.0,0.0,0.0,0.0,0.0,0.0,0.0,0.0,0.0,0.0,0.0,0.0,0.0,0.0,0.0,0.0,0.0,0.0,0.0,0.0,0.0,0.0,0.0,0.0,0.0,0.0,0.0,0.0,0.0,0.0,0.0,0.0,0.0,0.0,0.0,0.0,0.0,0.0,0.0,0.0,0.0,0.0,0.0,0.0,0.0,0.0,0.0,0.0,0.0,0.0,0.0,0.0,0.0,0.0,0.0,0.0,0.0,0.0,0.0,0.0,0.0,0.0,0.0,0.0,0.0,0.0,0.0,0.0,0.0,0.0,0.0,0.0,0.0,0.0,0.0,0.0,0.0,0.0,0.0,0.0,0.0,0.0,0.0,0.0,0.0,-7.1598,-7.1598,0.0,0.0,0.0,0.0,0.0,0.0,0.0,0.0,0.0,0.0,0.0,0.0,0.0,0.0,0.0,0.0,0.0,0.0,0.0,0.0,0.0,0.0,0.0,-5.4409,-5.4409,-5.4409,-5.4409,-5.4409,-5.4409,0.0,0.0,0.0,0.0,0.0,0.0,0.0,-5.4409,-5.4409,-5.4409,-5.4597,-5.501,-5.5423,-5.561,-5.563,0.0,0.0,0.0,0.0,0.0,0.0,0.0,0.0,0.0,0.0,0.0,0.0,0.0,0.0,0.0,0.0,0.0,0.0,0.0,0.0,0.0,0.0,0.0,0.0,0.0,0.0,0.0,0.0,0.0,0.0,0.0,0.0,0.0,0.0,0.0,0.0,0.0,0.0,0.0,0.0,0.0,0.0,0.0,0.0,0.0,0.0,0.0,0.0,0.0,0.0,0.0,0.0,0.0,0.0,0.0,0.0,0.0,0.0,0.0,0.0,0.0,0.0,0.0,0.0,0.0,0.0,0.0,0.0,0.0,0.0,-7.1792,-7.1831,0.0,0.0,0.0,0.0,0.0,0.0,0.0,0.0,0.0,0.0,0.0,0.0,0.0,0.0,0.0,0.0,0.0,0.0,0.0,0.0,0.0,-5.4409,-5.4409,-5.4409,-5.4409,-5.4409,-5.4409,-5.4409,-5.4409,-5.4409,0.0,0.0,0.0,-5.4409,-5.4409,-5.4559,-5.4559,-5.4409,-5.4559,-5.5047,-5.5856,-5.6699,-5.6737,-5.6081,-5.6812,0.0,0.0,0.0,0.0,0.0,0.0,0.0,0.0,0.0,0.0,0.0,0.0,0.0,0.0,0.0,0.0,0.0,0.0,0.0,0.0,0.0,0.0,0.0,0.0,0.0,0.0,0.0,0.0,0.0,0.0,0.0,0.0,0.0,0.0,0.0,0.0,0.0,0.0,0.0,0.0,0.0,0.0,0.0,0.0,0.0,0.0,0.0,0.0,0.0,0.0,0.0,0.0,0.0,0.0,0.0,0.0,0.0,0.0,0.0,0.0,0.0,0.0,0.0,-7.1986,-7.2064,-7.2064,-7.2064,-7.2452,-7.3074,-7.2375,-7.2452,-7.3152,-7.3152,0.0,0.0,0.0,0.0,0.0,0.0,0.0,0.0,0.0,0.0,0.0,0.0,0.0,0.0,0.0,0.0,0.0,0.0,0.0,-5.4409,-5.4409,-5.4409,-5.4409,-5.4409,-5.4409,-5.4409,-5.4409,-5.4409,-5.4409,-5.4409,-5.4409,-5.4409,-5.4409,-5.5067,-5.5122,-5.4409,-5.5122,-5.5873,-5.6737,-5.7563,-5.7901,-5.777,-5.7883,-5.8332,-5.9062,0.0,0.0,0.0,0.0,0.0,0.0,0.0,0.0,0.0,0.0,0.0,0.0,0.0,0.0,0.0,0.0,0.0,0.0,0.0,0.0,0.0,0.0,0.0,0.0,0.0,0.0,0.0,0.0,0.0,0.0,0.0,0.0,0.0,0.0,0.0,0.0,0.0,0.0,0.0,0.0,0.0,-6.5382,-6.6237,0.0,0.0,0.0,0.0,0.0,0.0,0.0,0.0,0.0,0.0,0.0,0.0,0.0,-7.1481,-7.1598,-7.2336,-7.2724,-7.2724,-7.3501,-7.3851,-7.3851,-7.3851,-7.3929,-7.4006,-7.3929,0.0,-7.4045,-7.4045,0.0,0.0,0.0,0.0,0.0,0.0,0.0,0.0,0.0,0.0,0.0,0.0,0.0,0.0,0.0,0.0,0.0,0.0,0.0,0.0,0.0,-5.4409,-5.4409,-5.4409,-5.4409,-5.4409,-5.4409,-5.4409,-5.4409,-5.4409,-5.4409,-5.4597,-5.5085,-5.5405,-5.5668,-5.5798,-5.6624,-5.7207,-5.76,-5.8389,-5.8764,-5.8764,-5.8764,-5.899,-5.9309,-5.9571,0.0,0.0,0.0,0.0,0.0,0.0,0.0,0.0,0.0,0.0,0.0,0.0,0.0,0.0,0.0,0.0,0.0,0.0,0.0,0.0,0.0,0.0,0.0,0.0,0.0,0.0,0.0,0.0,0.0,0.0,0.0,0.0,0.0,0.0,0.0,0.0,0.0,0.0,0.0,-6.6431,-6.6975,-6.7868,-6.8296,-6.8529,0.0,0.0,0.0,0.0,0.0,0.0,0.0,0.0,0.0,-7.2336,-7.2802,-7.3074,-7.3074,-7.3424,-7.3618,-7.3657,-7.4006,-7.42,-7.42,-7.42,-7.4472,-7.4939,-7.4939,-7.5172,-7.556,-7.5133,-7.5405,-7.6182,0.0,0.0,0.0,0.0,-7.6687,-7.6687,0.0,0.0,0.0,0.0,0.0,0.0,0.0,0.0,0.0,0.0,0.0,0.0,-5.4409,-5.4409,-5.4409,-5.4409,-5.4409,-5.4409,-5.4409,-5.4409,-5.4409,-5.4409,-5.4597,-5.501,-5.5593,-5.5818,-5.6474,-5.7525,-5.7901,-5.8221,-5.8427,-5.9027,-5.929,-5.929,-5.929,-5.929,-5.929,-5.94,-5.9689,-6.0118,0.0,0.0,0.0,0.0,0.0,0.0,0.0,0.0,0.0,0.0,0.0,0.0,0.0,0.0,0.0,0.0,0.0,0.0,0.0,0.0,0.0,0.0,0.0,0.0,0.0,0.0,0.0,0.0,0.0,0.0,0.0,0.0,0.0,0.0,0.0,0.0,0.0,-6.814,-6.8373,-6.9034,-6.9267,-6.9422,0.0,0.0,0.0,0.0,0.0,0.0,-7.2258,-7.288,-7.3229,-7.3229,-7.3851,-7.42,-7.42,-7.4434,-7.4511,-7.455,-7.4744,-7.4822,-7.4822,-7.4822,-7.5172,-7.5793,-7.5793,-7.6143,-7.6648,-7.6065,-7.6143,-7.6687,-7.6687,-7.6687,-7.6687,-7.6687,-7.6687,-7.6687,0.0,0.0,0.0,0.0,0.0,0.0,0.0,0.0,0.0,0.0,0.0,-5.4409,-5.4409,-5.4409,-5.4409,-5.4409,-5.4409,-5.4409,-5.4409,-5.4409,-5.4409,-5.4409,-5.5122,-5.5555,-5.5593,-5.6399,-5.76,-5.9178,-5.8464,-5.8502,-5.9253,-5.929,-5.929,-5.929,-5.929,-5.929,-5.9309,-5.9643,-5.9809,-5.9852,-6.0444,0.0,0.0,0.0,0.0,0.0,0.0,0.0,0.0,0.0,0.0,0.0,0.0,0.0,0.0,0.0,0.0,0.0,0.0,0.0,0.0,0.0,0.0,0.0,0.0,0.0,0.0,0.0,0.0,0.0,0.0,0.0,0.0,0.0,0.0,0.0,0.0,0.0,0.0,-6.9111,-6.9772,0.0,0.0,0.0,0.0,-7.2724,-7.2802,-7.319,-7.4045,-7.4123,-7.4123,-7.4123,-7.4162,-7.42,-7.42,-7.5016,-7.5444,-7.5444,-7.6221,-7.657,-7.657,-7.657,-7.6609,-7.6648,-7.6648,-7.6648,-7.6687,-7.6648,-7.6648,-7.6687,-7.6687,-7.6687,-7.6687,-7.6687,-7.6687,-7.6687,0.0,0.0,0.0,0.0,0.0,-5.4409,-5.4409,-5.4409,-5.4409,-5.4409,-5.4409,-5.4409,-5.4409,-5.4409,-5.4409,-5.4409,-5.4409,-5.4409,-5.4409,-5.4409,-5.4634,-5.5142,-5.5443,-5.6081,-5.717,-5.8014,-5.8727,-5.929,-5.9027,-5.9027,-5.929,-5.929,-5.929,-5.929,-5.929,-5.929,-5.9309,-5.9436,-5.9592,-5.9842,-6.0038,-6.0351,0.0,0.0,0.0,0.0,0.0,0.0,0.0,0.0,0.0,0.0,0.0,0.0,0.0,0.0,0.0,0.0,0.0,0.0,0.0,0.0,0.0,0.0,0.0,0.0,0.0,0.0,0.0,0.0,0.0,0.0,0.0,0.0,0.0,0.0,0.0,0.0,0.0,-7.0626,-7.0976,0.0,-7.1908,-7.2258,-7.2802,-7.3657,-7.3734,-7.389,-7.4162,-7.4744,-7.5055,-7.5055,-7.5521,-7.5793,-7.5793,-7.6104,-7.6259,-7.6298,-7.657,-7.6687,-7.6687,-7.6687,-7.6998,-7.7541,-7.7541,-7.7852,-7.8357,-7.8357,-7.7697,-7.6687,-7.6687,-7.6687,-7.6687,-7.6687,-7.6687,-7.6687,0.0,0.0,0.0,-5.4409,-5.4409,-5.4409,-5.4409,-5.4409,-5.4409,-5.4409,-5.4409,-5.4409,-5.4409,-5.4409,-5.4409,-5.4409,-5.4409,-5.4409,-5.4409,-5.4634,-5.5047,-5.5593,-5.6118,-5.7094,-5.8464,-5.9027,-5.929,-5.929,-5.929,-5.929,-5.929,-5.929,-5.929,-5.929,-5.929,-5.929,-5.9309,-5.9436,-5.9592,-5.9826,-6.0023,-6.0283,-6.0558,0.0,0.0,0.0,0.0,0.0,0.0,0.0,0.0,0.0,0.0,0.0,0.0,0.0,0.0,0.0,0.0,0.0,0.0,0.0,0.0,0.0,0.0,0.0,0.0,0.0,0.0,0.0,0.0,0.0,0.0,0.0,0.0,0.0,0.0,-7.0743,-7.1054,-7.1947,-7.2025,-7.2375,-7.3268,-7.3346,-7.3695,-7.455,-7.4628,-7.4744,-7.5016,-7.5599,-7.591,-7.591,-7.6415,-7.6842,-7.7153,-7.7153,-7.7308,-7.758,-7.758,-7.758,-7.758,-7.758,-7.7891,-7.8435,-7.8435,-7.8785,-7.929,-7.929,-7.8629,-7.7541,-7.727,-7.717,-7.7157,-7.6846,-7.6746,-7.677,0.0,-5.4409,-5.4409,-5.4409,-5.4409,-5.4409,-5.4409,-5.4409,-5.4409,-5.4409,-5.4409,-5.4409,-5.4409,-5.4409,-5.4409,-5.4409,-5.4409,-5.4409,-5.4409,-5.5142,-5.563,-5.5668,-5.7245,-5.8502,-5.929,-5.929,-5.929,-5.929,-5.929,-5.929,-5.929,-5.929,-5.929,-5.929,-5.929,-5.929,-5.9309,-5.966,-5.9809,-5.9836,-6.0444,-6.0508,-6.0234,0.0,0.0,0.0,0.0,0.0,0.0,0.0,0.0,0.0,0.0,0.0,0.0,0.0,0.0,0.0,0.0,0.0,0.0,0.0,0.0,0.0,0.0,0.0,0.0,0.0,0.0,0.0,0.0,0.0,0.0,0.0,0.0,0.0,-7.1636,-7.1636,-7.1947,-7.2841,-7.2957,-7.3268,-7.4162,-7.4239,-7.4589,-7.5482,-7.5521,-7.5871,-7.6648,-7.6726,-7.6726,-7.6726,-7.6764,-7.7192,-7.8046,-7.8046,-7.8474,-7.929,-7.929,-7.929,-7.929,-7.929,-7.929,-7.9328,-7.9328,-7.9376,-7.9376,-7.9376,-7.9376,-7.9299,-7.8405,-7.8068,-7.8054,-7.7205,-7.6943,-7.6999,-5.4409,-5.4409,-5.4409,-5.4409,-5.4409,-5.4409,-5.4409,-5.4409,-5.4409,-5.4409,-5.4409,-5.4409,-5.4409,-5.4409,-5.4409,-5.4409,-5.4409,-5.4409,-5.4409,-5.5142,-5.6118,-5.7357,-5.8427,-5.9065,-5.929,-5.929,-5.929,-5.929,-5.929,-5.929,-5.929,-5.929,-5.929,-5.929,-5.929,-5.929,-5.9309,-5.966,-5.9809,-5.982,-6.0189,-6.0286,-6.0231,0.0,0.0,0.0,0.0,0.0,0.0,0.0,0.0,0.0,0.0,0.0,0.0,0.0,0.0,0.0,0.0,0.0,0.0,0.0,0.0,0.0,0.0,0.0,0.0,0.0,0.0,0.0,0.0,0.0,0.0,0.0,-7.2142,-7.253,-7.253,-7.253,-7.288,-7.3734,-7.3851,-7.4162,-7.5055,-7.5133,-7.5482,-7.6298,-7.6376,-7.6454,-7.6687,-7.7308,-7.7658,-7.7658,-7.8241,-7.8707,-7.894,-7.894,-7.9057,-7.929,-7.929,-7.929,-7.929,-7.929,-7.9639,-8.0222,-8.0222,-8.0608,-8.1259,-8.1259,-8.1291,-8.1187,-7.961,-7.9019,-7.9002,-7.8825,-7.878,-7.8804,-5.4409,-5.4409,-5.4409,-5.4409,-5.4409,-5.4409,-5.4409,-5.4409,-5.4409,-5.4409,-5.4409,-5.4409,-5.4409,-5.4409,-5.4409,-5.4409,-5.4409,-5.4559,-5.4897,-5.6006,-5.7207,-5.8539,-5.9065,-5.929,-5.929,-5.929,-5.929,-5.929,-5.929,-5.929,-5.929,-5.929,-5.929,-5.929,-5.929,-5.929,-5.9309,-5.966,-5.9809,-5.9804,-6.0089,-6.0146,-6.0044,-6.0175,-6.0059,-5.983,-5.9969,-6.0205,-6.0459,-6.1017,0.0,0.0,0.0,0.0,0.0,0.0,0.0,0.0,0.0,0.0,0.0,0.0,0.0,0.0,0.0,0.0,0.0,0.0,0.0,0.0,0.0,0.0,0.0,0.0,-7.288,-7.3579,-7.3929,-7.3657,-7.3773,-7.4628,-7.4744,-7.5094,-7.591,-7.5988,-7.6182,-7.6648,-7.7036,-7.7231,-7.7231,-7.8085,-7.8552,-7.8552,-7.9018,-7.9484,-7.9834,-7.9834,-8.0028,-8.0377,-8.0377,-8.0377,-8.0377,-8.0377,-8.0677,-8.117,-8.117,-8.1501,-8.2044,-8.2044,-8.2071,-8.1948,0.0,0.0,0.0,0.0,-7.9569,-7.9574,-5.4409,-5.4409,-5.4409,-5.4409,-5.4409,-5.4409,-5.4409,-5.4409,-5.4409,-5.4409,-5.4409,-5.4409,-5.4409,-5.4409,-5.4409,-5.4409,-5.4409,-5.4784,-5.5668,-5.7132,-5.8351,-5.9253,-5.929,-5.929,-5.929,-5.929,-5.929,-5.929,-5.929,-5.929,-5.929,-5.929,-5.929,-5.929,-5.929,-5.929,-5.9309,-5.9609,-5.9744,-5.9739,-6.0,-5.9969,-5.9842,-6.0059,-5.9782,-5.9345,-5.9757,-6.0219,-6.0661,-6.0959,0.0,0.0,0.0,0.0,0.0,0.0,0.0,0.0,0.0,0.0,0.0,0.0,0.0,0.0,0.0,0.0,0.0,0.0,0.0,0.0,0.0,0.0,0.0,0.0,-7.3773,-7.4628,-7.5405,-7.49,-7.4783,-7.5521,-7.5638,-7.591,-7.6648,-7.6803,-7.6842,-7.6842,-7.7658,-7.8163,-7.8163,-7.8979,0.0,0.0,0.0,-7.995,-8.0727,-8.0766,-8.1116,-8.1892,-8.1892,-8.1902,-8.1911,-8.1911,-8.1964,-8.2007,-8.2007,-8.2051,-8.2116,-8.2116,-8.2122,-8.205,-8.1265,-8.0981,-8.0952,-8.025,-7.999,-7.999,-5.4409,-5.4409,-5.4409,-5.4409,-5.4409,-5.4409,-5.4409,-5.4409,-5.4409,-5.4409,-5.4409,-5.4409,-5.4409,-5.4409,-5.4409,-5.4409,-5.4409,-5.5047,-5.6549,-5.6962,-5.7788,-5.9253,-5.929,-5.929,-5.929,-5.929,-5.929,-5.929,-5.929,-5.929,-5.929,-5.929,-5.929,-5.929,-5.929,-5.929,-5.929,-5.9364,-5.94,-5.9418,-5.9452,-5.9609,-5.9826,-5.9852,-5.9643,-5.9421,-6.0153,-6.0511,-6.0792,-6.2183,-6.3068,-6.3679,-6.4448,-6.5177,0.0,0.0,0.0,0.0,0.0,0.0,0.0,0.0,0.0,0.0,0.0,0.0,0.0,0.0,0.0,0.0,0.0,0.0,0.0,-7.392,-7.4667,-7.5288,-7.5482,-7.591,-7.6298,-7.6454,-7.6454,-7.6531,-7.6687,-7.7347,-7.7736,-7.7736,-7.8552,-7.9057,-7.9057,-7.9872,-8.0339,-8.0339,-8.1038,-8.1465,-8.1659,-8.1659,-8.1737,-8.1892,-8.1892,0.0,-8.1967,-8.1967,-8.2014,-8.2085,-8.2085,-8.2122,-8.2177,-8.2177,-8.2201,-8.223,-8.2036,-8.1971,-8.201,-8.1861,-8.1786,-8.1786,-5.4409,-5.4409,-5.4409,-5.4409,-5.4409,-5.4409,-5.4409,-5.4409,-5.4409,-5.4409,-5.4409,-5.4409,-5.4409,-5.4409,-5.4409,-5.4409,-5.516,-5.6023,-5.6849,-5.7638,-5.8464,-5.9253,-5.929,-5.929,-5.929,-5.929,-5.929,-5.929,-5.929,-5.929,-5.929,-5.929,-5.929,-5.929,-5.929,-5.929,-5.929,-5.929,-5.929,-5.929,-5.929,-5.9488,-5.9793,-5.9609,-5.9718,-6.0004,-6.0454,-6.1225,-6.2181,-6.3011,-6.3706,-6.4317,-6.4932,-6.5153,-6.5412,0.0,0.0,0.0,0.0,0.0,0.0,0.0,0.0,0.0,0.0,0.0,0.0,0.0,0.0,-7.2629,-7.3297,0.0,-7.4741,-7.4813,-7.556,-7.6104,-7.6104,-7.6454,-7.6687,-7.6687,-7.7075,-7.7347,-7.7347,-7.8124,-7.8629,-7.8629,-7.9445,-7.995,-7.995,-8.0766,-8.1232,-8.1232,-8.1659,-8.1892,-8.1892,-8.1892,-8.1892,-8.1892,-8.1892,-8.1947,-8.1991,-8.1991,-8.2058,-8.2151,-8.2151,-8.2182,-8.2265,-8.2265,-8.2277,-8.229,-8.2273,-8.2277,-8.2293,-8.2293,-8.2293,-8.2293,-5.4409,-5.4409,-5.4409,-5.4409,-5.4409,-5.4409,-5.4409,-5.4409,-5.4409,-5.4409,-5.4409,-5.4409,-5.4409,-5.4409,-5.4409,-5.4409,-5.5761,-5.6737,-5.6887,-5.8276,-5.914,-5.929,-5.929,-5.929,-5.929,-5.929,-5.929,-5.929,-5.929,-5.929,-5.929,-5.929,-5.929,-5.929,-5.929,-5.929,-5.929,-5.929,-5.929,-5.929,-5.929,-5.9547,-5.9942,-5.9682,-6.0059,-6.0827,-6.1146,-6.2249,-6.3626,-6.371,-6.4261,-6.4879,-6.5168,-6.5099,-6.5213,-6.674,-6.7349,0.0,0.0,0.0,0.0,0.0,0.0,0.0,0.0,-7.1197,-7.1491,-7.2579,-7.2832,-7.3191,-7.4198,-7.4984,-7.5546,-7.5698,-7.6298,-7.6764,-7.692,-7.6959,-7.7036,-7.7192,-7.7697,-7.8085,-7.8241,-7.9057,-7.9562,-7.9562,-8.0377,-8.0844,-8.0844,-8.1504,-8.1892,-8.1892,-8.1892,-8.1892,-8.1892,-8.1911,-8.1911,-8.1892,-8.1929,-8.199,-8.2014,-8.2029,-8.211,-8.2205,-8.2205,-8.2265,-8.2293,-8.2293,-8.2293,-8.2293,-8.2293,-8.2293,-8.2293,-8.2293,-8.2293,-8.2293,-5.4409,-5.4409,-5.4409,-5.4409,-5.4409,-5.4409,-5.4409,-5.4409,-5.4409,-5.4409,-5.4409,-5.4409,-5.4409,-5.4409,-5.4409,-5.4409,-5.5218,-5.6061,-5.6849,-5.7751,-5.8539,-5.9253,-5.929,-5.929,-5.929,-5.929,-5.929,-5.929,-5.929,-5.929,-5.929,-5.929,-5.929,-5.929,-5.929,-5.929,-5.929,-5.929,-5.929,-5.929,-5.929,-5.9797,-6.0511,-6.0473,-6.0849,-6.1582,-6.307,-6.3749,-6.4039,-6.4499,-6.4841,-6.5035,-6.4955,-6.5134,-6.5561,-6.6817,-6.7884,-6.8888,-7.0003,-7.0717,-7.1098,-7.081,-7.0752,-7.0944,0.0,-7.1881,-7.2182,-7.3279,-7.4208,-7.4939,-7.5048,-7.5886,-7.6552,-7.6561,-7.6648,-7.6959,-7.7736,-7.7852,-7.8124,-7.8901,-7.8396,-7.8318,-7.9095,-7.995,-8.0455,-8.0455,-8.1271,-8.1737,-8.1737,-8.1854,-8.1892,-8.1892,-8.1892,-8.1892,-8.1892,-8.1973,-8.1973,-8.1892,-8.2022,-8.2085,-8.2098,-8.2151,-8.2205,-8.2287,-8.2287,-8.229,-8.2293,-8.2293,-8.2293,-8.2293,-8.2293,-8.2293,-8.2293,-8.2293,-8.2293,-8.2293,-5.4409,-5.4409,-5.4409,-5.4409,-5.4409,-5.4409,-5.4409,-5.4409,-5.4409,-5.4409,-5.4409,-5.4409,-5.4409,-5.4409,-5.4409,-5.4409,-5.561,-5.6512,-5.6887,-5.8089,-5.8952,-5.929,-5.929,-5.929,-5.929,-5.929,-5.929,-5.929,-5.929,-5.929,-5.929,-5.929,-5.929,-5.929,-5.929,-5.929,-5.929,-5.929,-5.929,-5.9328,-5.9853,-6.0359,-6.0934,-6.1933,-6.2563,-6.3015,-6.3518,-6.4025,0.0,-6.5038,-6.5159,-6.5134,-6.5412,-6.5627,-6.6116,-6.7672,-6.8663,-6.9428,-7.044,-7.1007,-7.1214,-7.0783,-7.1154,-7.1724,-7.2109,-7.2584,-7.3215,-7.4301,-7.4777,-7.5248,-7.5944,-7.6342,-7.6546,-7.6669,-7.7114,-7.758,-7.7969,-7.8435,-7.9095,-7.995,-7.9717,-7.9678,-8.0028,-8.0844,-8.1349,-8.1349,-8.1698,-8.1892,-8.1892,-8.1892,-8.1892,-8.1892,-8.1892,-8.1892,-8.1892,-8.1929,-8.1956,-8.1973,-8.2007,-8.2085,-8.2162,-8.2182,-8.2257,-8.2293,-8.2293,-8.2293,-8.2293,-8.2293,-8.2293,-8.2293,-8.2293,-8.2293,-8.2293,-8.2293,-8.2293,-8.2293,-5.4409,-5.4409,-5.4409,-5.4409,-5.4409,-5.4409,-5.4409,-5.4409,-5.4409,-5.4409,-5.4409,-5.4409,-5.4409,-5.4409,-5.4484,-5.4709,-5.6061,-5.7,-5.7225,-5.8539,-5.929,-5.929,-5.929,-5.929,-5.929,-5.929,-5.929,-5.929,-5.929,-5.929,-5.929,-5.929,-5.929,-5.929,-5.929,-5.929,-5.929,-5.929,-5.929,-5.9365,-6.0266,-6.0847,-6.1382,-6.2836,-6.3693,-6.4084,-6.4035,-6.4481,-6.5105,-6.5306,-6.5482,-6.5666,-6.5956,-6.6277,-6.693,-6.8571,-6.9501,-7.0155,-7.0884,-7.1158,-7.1208,-7.1158,-7.1737,-7.2442,-7.2993,-7.3548,-7.4268,-7.5305,-7.5383,-7.5502,-7.6458,-7.6485,-7.6542,-7.6971,-7.758,-7.8163,-7.8668,-7.9251,-7.9989,-8.0844,-8.096,-8.096,-8.096,-8.1543,-8.1892,-8.1892,-8.1892,-8.1892,-8.1892,-8.1892,-8.1892,-8.1892,-8.1892,-8.1892,-8.1892,-8.192,-8.1964,-8.1991,-8.2036,-8.211,-8.2192,-8.2205,-8.2269,-8.2293,-8.2293,-8.2293,-8.2293,-8.2293,-8.2293,-8.2293,-8.2293,-8.2293,-8.2293,-8.2293,-8.2293,-8.2293,-5.4409,-5.4409,-5.4409,-5.4409,-5.4409,-5.4409,-5.4409,-5.4409,-5.4409,-5.4409,-5.4409,-5.4409,-5.4409,-5.4409,-5.4709,-5.548,-5.6399,-5.7225,-5.7995,-5.884,-5.929,-5.929,-5.929,-5.929,-5.929,-5.929,-5.929,-5.929,-5.929,-5.929,-5.929,-5.929,-5.929,-5.929,-5.929,-5.929,-5.929,-5.929,-5.929,-5.9365,-6.0266,-6.1055,-6.1863,-6.2764,-6.361,-6.4367,-6.5009,-6.5493,-6.5718,-6.5253,-6.5864,-6.68,-6.6466,-6.707,-6.811,-6.9399,-7.0474,-7.125,-7.1288,-7.117,-7.1221,-7.2032,-7.2263,-7.2788,-7.4674,-7.4997,-7.5143,-7.6173,-7.6222,-7.6147,-7.6377,-7.6411,-7.6736,-7.7786,-7.7969,-7.859,-8.03,-8.0533,-8.0882,-8.1776,-8.1854,-8.1854,-8.1854,-8.1892,-8.1892,-8.1892,-8.1892,-8.1892,-8.1892,-8.1892,-8.1892,-8.1892,-8.1892,-8.1892,-8.1892,-8.1943,-8.1983,-8.1991,-8.2134,-8.2187,-8.2192,-8.2277,-8.229,-8.2293,-8.2293,-8.2293,-8.2293,-8.2293,-8.2293,-8.2293,-8.2293,-8.2293,-8.2293,-8.2293,-8.2293,-8.2293,-5.5948,-5.6061,-5.6061,-5.6061,-5.6061,-5.6061,-5.6061,-5.5122,-5.4409,-5.4409,-5.4409,0.0,0.0,0.0,0.0,0.0,-5.6399,-5.7225,-5.8033,-5.884,-5.929,-5.929,-5.929,-5.929,-5.929,-5.929,-5.929,-5.929,-5.929,-5.929,-5.929,-5.929,-5.929,-5.929,-5.929,-5.929,-5.929,-5.929,-5.9628,-6.0229,-6.1055,-6.1919,-6.2745,-6.3571,-6.4059,-6.4344,0.0,-6.4917,-6.503,-6.5175,-6.581,-6.6551,-6.6596,-6.7614,-6.8962,-7.0099,-7.0833,-7.1246,-7.0965,-7.1556,-7.2228,-7.2122,-7.3151,-7.4297,-7.4806,-7.5324,-7.5787,-7.6121,-7.616,-7.634,-7.7113,-7.7263,-7.7588,-7.8689,-7.9367,-7.995,-8.0533,-8.1116,-8.1582,-8.1854,-8.1892,-8.1892,-8.1892,-8.1892,-8.1892,-8.1892,-8.1892,-8.1892,-8.1892,-8.1892,-8.1892,-8.1892,-8.1892,-8.1892,-8.1892,-8.1929,-8.1967,-8.2071,-8.2192,-8.2273,-8.2277,-8.2287,-8.2293,-8.2293,-8.2293,-8.2293,-8.2293,-8.2293,-8.2293,-8.2293,-8.2293,-8.2293,-8.2293,-8.2293,-8.2293,-8.2293,0.0,-5.6887,-5.6887,-5.6887,-5.6887,0.0,0.0,0.0,0.0,0.0,0.0,0.0,0.0,0.0,0.0,0.0,0.0,-5.7375,-5.8464,-5.9027,-5.929,-5.929,-5.929,-5.929,-5.929,-5.929,-5.929,-5.929,-5.929,-5.929,-5.929,-5.929,-5.929,-5.929,-5.929,-5.929,-5.9328,-5.9628,-6.0079,-6.0717,-6.1806,-6.2595,-6.3195,-6.4083,-6.4403,0.0,-6.4634,-6.4934,-6.5288,-6.5591,-6.6307,-6.7117,-6.7477,-6.8571,-6.9881,-7.0612,-7.0928,-7.1104,-7.1235,-7.1914,-7.2645,-7.2943,-7.3999,-7.5036,-7.5221,-7.563,-7.5999,-7.5999,-7.623,-7.6685,-7.7445,-7.7926,-7.8529,-7.9582,-8.0222,-8.0727,-8.1038,-8.1543,-8.1892,-8.1892,-8.1892,-8.1892,-8.1892,-8.1892,-8.1892,-8.1892,-8.1892,-8.1911,-8.1938,-8.1911,-8.1929,-8.1951,-8.1929,-8.1911,-8.1947,-8.1911,-8.1951,-8.211,-8.2257,-8.2293,-8.2293,-8.2293,-8.2293,-8.2293,-8.2293,-8.2293,-8.2293,-8.2293,-8.2293,-8.2293,-8.2293,-8.2293,-8.2293,-8.2293,-8.2293,-8.2293,0.0,0.0,-5.7,0.0,0.0,0.0,0.0,0.0,0.0,0.0,0.0,0.0,0.0,0.0,0.0,0.0,0.0,0.0,-5.9215,-5.929,-5.929,-5.929,-5.929,-5.929,-5.929,-5.929,-5.929,-5.929,-5.929,-5.929,-5.929,-5.929,-5.929,-5.929,-5.929,-5.929,-5.9365,-6.0229,-6.0642,-6.0792,-6.2444,-6.312,-6.3272,-6.4219,-6.4596,-6.4634,-6.4835,-6.5542,-6.6379,-6.6379,-6.7225,-6.8373,-6.9046,-6.9942,-7.0738,-7.0889,-7.0823,-7.0944,-7.1981,-7.2171,-7.2496,-7.4306,-7.4822,-7.5053,-7.5889,-7.5928,-7.5803,-7.5841,-7.6525,-7.7192,-7.7483,-7.8397,-7.9432,-8.0505,-8.0688,-8.096,-8.1776,-8.1892,-8.1892,-8.1892,-8.1892,-8.1892,-8.1892,-8.1892,-8.1892,-8.1902,-8.1902,-8.1938,-8.1983,-8.1956,-8.1951,-8.2104,-8.1959,-8.1956,-8.1991,-8.1956,-8.1967,-8.2116,-8.2257,-8.2293,-8.2293,-8.2293,-8.2293,-8.2293,-8.2293,-8.2293,-8.2293,-8.2293,-8.2293,-8.2293,-8.2293,-8.2293,-8.2293,-8.2293,-8.2293,-8.2293,0.0,0.0,0.0,0.0,0.0,0.0,0.0,0.0,0.0,0.0,0.0,0.0,0.0,0.0,0.0,0.0,0.0,0.0,-5.9215,-5.929,-5.929,-5.929,-5.929,-5.929,-5.929,-5.929,-5.929,-5.929,-5.929,-5.929,-5.929,-5.929,-5.929,-5.929,-5.929,-5.929,-5.9365,-6.0229,-6.0942,-6.1581,-6.267,-6.3556,-6.4256,-6.4502,-6.469,-6.4835,-6.4989,-6.5622,-6.6379,-6.6379,-6.7534,-6.9084,-6.9862,-7.026,-7.0493,-7.0555,-7.0622,-7.0873,-7.1636,-7.252,-7.3391,-7.4174,-7.4966,-7.5556,-7.5638,-7.5616,-7.5774,-7.6331,-7.6924,-7.7726,-7.9015,-7.9769,-8.0485,-8.1417,-8.1582,-8.1659,-8.1854,-8.1892,-8.1892,-8.1892,-8.1892,-8.1892,-8.1892,-8.1892,-8.192,-8.1951,-8.1959,-8.1967,-8.1991,-8.2029,-8.2071,-8.2104,-8.2071,-8.2058,-8.2078,-8.211,-8.2145,-8.2172,-8.2269,-8.2293,-8.2293,-8.2293,-8.2293,-8.2293,-8.2293,-8.2293,-8.2293,-8.2293,-8.2293,-8.2293,-8.2293,-8.2293,-8.2293,-8.2293,-8.2293,-8.2293,0.0,0.0,0.0,0.0,0.0,0.0,0.0,0.0,0.0,0.0,0.0,0.0,0.0,0.0,0.0,0.0,0.0,0.0,0.0,-5.929,-5.929,-5.929,-5.929,-5.929,-5.929,-5.929,-5.929,-5.929,-5.929,-5.929,-5.929,-5.929,-5.929,-5.929,-5.929,-5.9515,-5.9929,-6.0755,-6.1618,0.0,0.0,-6.4086,-6.4615,-6.4761,-6.4886,-6.5082,-6.5591,-6.657,0.0,0.0,0.0,-6.9807,-7.0266,-7.0419,-7.0419,-7.0419,-7.0745,-7.1298,-7.2073,-7.3038,-7.4021,-7.4614,-7.52,-7.5628,-7.5553,-7.5768,-7.6185,-7.6782,-7.7731,-7.8824,-7.9881,-8.0672,-8.1349,-8.1815,-8.1892,-8.1892,-8.1892,-8.1892,-8.1892,-8.1892,-8.1892,-8.1911,-8.1947,-8.1956,-8.1951,-8.2036,-8.2007,-8.2022,-8.2085,-8.2104,-8.2134,-8.2182,-8.2134,-8.2104,-8.2104,-8.2167,-8.2192,-8.2192,-8.2277,-8.2293,-8.2293,-8.2293,-8.2293,-8.2293,-8.2293,-8.2293,-8.2293,-8.2293,-8.2293,-8.2293,-8.2293,-8.2293,-8.2293,-8.2293,-8.2293,-8.2293,0.0,0.0,0.0,0.0,0.0,0.0,0.0,0.0,0.0,0.0,-5.929,-5.929,-5.929,-5.8689,0.0,0.0,0.0,0.0,0.0,0.0,-5.929,-5.929,-5.929,-5.929,-5.929,-5.929,-5.929,-5.929,-5.929,-5.929,-5.929,-5.929,-5.929,-5.929,-5.929,-5.9797,-6.068,-6.1487,-6.2333,-6.3256,-6.42,-6.4634,-6.4708,0.0,0.0,-6.5302,-6.6437,0.0,0.0,0.0,-7.0419,-7.0419,-7.0419,-7.0419,-7.0419,-7.0533,-7.1107,-7.1909,-7.2902,-7.3667,-7.4431,-7.5271,-7.5518,-7.5518,-7.5514,-7.6182,-7.6863,-7.7216,-7.8724,-8.0048,-8.0415,-8.125,-8.1892,-8.1892,0.0,-8.1892,-8.1892,-8.1892,-8.1892,-8.1892,-8.1902,-8.1947,-8.1983,-8.1999,-8.2044,-8.2116,-8.2065,-8.2078,-8.2187,-8.2156,-8.2177,-8.229,-8.2182,-8.2134,-8.2134,-8.2182,-8.2201,-8.2201,-8.2277,-8.2293,-8.2293,-8.2293,-8.2293,-8.2293,-8.2293,-8.2293,-8.2293,-8.2293,-8.2293,-8.2293,-8.2293,-8.2293,-8.2293,-8.2293,-8.2293,-8.2293,0.0,0.0,0.0,0.0,0.0,0.0,0.0,0.0,0.0,0.0,-5.929,-5.929,0.0,0.0,0.0,0.0,0.0,0.0,0.0,0.0,0.0,-5.929,-5.929,-5.929,-5.929,-5.929,-5.929,-5.929,-5.929,-5.929,-5.929,-5.929,-5.929,-5.929,-5.929,-5.9889,-6.09,-6.1507,-6.2466,-6.357,-6.4313,-6.4761,-6.5002,-6.5068,0.0,0.0,0.0,0.0,0.0,0.0,-7.0419,-7.0419,-7.0419,-7.0419,-7.0533,-7.1259,-7.1565,-7.2024,-7.359,-7.4087,-7.4431,-7.5271,-7.5518,-7.5532,-7.5708,-7.6424,0.0,-7.8171,-7.9366,-8.0442,-8.1174,-8.1628,-8.1892,-8.1892,-8.1892,-8.1892,-8.1892,-8.1892,-8.1892,0.0,-8.1964,-8.1975,-8.1991,-8.2051,-8.2116,-8.2177,-8.2172,-8.2172,-8.2192,-8.2222,-8.228,-8.2293,-8.228,-8.2273,-8.2273,-8.228,-8.2284,-8.2284,-8.229,-8.2293,-8.2293,-8.2293,-8.2293,-8.2293,-8.2293,-8.2293,-8.2293,-8.2293,-8.2293,-8.2293,-8.2293,-8.2293,-8.2293,-8.2293,-8.2293,-8.2293,0.0,0.0,0.0,0.0,0.0,0.0,0.0,-5.929,-5.929,-5.929,-5.929,-5.929,-5.929,-5.929,-5.929,0.0,0.0,0.0,0.0,0.0,0.0,0.0,0.0,0.0,-5.929,-5.929,-5.929,-5.929,0.0,-5.929,-5.929,-5.929,-5.929,-5.9328,-5.9778,-6.0473,-6.1412,-6.2241,-6.3182,-6.4158,-6.4681,-6.4972,0.0,0.0,0.0,0.0,0.0,0.0,0.0,0.0,-7.0419,-7.0419,-7.0419,-7.0724,-7.1145,-7.1565,-7.2329,-7.317,-7.3972,-7.4545,-7.4966,-7.5403,-7.5518,-7.5664,-7.6309,0.0,0.0,-7.9237,-8.0263,-8.1093,-8.1607,-8.1805,-8.1892,-8.1892,-8.1892,-8.1892,-8.1892,-8.1892,-8.1911,-8.1964,-8.1967,-8.2022,-8.2098,-8.2134,-8.2177,-8.2261,-8.2265,-8.2265,-8.2265,-8.2284,-8.2293,-8.2293,-8.2293,-8.2293,-8.2293,-8.2293,-8.2293,-8.2293,-8.2293,-8.2293,-8.2293,-8.2293,-8.2293,-8.2293,-8.2293,-8.2293,-8.2293,-8.2293,-8.2293,-8.2293,-8.2293,-8.2293,-8.2293,-8.2293,-8.2293,-8.2293,0.0,0.0,0.0,0.0,0.0,0.0,-5.929,-5.929,-5.929,-5.929,-5.929,-5.929,-5.929,-5.929,-5.929,0.0,0.0,0.0,0.0,0.0,0.0,0.0,0.0,0.0,0.0,0.0,0.0,-5.929,-5.929,0.0,0.0,0.0,0.0,0.0,-6.0304,-6.1187,-6.2222,-6.2974,-6.3858,0.0,0.0,-6.5117,0.0,0.0,0.0,0.0,0.0,0.0,0.0,0.0,-7.0419,-7.0419,-7.061,-7.1145,-7.1718,-7.1909,-7.3017,-7.424,-7.4431,-7.4966,-7.5518,-7.5518,-7.5518,-7.5795,-7.6924,-7.7793,0.0,-8.0078,-8.101,-8.1663,-8.1873,-8.1892,-8.1892,-8.1892,-8.1892,-8.1892,-8.1892,-8.1911,-8.1947,0.0,-8.2022,0.0,-8.2182,-8.2201,-8.2222,-8.229,-8.2293,-8.2293,-8.2293,-8.2293,-8.2293,-8.2293,-8.2293,-8.2293,-8.2293,-8.2293,-8.2293,-8.2293,-8.2293,-8.2293,-8.2293,-8.2293,-8.2293,-8.2293,-8.2293,-8.2293,-8.2293,-8.2293,-8.2293,-8.2293,-8.2293,-8.2293,-8.2293,-8.2293,-8.2293,-8.2293,0.0,0.0,0.0,0.0,0.0,0.0,-5.929,-5.929,-5.929,-5.929,-5.929,-5.929,-5.929,-5.929,-5.929,0.0,0.0,0.0,0.0,0.0,0.0,0.0,0.0,0.0,0.0,0.0,0.0,-5.929,-5.929,0.0,0.0,0.0,0.0,0.0,0.0,-6.1675,-6.3434,-6.3349,0.0,0.0,0.0,0.0,0.0,0.0,0.0,0.0,0.0,0.0,0.0,0.0,0.0,-7.0533,-7.1336,-7.1642,-7.1871,-7.2635,0.0,0.0,-7.5157,-7.5442,-7.5518,-7.5518,-7.5518,-7.5846,-7.7092,0.0,-7.9044,-8.0291,-8.1252,-8.1873,-8.1892,-8.1892,-8.1892,-8.1892,-8.1892,-8.1892,-8.1892,-8.1964,-8.1983,-8.1991,0.0,0.0,-8.2192,-8.2269,-8.229,-8.2293,-8.2293,-8.2293,-8.2293,-8.2293,-8.2293,-8.2293,-8.2293,-8.2293,-8.2293,-8.2293,-8.2293,-8.2293,-8.2293,-8.2293,-8.2293,-8.2293,-8.2293,-8.2293,-8.2293,-8.2293,-8.2293,-8.2293,-8.2293,-8.2293,-8.2293,-8.2293,-8.2293,-8.2293,-8.2293,-8.2293,0.0,0.0,0.0,0.0,0.0,0.0,-5.929,-5.929,-5.929,-5.929,-5.929,-5.929,-5.929,-5.929,-5.929,-5.929,-5.929,0.0,0.0,0.0,0.0,0.0,0.0,0.0,0.0,0.0,-5.929,-5.929,-5.929,0.0,0.0,0.0,0.0,0.0,0.0,-6.2273,-6.3617,-6.4144,0.0,0.0,0.0,0.0,0.0,0.0,0.0,0.0,0.0,0.0,-7.0419,0.0,0.0,0.0,-7.172,-7.2499,0.0,0.0,-7.4316,-7.5042,-7.5386,-7.5518,-7.5518,-7.5518,-7.5844,-7.6573,-7.7891,-7.8836,-7.9804,-8.1097,-8.1659,-8.1892,-8.1892,-8.1892,-8.1892,-8.1892,-8.1892,0.0,-8.1892,-8.1929,-8.1951,-8.2051,-8.211,-8.2172,0.0,-8.2284,-8.2293,-8.2293,-8.2293,-8.2293,-8.2293,-8.2293,-8.2293,-8.2293,-8.2293,-8.2293,-8.2293,-8.2293,-8.2293,-8.2293,-8.2293,-8.2293,-8.2293,-8.2293,-8.2293,-8.2293,-8.2293,-8.2293,-8.2293,-8.2293,-8.2293,-8.2293,-8.2293,-8.2293,-8.2293,-8.2293,-8.2293,-8.2293,0.0,0.0,0.0,0.0,0.0,-5.929,-5.929,-5.929,-5.929,-5.929,-5.929,-5.929,-5.929,-5.929,-5.929,-5.929,-5.929,0.0,0.0,0.0,0.0,0.0,0.0,0.0,0.0,0.0,-5.929,-5.929,-5.929,-5.9327,0.0,0.0,-6.0319,-6.1382,0.0,0.0,0.0,0.0,0.0,0.0,0.0,0.0,0.0,0.0,0.0,0.0,0.0,0.0,0.0,0.0,0.0,0.0,0.0,0.0,0.0,0.0,-7.4843,-7.5518,-7.5518,-7.5518,-7.5556,-7.5806,-7.6335,-7.721,-7.8714,-7.9545,-8.0382,-8.165,-8.1892,-8.1892,-8.1892,-8.1892,-8.1892,-8.1892,-8.1892,-8.1892,-8.1892,-8.192,-8.1959,-8.2091,0.0,-8.2172,-8.2287,-8.2293,-8.2293,-8.2293,-8.2293,-8.2293,-8.2293,-8.2293,-8.2293,-8.2293,-8.2293,-8.2293,-8.2293,-8.2293,-8.2293,-8.2293,-8.2293,-8.2293,-8.2293,-8.2293,-8.2293,-8.2293,-8.2293,-8.2293,-8.2293,-8.2293,-8.2293,-8.2293,-8.2293,-8.2293,-8.2293,-8.2293,-8.2293,-8.2293,0.0,0.0,0.0,0.0,0.0,-5.929,-5.929,-5.929,-5.929,-5.929,-5.929,-5.929,-5.929,-5.929,-5.929,-5.929,-5.929,0.0,0.0,0.0,0.0,0.0,0.0,0.0,-5.929,-5.929,-5.929,-5.929,-5.929,-5.9382,-5.9598,-6.0501,-6.1437,-6.2442,0.0,0.0,0.0,0.0,0.0,0.0,0.0,0.0,0.0,0.0,0.0,0.0,0.0,0.0,0.0,0.0,0.0,0.0,0.0,-7.3552,-7.4253,0.0,-7.4992,-7.5518,-7.5518,-7.5518,-7.5692,-7.6494,-7.6908,-7.7585,-7.9475,-8.0112,-8.0611,-8.167,-8.1892,-8.1892,-8.1892,-8.1892,-8.1892,-8.1892,-8.1892,0.0,-8.1892,-8.1973,-8.2022,0.0,-8.2162,-8.2249,-8.229,-8.2293,-8.2293,-8.2293,-8.2293,-8.2293,-8.2293,-8.2293,-8.2293,-8.2293,-8.2293,-8.2293,-8.2293,-8.2293,-8.2293,-8.2293,-8.2293,-8.2293,-8.2293,-8.2293,-8.2293,-8.2293,-8.2293,-8.2293,-8.2293,-8.2293,-8.2293,-8.2293,-8.2293,-8.2293,-8.2293,-8.2293,-8.2293,-8.2293,0.0,0.0,0.0,0.0,0.0,0.0,-5.929,-5.929,-5.929,-5.929,-5.929,-5.929,-5.929,-5.929,-5.929,-5.929,-5.929,0.0,0.0,0.0,0.0,0.0,0.0,0.0,-5.929,-5.929,-5.929,-5.929,-5.9418,-5.9827,-6.0501,-6.0849,-6.189,-6.346,-6.3688,-6.434,0.0,0.0,0.0,0.0,0.0,0.0,0.0,0.0,0.0,0.0,0.0,0.0,0.0,0.0,0.0,0.0,0.0,0.0,0.0,-7.5334,-7.5452,-7.5633,-7.615,-7.6459,-7.6782,-7.7588,-7.8393,-7.9205,-8.0009,-8.0674,-8.127,-8.1786,-8.1892,-8.1892,-8.1892,-8.1892,-8.1892,-8.1892,-8.1892,-8.1892,0.0,0.0,0.0,-8.2098,-8.2192,-8.228,-8.229,-8.2293,-8.2293,-8.2293,-8.2293,-8.2293,-8.2293,-8.2293,-8.2293,-8.2293,-8.2293,-8.2293,-8.2293,-8.2293,-8.2293,-8.2293,-8.2293,-8.2293,-8.2293,-8.2293,-8.2293,-8.2293,-8.2293,-8.2293,-8.2293,-8.2293,-8.2293,-8.2293,-8.2293,-8.2293,-8.2293,-8.2293,-8.2293,-8.2293,0.0,0.0,0.0,0.0,0.0,0.0,-5.929,-5.929,-5.929,-5.929,-5.929,-5.929,-5.929,-5.929,-5.929,-5.929,-5.929,0.0,0.0,0.0,0.0,0.0,0.0,0.0,-5.929,-5.929,-5.9327,-5.94,-5.9865,-6.042,-6.1103,-6.1809,-6.2829,-6.4016,-6.4321,-6.4825,0.0,0.0,0.0,0.0,0.0,0.0,-6.8012,0.0,0.0,0.0,0.0,0.0,0.0,0.0,0.0,0.0,0.0,0.0,0.0,0.0,-7.5791,-7.6071,-7.671,-7.6974,-7.7385,-7.8592,-7.9489,-8.0177,-8.0648,-8.1231,-8.1695,-8.1873,-8.1892,-8.1892,-8.1892,-8.1892,-8.1892,-8.1892,-8.1892,-8.1902,-8.1938,-8.1959,-8.2029,-8.2134,-8.2214,-8.2293,-8.2293,-8.2293,-8.2293,-8.2293,-8.2293,-8.2293,-8.2293,-8.2293,-8.2293,-8.2293,-8.2293,-8.2293,-8.2293,-8.2293,-8.2293,-8.2293,-8.2293,-8.2293,-8.2293,-8.2293,-8.2293,-8.2293,-8.2293,-8.2293,0.0,-8.2293,-8.2293,-8.2293,-8.2293,-8.2293,-8.2293,-8.2293,-8.2293,-8.2293,0.0,0.0,0.0,0.0,0.0,0.0,0.0,-5.929,-5.929,-5.929,-5.929,-5.929,-5.929,-5.929,-5.929,-5.929,-5.929,0.0,0.0,0.0,0.0,0.0,0.0,-5.929,-5.929,-5.9309,-5.9438,-5.9691,-6.0536,-6.1178,-6.1599,-6.3213,-6.4054,-6.432,-6.507,-6.5413,-6.5413,-6.5413,-6.5452,-6.5566,-6.6445,-6.7286,0.0,0.0,0.0,0.0,0.0,0.0,0.0,0.0,0.0,0.0,0.0,0.0,0.0,0.0,0.0,0.0,0.0,-7.7232,-7.7731,-7.9566,-8.0202,-8.0616,-8.1352,-8.1706,0.0,-8.1892,-8.1892,-8.1892,-8.1892,-8.1892,-8.1892,-8.1892,-8.1892,-8.1929,-8.1975,-8.1999,-8.2065,-8.2187,-8.2273,-8.2293,-8.2293,-8.2293,-8.2293,-8.2293,-8.2293,-8.2293,-8.2293,-8.2293,-8.2293,-8.2293,-8.2293,-8.2293,-8.2293,-8.2293,-8.2293,-8.2293,-8.2293,-8.2293,-8.2293,-8.2293,-8.2293,-8.2293,-8.2293,-8.2293,-8.2293,-8.2293,-8.2293,-8.2293,-8.2293,-8.2293,-8.2293,-8.2293,-8.2293,-8.2293,0.0,0.0,0.0,0.0,0.0,0.0,0.0,0.0,0.0,0.0,-5.929,-5.929,-5.929,-5.929,-5.929,0.0,0.0,0.0,0.0,0.0,0.0,0.0,-5.929,-5.929,-5.929,-5.9436,-5.9882,-6.0577,-6.1055,-6.1977,-6.3312,-6.3856,-6.4466,-6.5146,-6.5337,-6.5413,-6.5413,-6.5413,-6.5796,-6.6483,-6.7286,-6.8126,0.0,0.0,0.0,0.0,-7.0419,-7.0839,0.0,0.0,0.0,0.0,0.0,0.0,0.0,0.0,-7.6074,-7.6908,-7.779,0.0,-7.9541,-8.0795,-8.1331,-8.1573,0.0,-8.1864,-8.1892,-8.1892,-8.1892,-8.1892,-8.1892,-8.1892,-8.1892,-8.1892,-8.1892,-8.1929,-8.1975,-8.2091,-8.2177,-8.2273,-8.2287,-8.2293,-8.2293,-8.2293,-8.2293,-8.2293,-8.2293,-8.2293,-8.2293,-8.2293,-8.2293,-8.2293,-8.2293,-8.2293,-8.2293,-8.2293,-8.2293,-8.2293,-8.2293,-8.2293,-8.2293,-8.2293,-8.2293,-8.2293,-8.2293,-8.2293,-8.2293,-8.2293,-8.2293,-8.2293,-8.2293,-8.2293,-8.2293,-8.2293,-8.2293,-8.2293,0.0,0.0,0.0,0.0,0.0,0.0,0.0,0.0,0.0,0.0,-5.929,-5.929,-5.929,-5.929,-5.929,0.0,0.0,0.0,0.0,0.0,0.0,-5.929,-5.929,-5.9533,-6.0001,-6.0146,-6.0702,-6.1667,-6.2265,-6.3039,-6.4031,-6.4543,-6.4993,-6.5413,-6.5413,-6.5413,-6.5413,-6.5834,-6.6254,-6.6827,-6.8012,0.0,0.0,0.0,0.0,0.0,-7.0419,-7.0954,0.0,-7.2711,-7.3514,-7.4354,0.0,0.0,0.0,0.0,-7.6647,-7.752,-7.8596,-7.9383,-8.0163,-8.1243,-8.1695,-8.1892,-8.1892,-8.1892,-8.1892,-8.1892,-8.1892,-8.1892,-8.1892,-8.1892,-8.1892,-8.1892,-8.1929,-8.1967,-8.2078,-8.2177,-8.2269,-8.229,-8.2293,-8.2293,-8.2293,-8.2293,-8.2293,-8.2293,-8.2293,-8.2293,-8.2293,-8.2293,-8.2293,-8.2293,-8.2293,-8.2293,-8.2293,-8.2293,-8.2293,-8.2293,-8.2293,-8.2293,-8.2293,-8.2293,-8.2293,-8.2293,-8.2293,-8.2293,-8.2293,-8.2293,-8.2293,-8.2293,-8.2293,-8.2293,-8.2293,-8.2293,-8.2293,-8.2293,0.0,0.0,0.0,0.0,0.0,0.0,0.0,0.0,0.0,0.0,0.0,0.0,0.0,0.0,0.0,0.0,0.0,0.0,0.0,0.0,-5.9533,-5.9533,-5.9533,-5.9945,-6.0878,-6.1062,-6.1688,-6.2817,-6.3556,-6.4107,-6.4397,-6.507,-6.5413,-6.5413,-6.5413,-6.5452,-6.5643,-6.6407,-6.6865,-6.7209,-6.8623,0.0,0.0,0.0,0.0,0.0,0.0,0.0,0.0,-7.2902,-7.3705,-7.4545,-7.5271,0.0,0.0,0.0,0.0,0.0,-7.9275,-7.98,-8.0263,-8.1282,-8.1695,-8.1892,-8.1892,-8.1892,-8.1892,-8.1892,-8.1892,-8.1892,-8.1892,-8.1892,-8.1892,-8.1892,-8.1943,-8.2058,-8.2177,-8.2269,-8.2293,-8.2293,-8.2293,-8.2293,-8.2293,-8.2293,-8.2293,-8.2293,-8.2293,-8.2293,-8.2293,-8.2293,-8.2293,-8.2293,-8.2293,-8.2293,-8.2293,-8.2293,-8.2293,-8.2293,-8.2293,-8.2293,-8.2293,-8.2293,-8.2293,-8.2293,-8.2293,-8.2293,-8.2293,-8.2293,-8.2293,-8.2293,-8.2293,-8.2293,-8.2293,-8.2293,-8.2293,-8.2293,0.0,0.0,0.0,0.0,0.0,0.0,0.0,0.0,0.0,0.0,0.0,0.0,0.0,0.0,0.0,0.0,0.0,0.0,0.0,-6.015,-6.0654,-6.0654,-6.0654,-6.0748,-6.0896,-6.183,-6.2807,-6.3692,-6.4024,-6.452,-6.5222,-6.5337,-6.5413,-6.5413,-6.5413,-6.5796,-6.6522,-6.6636,-6.7515,-6.8852,-6.9082,0.0,0.0,0.0,0.0,0.0,0.0,0.0,0.0,-7.3743,-7.4584,-7.531,-7.548,0.0,0.0,0.0,0.0,0.0,-7.9109,-7.9987,-8.0793,-8.1361,-8.1695,-8.1892,-8.1892,-8.1892,-8.1892,-8.1892,-8.1892,-8.1892,-8.1892,-8.1892,-8.1892,-8.1892,-8.1999,-8.2116,-8.2182,-8.2269,-8.2293,-8.2293,-8.2293,-8.2293,-8.2293,-8.2293,-8.2293,-8.2293,-8.2293,-8.2293,-8.2293,-8.2293,-8.2293,-8.2293,-8.2293,-8.2293,-8.2293,-8.2293,-8.2293,-8.2293,-8.2293,-8.2293,-8.2293,-8.2293,-8.2293,-8.2293,-8.2293,-8.2293,-8.2293,-8.2293,-8.2293,-8.2293,-8.2293,-8.2293,-8.2293,-8.2293,-8.2293,-8.2293,0.0,0.0,0.0,0.0,0.0,0.0,0.0,0.0,0.0,0.0,0.0,0.0,0.0,0.0,0.0,0.0,0.0,0.0,-6.0132,-6.0654,-6.112,-6.1678,-6.2235,-6.2513,-6.2513,-6.3041,-6.3762,-6.4695,-6.481,-6.5031,-6.5413,-6.5413,-6.5643,-6.6101,-6.6101,-6.656,-6.7362,-6.7859,-6.8508,-6.9234,0.0,0.0,0.0,0.0,0.0,0.0,0.0,0.0,0.0,0.0,-7.4775,-7.5518,-7.5518,0.0,0.0,0.0,0.0,0.0,-7.9589,-8.0378,-8.0892,-8.1244,-8.1511,-8.1716,-8.1873,-8.1892,-8.1892,-8.1892,-8.1892,-8.1892,-8.1892,-8.1938,-8.1959,-8.2051,-8.2116,-8.2177,-8.2222,-8.2284,-8.2293,-8.2293,-8.2293,-8.2293,-8.2293,-8.2293,-8.2293,-8.2293,-8.2293,-8.2293,-8.2293,-8.2293,-8.2293,-8.2293,-8.2293,-8.2293,-8.2293,-8.2293,-8.2293,-8.2293,-8.2293,-8.2293,-8.2293,-8.2293,-8.2293,-8.2293,-8.2293,-8.2293,-8.2293,-8.2293,-8.2293,-8.2293,-8.2293,-8.2293,-8.2293,-8.2293,-8.2293,-8.2293,0.0,0.0,0.0,0.0,0.0,0.0,0.0,0.0,0.0,0.0,0.0,0.0,0.0,0.0,0.0,0.0,0.0,-6.0001,-6.0841,-6.1344,-6.1957,-6.272,-6.3698,-6.4143,-6.3921,-6.4143,-6.4641,-6.5413,-6.5413,-6.5413,-6.5413,-6.5605,-6.6063,-6.6713,-6.6904,-6.7439,-6.8241,-6.8929,-6.9311,-6.954,0.0,0.0,0.0,0.0,0.0,0.0,0.0,0.0,0.0,0.0,0.0,0.0,0.0,0.0,0.0,-7.7526,-7.8022,-7.8384,-8.0101,-8.0681,-8.0876,-8.1175,-8.1375,-8.158,-8.1854,-8.1892,-8.1892,-8.1892,-8.1892,-8.1892,-8.1892,-8.1934,-8.2036,-8.2156,-8.2182,-8.221,-8.2287,-8.2293,-8.2293,-8.2293,-8.2293,-8.2293,-8.2293,-8.2293,-8.2293,-8.2293,-8.2293,-8.2293,-8.2293,-8.2293,-8.2293,-8.2293,-8.2293,-8.2293,-8.2293,-8.2293,-8.2293,-8.2293,-8.2293,-8.2293,-8.2293,-8.2293,-8.2293,-8.2293,-8.2293,-8.2293,-8.2293,-8.2293,-8.2293,-8.2293,-8.2293,-8.2293,-8.2293,-8.2293,-8.2293,-8.2293,0.0,0.0,0.0,0.0,0.0,0.0,0.0,0.0,0.0,0.0,0.0,0.0,0.0,0.0,0.0,0.0,-6.0188,-6.0841,-6.0896,-6.2644,-6.3736,-6.3791,-6.4749,-6.4879,-6.3921,-6.4825,-6.5322,-6.5413,-6.5413,-6.5413,-6.5413,-6.6216,-6.6636,-6.6751,-6.7477,-6.8279,-6.912,-6.9158,-6.9616,-7.0342,-7.0381,0.0,0.0,0.0,0.0,0.0,0.0,0.0,0.0,0.0,0.0,0.0,0.0,0.0,-7.5806,-7.7526,-7.8022,-7.842,-8.0251,-8.0795,-8.0923,-8.1375,-8.1472,-8.158,-8.1854,-8.1892,-8.1892,-8.1892,-8.1892,-8.1892,-8.1892,-8.1934,-8.2022,-8.2104,-8.2162,-8.221,-8.2287,-8.2293,-8.2293,-8.2293,-8.2293,-8.2293,-8.2293,-8.2293,-8.2293,-8.2293,-8.2293,-8.2293,-8.2293,-8.2293,-8.2293,-8.2293,-8.2293,-8.2293,-8.2293,-8.2293,-8.2293,-8.2293,-8.2293,-8.2293,-8.2293,-8.2293,-8.2293,-8.2293,-8.2293,-8.2293,-8.2293,-8.2293,-8.2293,-8.2293,-8.2293,-8.2293,-8.2293,-8.2293,-8.2293,-8.2293,0.0,0.0,0.0,0.0,0.0,0.0,0.0,0.0,0.0,0.0,0.0,-5.9345,-5.9454,0.0,0.0,0.0,-6.0725,-6.1437,-6.2682,-6.3476,-6.4197,-6.4825,-6.5192,-6.523,-6.4825,-6.5192,-6.5413,-6.5413,-6.5948,-6.6216,-6.6216,-6.7056,-6.7744,-6.8279,-6.8585,-6.9158,-6.996,-6.996,-7.0113,-7.0419,-7.0419,-7.0419,0.0,0.0,0.0,0.0,0.0,0.0,0.0,0.0,-7.5518,-7.5518,-7.5518,-7.5518,-7.5806,-7.7526,-7.8022,-7.8384,-8.0137,-8.0716,-8.0892,-8.1217,-8.14,-8.158,-8.1854,-8.1892,-8.1892,-8.1892,-8.1938,-8.1959,-8.2014,-8.2085,-8.2134,-8.2156,-8.2205,-8.2277,-8.229,-8.2293,-8.2293,-8.2293,-8.2293,-8.2293,-8.2293,-8.2293,-8.2293,-8.2293,-8.2293,-8.2293,-8.2293,-8.2293,-8.2293,-8.2293,-8.2293,-8.2293,-8.2293,-8.2293,-8.2293,-8.2293,-8.2293,-8.2293,-8.2293,-8.2293,-8.2293,-8.2293,-8.2293,-8.2293,-8.2293,-8.2293,-8.2293,-8.2293,-8.2293,-8.2293,-8.2293,-8.2293,-8.2293,-8.2293,0.0,0.0,0.0,0.0,0.0,0.0,0.0,0.0,-5.929,0.0,0.0,0.0,0.0,-5.97,0.0,0.0,-6.1523,-6.2421,-6.3829,-6.4197,-6.4695,-6.5375,-6.5413,-6.5413,-6.5413,-6.5681,-6.5796,-6.5796,-6.6674,-6.7095,-6.7095,-6.7935,-6.8623,-6.9196,-6.9464,-6.9884,-7.0419,-7.0419,-7.0572,-7.0801,-7.0801,-7.0992,0.0,0.0,0.0,0.0,0.0,0.0,0.0,0.0,-7.5518,-7.5518,-7.5518,-7.5518,-7.5806,-7.7526,-7.8022,-7.8384,-8.0119,-8.0716,-8.0892,-8.1203,-8.1387,-8.158,-8.1863,-8.1938,-8.1938,-8.1938,-8.199,-8.2014,-8.2091,-8.214,-8.2172,-8.2192,-8.2269,-8.2293,-8.2293,-8.2293,-8.2293,-8.2293,-8.2293,-8.2293,-8.2293,-8.2293,-8.2293,-8.2293,-8.2293,-8.2293,-8.2293,-8.2293,-8.2293,-8.2293,-8.2293,-8.2293,-8.2293,-8.2293,-8.2293,-8.2293,-8.2293,-8.2293,-8.2293,-8.2293,-8.2293,-8.2293,-8.2293,-8.2293,-8.2293,-8.2293,-8.2293,-8.2293,-8.2293,-8.2293,-8.2293,-8.2293,-8.2293,-8.2293,0.0,0.0,0.0,0.0,0.0,0.0,0.0,0.0,-5.929,-5.929,-5.929,0.0,0.0,0.0,0.0,0.0,-6.2736,-6.3921,-6.3921,-6.4825,-6.5413,-6.5413,-6.5413,-6.5413,-6.5413,-6.6254,-6.6713,-6.6713,-6.7515,-6.7897,-6.7935,-6.8814,-6.9196,-6.9234,-7.0037,-7.0419,-7.0419,-7.0419,-7.0916,-7.168,-7.1735,-7.2215,-7.2979,0.0,0.0,0.0,0.0,0.0,0.0,0.0,-7.5518,-7.5518,-7.5518,-7.5518,-7.5844,-7.7526,-7.8022,-7.842,-8.0268,-8.0811,-8.0939,-8.1387,-8.1484,-8.1613,-8.1904,-8.1991,-8.1991,-8.1991,-8.1991,-8.2014,-8.2098,-8.211,-8.2128,-8.2182,-8.2269,-8.2293,-8.2293,-8.2293,-8.2293,-8.2293,-8.2293,-8.2293,-8.2293,-8.2293,-8.2293,-8.2293,-8.2293,-8.2293,-8.2293,-8.2293,-8.2293,-8.2293,-8.2293,-8.2293,-8.2293,-8.2293,-8.2293,-8.2293,-8.2293,-8.2293,-8.2293,-8.2293,-8.2293,-8.2293,-8.2293,-8.2293,-8.2293,-8.2293,-8.2293,-8.2293,-8.2293,-8.2293,-8.2293,-8.2293,-8.2293,-8.2293,0.0,0.0,0.0,0.0,0.0,0.0,0.0,0.0,-5.9528,-5.9528,-5.9613,0.0,0.0,0.0,0.0,0.0,0.0,0.0,-6.4917,-6.523,-6.5413,-6.5413,-6.5987,-6.633,-6.633,-6.7706,-6.8165,-6.7553,-6.8394,-6.8814,-6.8814,-6.9655,-7.0037,-7.0037,-7.0304,-7.0419,-7.0457,-7.1068,-7.145,-7.1773,-7.2367,-7.275,-7.3055,0.0,0.0,0.0,0.0,0.0,0.0,0.0,0.0,0.0,-7.5518,-7.5883,-7.657,-7.7678,-7.8443,-7.9149,-8.0272,-8.0833,-8.1104,-8.1244,-8.1591,-8.1869,-8.1975,-8.1943,-8.1973,-8.2051,-8.211,-8.2151,-8.2167,-8.2196,-8.2214,-8.2196,-8.2269,-8.2293,-8.2293,-8.2293,-8.2293,-8.2293,-8.2293,-8.2293,-8.2293,-8.2293,-8.2293,-8.2293,-8.2293,-8.2293,-8.2293,-8.2293,-8.2293,-8.2293,-8.2293,-8.2293,-8.2293,-8.2293,-8.2293,-8.2293,-8.2293,-8.2293,-8.2293,-8.2293,-8.2293,-8.2293,-8.2293,-8.2293,-8.2293,-8.2293,-8.2293,-8.2293,-8.2293,-8.2293,-8.2293,-8.2293,-8.2293,-8.2293,0.0,0.0,0.0,0.0,0.0,0.0,-5.929,-5.9454,-5.9616,-5.9616,-6.0034,-6.0617,0.0,0.0,0.0,0.0,0.0,0.0,-6.5375,-6.5719,-6.591,-6.591,-6.6713,-6.7324,-6.7706,-6.8661,-6.9082,-6.889,-6.9425,-6.9693,-6.9693,-7.019,-7.0419,-7.0419,-7.0763,-7.0916,-7.0954,-7.1833,-7.2406,-7.275,-7.3284,-7.3667,-7.4049,0.0,0.0,0.0,0.0,0.0,0.0,0.0,0.0,0.0,-7.5883,-7.6303,-7.6953,-7.8175,-7.8901,-7.9473,-8.0384,-8.0833,-8.1075,-8.1258,-8.1575,-8.1895,-8.2022,-8.2029,-8.2051,-8.2156,-8.2187,-8.2196,-8.2218,-8.2265,-8.2269,-8.2222,-8.228,-8.2293,-8.2293,-8.2293,-8.2293,-8.2293,-8.2293,-8.2293,-8.2293,-8.2293,-8.2293,-8.2293,-8.2293,-8.2293,-8.2293,-8.2293,-8.2293,-8.2293,-8.2293,-8.2293,-8.2293,-8.2293,-8.2293,-8.2293,-8.2293,-8.2293,-8.2293,-8.2293,-8.2293,-8.2293,-8.2293,-8.2293,-8.2293,-8.2293,-8.2293,-8.2293,-8.2293,-8.2293,-8.2293,-8.2293,-8.2293,-8.2293,0.0,0.0,-5.929,-5.929,0.0,0.0,-5.9309,-5.949,-5.9668,-5.9743,-6.0577,-6.1186,0.0,0.0,0.0,-6.4013,-6.4879,-6.5413,-6.5528,-6.6254,-6.6751,-6.6827,-6.7591,-6.8432,-6.9273,-6.9311,-6.9655,-7.0419,-7.0419,-7.0419,-7.0419,-7.0419,-7.0457,-7.0572,-7.1336,-7.1718,-7.1871,-7.275,-7.3514,-7.4201,-7.4278,-7.4775,-7.5518,-7.5518,0.0,0.0,0.0,0.0,0.0,0.0,0.0,0.0,-7.657,-7.6876,-7.7258,-7.8843,-7.9358,-7.966,-8.0553,-8.0844,-8.0946,-8.1412,-8.1568,-8.1735,-8.2046,-8.2167,-8.221,-8.2284,-8.2261,-8.221,-8.2287,-8.2265,-8.2214,-8.2287,-8.2293,-8.2293,-8.2293,-8.2293,-8.2293,-8.2293,-8.2293,-8.2293,-8.2293,-8.2293,-8.2293,-8.2293,-8.2293,-8.2293,-8.2293,-8.2293,-8.2293,-8.2293,-8.2293,-8.2293,-8.2293,-8.2293,-8.2293,-8.2293,-8.2293,-8.2293,-8.2293,-8.2293,-8.2293,-8.2293,-8.2293,-8.2293,-8.2293,-8.2293,-8.2293,-8.2293,-8.2293,-8.2293,-8.2293,-8.2293,-8.2293,-8.2293,0.0,0.0,-5.929,-5.929,0.0,0.0,-5.9545,-5.9798,-6.0257,-6.0919,-6.1286,-6.1987,-6.3375,-6.3902,0.0,-6.5024,-6.5284,-6.5681,-6.6369,-6.6598,-6.698,-6.7591,-6.847,-6.9311,-7.0113,-7.0151,-7.0228,-7.0419,-7.0419,-7.0419,-7.0419,-7.0419,-7.0763,-7.1412,-7.1603,-7.2062,-7.275,-7.359,-7.4049,-7.4278,-7.4927,-7.531,-7.5518,-7.5518,-7.5518,0.0,0.0,0.0,0.0,0.0,0.0,0.0,-7.7449,-7.8175,-7.8787,-7.9187,-7.9866,-8.0515,-8.0756,-8.1051,-8.1412,-8.1547,-8.1851,-8.2112,-8.2218,-8.2277,-8.2277,-8.2214,-8.2265,-8.2284,-8.229,-8.2287,-8.2284,-8.229,-8.2293,-8.2293,-8.2293,-8.2293,-8.2293,-8.2293,-8.2293,-8.2293,-8.2293,-8.2293,-8.2293,-8.2293,-8.2293,-8.2293,-8.2293,-8.2293,-8.2293,-8.2293,-8.2293,-8.2293,-8.2293,-8.2293,-8.2293,-8.2293,-8.2293,-8.2293,-8.2293,-8.2293,-8.2293,-8.2293,-8.2293,-8.2293,-8.2293,-8.2293,-8.2293,-8.2293,-8.2293,-8.2293,-8.2293,-8.2293,-8.2293,-8.2293,0.0,0.0,0.0,0.0,0.0,0.0,0.0,0.0,-6.1012,-6.1865,-6.2498,-6.3197,-6.4091,-6.4535,0.0,0.0,-6.6025,-6.6369,-6.7209,-6.7668,-6.8279,-6.9043,-6.954,-6.996,-7.0381,-7.0419,-7.0419,-7.0419,-7.0419,-7.0419,-7.0419,-7.0839,-7.1259,-7.1718,-7.252,-7.3132,-7.3628,-7.4469,-7.4813,-7.4851,-7.531,-7.5518,-7.5518,-7.5518,-7.5518,-7.5518,-7.5518,0.0,0.0,0.0,0.0,0.0,0.0,0.0,-7.9378,-7.9742,-8.0234,-8.0694,-8.0992,-8.1207,-8.1491,-8.1795,-8.2038,-8.2205,-8.2284,-8.2293,-8.2287,-8.2269,-8.228,-8.2293,-8.2293,-8.2293,-8.2293,-8.2293,-8.2293,-8.2293,-8.2293,-8.2293,-8.2293,-8.2293,-8.2293,-8.2293,-8.2293,-8.2293,-8.2293,-8.2293,-8.2293,-8.2293,-8.2293,-8.2293,-8.2293,-8.2293,-8.2293,-8.2293,-8.2293,-8.2293,-8.2293,-8.2293,-8.2293,-8.2293,-8.2293,-8.2293,-8.2293,-8.2293,-8.2293,-8.2293,-8.2293,-8.2293,-8.2293,-8.2293,-8.2293,-8.2293,-8.2293,-8.2293,-8.2293,-8.2293,0.0,0.0,0.0,0.0,0.0,0.0,0.0,0.0,0.0,-6.2772,-6.3657,-6.4244,-6.4382,-6.5146,-6.591,0.0,0.0,0.0,-6.805,-6.8929,-6.9693,-7.0381,-7.0419,-7.0419,-7.0419,-7.0419,-7.0419,-7.0419,-7.0572,-7.061,-7.0648,-7.1374,-7.1833,-7.2176,-7.359,-7.4278,-7.4469,-7.5195,-7.5518,-7.5518,-7.5535,-7.5518,-7.5518,-7.5671,-7.5709,-7.573,-7.5883,-7.6341,-7.6953,-7.7105,0.0,0.0,0.0,0.0,-7.9646,-8.0315,-8.0505,-8.0646,-8.1098,-8.1271,-8.1491,-8.205,-8.2196,-8.2214,-8.2287,-8.2293,-8.2293,-8.2293,-8.2293,-8.2293,-8.2293,-8.2293,-8.2293,-8.2293,-8.2293,-8.2293,-8.2293,-8.2293,-8.2293,-8.2293,-8.2293,-8.2293,-8.2293,-8.2293,-8.2293,-8.2293,-8.2293,-8.2293,-8.2293,-8.2293,-8.2293,-8.2293,-8.2293,-8.2293,-8.2293,-8.2293,-8.2293,-8.2293,-8.2293,-8.2293,-8.2293,-8.2293,-8.2293,-8.2293,-8.2293,-8.2293,-8.2293,-8.2293,-8.2293,-8.2293,-8.2293,-8.2293,-8.2293,-8.2293,-8.2293,-8.2293,0.0,0.0,0.0,0.0,0.0,0.0,0.0,0.0,0.0,0.0,-6.4114,-6.4458,-6.5146,-6.6025,-6.656,-6.6713,-6.7324,-6.8088,-6.8967,0.0,0.0,-7.0419,-7.0419,-7.0419,-7.0419,-7.0419,-7.0419,-7.0419,-7.1145,-7.1527,-7.1527,-7.1642,-7.2482,-7.3896,-7.4087,-7.4622,-7.531,-7.5442,-7.5518,-7.5518,-7.5549,-7.5532,-7.5594,-7.639,-7.6641,-7.6647,-7.7411,-7.7755,-7.7946,-7.871,-7.9034,0.0,0.0,0.0,-8.0353,-8.0468,-8.0611,-8.0778,-8.0876,-8.1259,-8.1748,-8.2112,-8.2222,-8.2287,-8.229,-8.2293,-8.2293,-8.2293,-8.2293,-8.2293,-8.2293,-8.2293,-8.2293,-8.2293,-8.2293,-8.2293,-8.2293,-8.2293,-8.2293,-8.2293,-8.2293,-8.2293,-8.2293,-8.2293,-8.2293,-8.2293,-8.2293,-8.2293,-8.2293,-8.2293,-8.2293,-8.2293,-8.2293,-8.2293,-8.2293,-8.2293,-8.2293,-8.2293,-8.2293,-8.2293,-8.2293,-8.2293,-8.2293,-8.2293,-8.2293,-8.2293,-8.2293,-8.2293,-8.2293,-8.2293,-8.2293,-8.2293,-8.2293,-8.2293,-8.2293,-8.2293,0.0,0.0,0.0,0.0,0.0,0.0,0.0,0.0,0.0,0.0,0.0,-6.5184,-6.6025,-6.6483,-6.7095,-6.8012,-6.8432,-6.8967,-6.9807,-7.019,-7.0419,-7.0419,-7.0419,-7.0419,-7.0419,-7.0877,-7.1145,-7.1145,-7.1985,-7.2673,-7.3093,-7.3093,-7.3476,-7.424,-7.4698,-7.5119,-7.5518,-7.5514,-7.5549,-7.5587,-7.6147,-7.6071,-7.5769,-7.7054,-7.7249,-7.6908,-7.775,-7.8362,-7.8838,-7.9221,-7.9642,-8.0083,-8.041,0.0,0.0,0.0,-8.056,-8.0694,-8.1046,-8.1462,-8.1849,-8.2162,-8.228,-8.2293,-8.2293,-8.2293,-8.2293,-8.2293,-8.2293,-8.2293,-8.2293,-8.2293,-8.2293,-8.2293,-8.2293,-8.2293,-8.2293,-8.2293,-8.2293,-8.2293,-8.2293,-8.2293,-8.2293,-8.2293,-8.2293,-8.2293,-8.2293,-8.2293,-8.2293,-8.2293,-8.2293,-8.2293,-8.2293,-8.2293,-8.2293,-8.2293,-8.2293,-8.2293,-8.2293,-8.2293,-8.2293,-8.2293,-8.2293,-8.2293,-8.2293,-8.2293,-8.2293,-8.2293,-8.2293,-8.2293,-8.2293,-8.2293,-8.2293,-8.2293,-8.2293,-8.2293,0.0,0.0,0.0,0.0,0.0,0.0,0.0,0.0,0.0,0.0,0.0,0.0,-6.6636,0.0,0.0,0.0,-6.9387,-6.9769,-7.0381,-7.0419,-7.0419,-7.0419,-7.061,-7.0724,-7.0724,-7.1565,-7.2024,-7.2024,-7.2902,-7.3628,-7.4201,-7.4431,-7.4545,-7.4545,-7.5195,-7.5518,-7.5553,-7.5566,-7.5731,-7.5994,-7.6498,-7.6568,-7.6498,-7.7713,-7.7909,-7.7663,-7.8505,-7.9194,-7.9786,-7.9786,-8.0134,-8.0596,-8.0523,-8.0525,0.0,0.0,0.0,-8.0694,-8.1257,-8.16,-8.1877,-8.2226,-8.2293,-8.2293,-8.2293,-8.2293,-8.2293,-8.2293,-8.2293,-8.2293,-8.2293,-8.2293,-8.2293,-8.2293,-8.2293,-8.2293,-8.2293,-8.2293,-8.2293,-8.2293,-8.2293,-8.2293,-8.2293,-8.2293,-8.2293,-8.2293,-8.2293,-8.2293,-8.2293,-8.2293,-8.2293,-8.2293,-8.2293,-8.2293,-8.2293,-8.2293,-8.2293,-8.2293,-8.2293,-8.2293,-8.2293,-8.2293,-8.2293,-8.2293,-8.2293,-8.2293,-8.2293,-8.2293,-8.2293,-8.2293,-8.2293,-8.2293,-8.2293,-8.2293,-8.2293,-8.2293,0.0,0.0,0.0,0.0,0.0,0.0,0.0,0.0,0.0,0.0,0.0,0.0,-6.6713,-6.8126,-6.912,-6.9196,-6.9884,-7.0381,-7.0419,-7.0419,-7.0419,-7.0419,-7.1183,0.0,-7.1642,-7.2482,-7.2941,-7.2941,-7.3743,-7.4163,-7.424,-7.5042,-7.5442,-7.5442,-7.548,-7.5553,-7.5583,-7.5599,-7.6109,-7.6859,-7.6232,-7.6831,-7.8201,-7.8343,-7.8788,-7.9489,-8.0371,-8.0677,-8.0754,-8.0754,-8.0646,-8.0614,-8.0614,-8.0542,-8.0506,0.0,0.0,0.0,-8.1294,-8.1543,-8.1804,-8.2179,-8.2293,-8.2293,-8.2293,-8.2293,-8.2293,-8.2293,-8.2293,-8.2293,-8.2293,-8.2293,-8.2293,-8.2293,-8.2293,-8.2293,-8.2293,-8.2293,-8.2293,-8.2293,-8.2293,-8.2293,-8.2293,-8.2293,-8.2293,-8.2293,-8.2293,-8.2293,-8.2293,-8.2293,-8.2293,-8.2293,-8.2293,-8.2293,-8.2293,-8.2293,-8.2293,-8.2293,-8.2293,-8.2293,-8.2293,-8.2293,-8.2293,-8.2293,-8.2293,-8.2293,-8.2293,-8.2293,-8.2293,-8.2293,-8.2293,-8.2293,-8.2293,-8.2293,-8.2293,-8.2293,0.0,0.0,0.0,0.0,0.0,0.0,0.0,0.0,0.0,0.0,0.0,0.0,0.0,-6.8852,-6.9425,-6.9922,-7.0228,-7.0648,-7.1183,-7.1221,-7.1489,-7.2024,-7.2367,-7.252,-7.252,-7.3361,-7.3781,-7.3781,-7.4622,-7.5042,-7.5042,-7.5348,-7.5518,-7.5518,-7.5518,-7.5553,-7.5638,-7.6241,-7.6744,-7.7131,-7.8054,-7.8416,-7.8538,-7.9582,-7.9873,-7.9725,-8.057,-8.0877,-8.0877,-8.0877,-8.0822,-8.0822,-8.0885,-8.0916,-8.0931,-8.1046,-8.1101,-8.1195,-8.1582,-8.1703,-8.187,-8.2226,-8.2293,-8.2293,-8.2293,-8.2293,-8.2293,-8.2293,-8.2293,-8.2293,-8.2293,-8.2293,-8.2293,-8.2293,-8.2293,-8.2293,-8.2293,-8.2293,-8.2293,-8.2293,-8.2293,-8.2293,-8.2293,-8.2293,-8.2293,-8.2293,-8.2293,-8.2293,-8.2293,-8.2293,-8.2293,-8.2293,-8.2293,-8.2293,-8.2293,-8.2293,-8.2293,-8.2293,-8.2293,-8.2293,-8.2293,-8.2293,-8.2293,-8.2293,-8.2293,-8.2293,-8.2293,-8.2293,-8.2293,-8.2293,-8.2293,-8.2293,-8.2293,-8.2293,-8.2293,-8.2293,0.0,0.0,0.0,0.0,0.0,-6.4879,-6.5719,-6.5834,-6.6139,-6.698,0.0,0.0,0.0,0.0,-6.9922,-7.0763,-7.0839,-7.1221,-7.2062,-7.2138,-7.2367,-7.2979,-7.3246,-7.3399,-7.3399,-7.4201,-7.4622,-7.4622,-7.5233,-7.5518,-7.5518,-7.5518,-7.5518,-7.5553,-7.582,-7.6025,-7.6109,-7.6744,-7.74,-7.8093,-7.9,-7.9361,-7.9477,-8.0222,-8.0398,-8.0245,-8.0783,-8.0975,-8.0975,-8.0975,-8.0943,-8.0937,-8.1056,-8.1155,-8.1246,-8.1375,-8.1409,-8.1501,-8.1727,-8.1883,-8.1978,-8.2234,-8.2293,-8.2293,-8.2293,-8.2293,-8.2293,-8.2293,-8.2293,-8.2293,-8.2293,-8.2293,-8.2293,-8.2293,-8.2293,-8.2293,-8.2293,-8.2293,-8.2293,-8.2293,-8.2293,-8.2293,-8.2293,-8.2293,-8.2293,-8.2293,-8.2293,-8.2293,-8.2293,-8.2293,-8.2293,-8.2293,-8.2293,-8.2293,-8.2293,-8.2293,-8.2293,-8.2293,-8.2293,-8.2293,-8.2293,-8.2293,-8.2293,-8.2293,-8.2293,-8.2293,-8.2293,-8.2293,-8.2293,-8.2293,-8.2293,-8.2293,-8.2293,-8.2293,-8.2293,-8.2293,0.0,0.0,-6.4458,-6.5261,-6.5413,-6.5719,-6.656,-6.6713,-6.7018,-6.7821,0.0,0.0,0.0,0.0,0.0,-7.1642,-7.1718,-7.21,-7.2979,-7.3055,-7.3055,-7.3055,-7.3819,-7.424,-7.424,-7.508,-7.5518,-7.5518,-7.5518,-7.5518,-7.5518,-7.5518,-7.5553,-7.5676,-7.6518,-7.6968,-7.7089,-7.7169,-7.8208,-7.9746,-7.89,-7.9592,-8.1016,-8.0169,-8.0362,-8.1093,-8.1093,-8.1093,-8.1093,-8.1108,-8.1007,-8.093,-8.114,-8.1333,-8.1402,-8.1441,-8.1553,-8.1718,0.0,0.0,0.0,-8.2284,-8.2293,-8.2293,-8.2293,-8.2293,-8.2293,-8.2293,-8.2293,-8.2293,-8.2293,-8.2293,-8.2293,-8.2293,-8.2293,-8.2293,-8.2293,-8.2293,-8.2293,-8.2293,-8.2293,-8.2293,-8.2293,-8.2293,-8.2293,-8.2293,-8.2293,-8.2293,-8.2293,-8.2293,-8.2293,-8.2293,-8.2293,-8.2293,-8.2293,-8.2293,-8.2293,-8.2293,-8.2293,-8.2293,-8.2293,-8.2293,-8.2293,-8.2293,-8.2293,-8.2293,-8.2293,-8.2293,-8.2293,-8.2293,-8.2293,-8.2293,-8.2293,-8.2293,-8.2293,-8.2293,0.0,-6.507,-6.5146,-6.5375,-6.591,-6.6407,-6.6674,-6.7171,-6.7859,0.0,0.0,0.0,-6.9999,-7.0839,-7.145,-7.168,-7.2291,-7.2979,-7.3819,-7.3858,-7.4163,-7.4775,-7.5004,-7.5119,-7.5119,-7.5386,-7.5518,-7.5518,-7.5518,-7.5518,-7.5518,-7.5518,-7.5859,-7.6573,-7.6832,-7.7719,-7.8951,-7.8967,-7.9284,-7.9823,-8.0208,-8.0669,-8.1054,-8.0823,-8.09,-8.1093,-8.1093,-8.1093,-8.1124,-8.128,-8.1296,-8.1337,-8.1669,-8.1873,-8.1987,-8.2028,-8.2067,-8.2067,-8.2123,0.0,0.0,0.0,0.0,0.0,-8.2293,-8.2293,-8.2293,-8.2293,-8.2293,-8.2293,-8.2293,-8.2293,-8.2293,-8.2293,-8.2293,-8.2293,-8.2293,-8.2293,-8.2293,-8.2293,-8.2293,-8.2293,-8.2293,-8.2293,-8.2293,-8.2293,-8.2293,-8.2293,-8.2293,-8.2293,-8.2293,-8.2293,-8.2293,-8.2293,-8.2293,-8.2293,-8.2293,-8.2293,-8.2293,-8.2293,-8.2293,-8.2293,-8.2293,-8.2293,-8.2293,-8.2293,-8.2293,-8.2293,-8.2293,-8.2293,-8.2293,-8.2293,-8.2293,-8.2293,-8.2293,-8.2293,-6.5299,-6.5681,-6.5948,-6.5948,-6.6636,-6.7324,-6.7706,-6.8126,-6.8738,0.0,0.0,0.0,-7.0839,-7.1718,-7.2367,-7.2711,-7.3208,-7.3858,-7.4698,-7.4736,-7.4966,-7.548,-7.5518,-7.5518,-7.5518,-7.5518,-7.5518,-7.5518,-7.5518,-7.5497,-7.557,-7.5914,-7.6403,-7.7018,-7.7774,-7.8721,-7.9761,-8.0145,-8.0315,-8.04,-8.09,-8.1093,-8.1093,-8.1093,-8.1093,-8.1093,-8.1093,-8.1093,-8.1139,-8.1336,-8.1491,-8.1689,-8.1941,-8.2128,-8.2265,-8.2287,-8.2277,-8.2265,-8.2287,-8.2293,-8.2293,-8.2293,0.0,0.0,-8.2293,-8.2293,-8.2293,-8.2293,-8.2293,-8.2293,-8.2293,-8.2293,-8.2293,-8.2293,-8.2293,-8.2293,-8.2293,-8.2293,-8.2293,-8.2293,-8.2293,-8.2293,-8.2293,-8.2293,-8.2293,-8.2293,-8.2293,-8.2293,-8.2293,-8.2293,-8.2293,-8.2293,-8.2293,-8.2293,-8.2293,-8.2293,-8.2293,-8.2293,-8.2293,-8.2293,-8.2293,-8.2293,-8.2293,-8.2293,-8.2293,-8.2293,-8.2293,-8.2293,-8.2293,-8.2293,-8.2293,-8.2293,-8.2293,-8.2293,-8.2293,-8.2293,0.0,-6.6254,-6.6827,-6.6827,-6.7515,-6.8317,-6.9082,-6.9273,-6.9578,0.0,-7.0495,-7.0877,-7.1756,-7.2597,-7.3437,-7.4125,-7.4278,-7.466,-7.5442,-7.5518,-7.5518,-7.5518,-7.5518,-7.5518,-7.5518,-7.5518,-7.5518,-7.5518,-7.5518,-7.5608,-7.5753,-7.6535,-7.7095,-7.747,-7.9022,-7.9784,-8.0015,-8.0785,-8.1093,-8.1093,-8.1093,-8.1093,-8.1093,-8.1093,-8.1093,-8.1093,-8.1139,-8.1154,-8.1161,-8.1375,-8.1717,-8.2011,-8.2011,-8.2157,-8.2293,-8.2293,-8.2293,-8.2293,-8.2293,-8.2293,-8.2293,-8.2293,-8.2293,0.0,-8.2293,-8.2293,-8.2293,-8.2293,-8.2293,-8.2293,-8.2293,-8.2293,-8.2293,-8.2293,-8.2293,-8.2293,-8.2293,-8.2293,-8.2293,-8.2293,-8.2293,-8.2293,-8.2293,-8.2293,-8.2293,-8.2293,-8.2293,-8.2293,-8.2293,-8.2293,-8.2293,-8.2293,-8.2293,-8.2293,-8.2293,-8.2293,-8.2293,-8.2293,-8.2293,-8.2293,-8.2293,-8.2293,-8.2293,-8.2293,-8.2293,-8.2293,-8.2293,-8.2293,-8.2293,-8.2293,-8.2293,-8.2293,-8.2293,-8.2293,-8.2293,-8.2293,-6.6445,-6.7095,-6.7668,-6.7668,-6.8394,-6.9005,-6.9158,-6.9769,-7.0228,-7.0381,-7.0992,-7.1756,-7.2635,-7.3476,-7.4049,-7.4201,-7.4851,-7.531,-7.548,-7.5518,-7.5518,-7.5518,-7.5518,-7.5518,-7.5518,-7.5518,-7.5518,-7.5518,-7.5532,-7.5965,-7.665,-7.687,-7.7774,-7.9214,-7.956,-8.0129,-8.0862,-8.1016,-8.1093,-8.1093,-8.1093,-8.1093,-8.1093,-8.1093,-8.1093,-8.1124,-8.1269,-8.135,-8.1387,-8.1761,-8.2056,-8.2234,-8.2234,-8.228,-8.2293,-8.2293,-8.2293,-8.2293,-8.2293,-8.2293,-8.2293,-8.2293,-8.2293,0.0,-8.2293,-8.2293,-8.2293,-8.2293,-8.2293,-8.2293,-8.2293,-8.2293,-8.2293,-8.2293,-8.2293,-8.2293,-8.2293,-8.2293,-8.2293,-8.2293,-8.2293,-8.2293,-8.2293,-8.2293,-8.2293,-8.2293,-8.2293,-8.2293,-8.2293,-8.2293,-8.2293,-8.2293,-8.2293,-8.2293,-8.2293,-8.2293,-8.2293,-8.2293,-8.2293,-8.2293,-8.2293,-8.2293,-8.2293,-8.2293,-8.2293,-8.2293,-8.2293,-8.2293,-8.2293,-8.2293,-8.2293,-8.2293,-8.2293,-8.2293,-8.2293,-8.2293,-6.7286,-6.7973,-6.8547,-6.8547,-6.9234,-6.9807,-6.9807,-7.0151,-7.0572,-7.0992,-7.2176,-7.3093,-7.3552,-7.4354,-7.4851,-7.4851,-7.5233,-7.5518,-7.5518,-7.5518,-7.5518,-7.5518,-7.5518,-7.5518,-7.5518,-7.5514,-7.5532,-7.5532,-7.6054,-7.6542,-7.7035,-7.7927,-7.8836,-7.9761,-8.0184,-8.0677,-8.1093,-8.1093,-8.1093,-8.1093,-8.1093,-8.1093,-8.1093,-8.1093,-8.1161,-8.128,-8.135,-8.1514,-8.1735,-8.1941,-8.2143,-8.2293,-8.2293,-8.2293,-8.2293,-8.2293,-8.2293,-8.2293,-8.2293,-8.2293,-8.2293,-8.2293,-8.2293,0.0,0.0,-8.2293,-8.2293,-8.2293,-8.2293,-8.2293,-8.2293,-8.2293,-8.2293,-8.2293,-8.2293,-8.2293,-8.2293,-8.2293,-8.2293,-8.2293,-8.2293,-8.2293,-8.2293,-8.2293,-8.2293,-8.2293,-8.2293,-8.2293,-8.2293,-8.2293,-8.2293,-8.2293,-8.2293,-8.2293,-8.2293,-8.2293,-8.2293,-8.2293,-8.2293,-8.2293,-8.2293,-8.2293,-8.2293,-8.2293,-8.2293,-8.2293,-8.2293,-8.2293,-8.2293,-8.2293,-8.2293,-8.2293,-8.2293,-8.2293,-8.2293,-8.2293,-6.8165,-6.8852,-6.9425,-6.9425,-6.996,-7.0457,-7.061,-7.0648,-7.103,-7.2062,-7.3378,-7.4295,-7.4448,-7.5132,-7.5532,-7.5532,-7.5532,-7.5532,-7.5532,-7.5532,-7.5532,-7.5532,-7.5532,-7.5532,-7.5532,-7.5736,-7.5863,-7.5863,-7.6788,-7.7368,-7.7623,-7.906,-7.9838,-8.0092,-8.0785,-8.1093,-8.1093,-8.1093,-8.1093,-8.1093,-8.1093,-8.1093,-8.1093,-8.1131,-8.1267,-8.1412,-8.1507,-8.1753,-8.2062,-8.2062,-8.2162,-8.2293,-8.2293,-8.2293,-8.2293,-8.2293,-8.2293,-8.2293,-8.2293,-8.2293,-8.2293,-8.2293,-8.2293,-8.2293,0.0,0.0,0.0,-8.2293,-8.2293,-8.2293,-8.2293,-8.2293,-8.2293,-8.2293,-8.2293,-8.2293,-8.2293,-8.2293,-8.2293,-8.2293,-8.2293,-8.2293,-8.2293,-8.2293,-8.2293,-8.2293,-8.2293,-8.2293,-8.2293,-8.2293,-8.2293,-8.2293,-8.2293,-8.2293,-8.2293,-8.2293,-8.2293,-8.2293,-8.2293,-8.2293,-8.2293,-8.2293,-8.2293,-8.2293,-8.2293,-8.2293,-8.2293,-8.2293,-8.2293,-8.2293,-8.2293,-8.2293,-8.2293,-8.2293,-8.2293,-8.2293,-6.9196,-6.9731,-7.0266,-7.0266,-7.0342,-7.0648,-7.1412,-7.1527,-7.21,-7.3705,-7.4193,-7.4664,-7.5353,-7.5573,-7.566,-7.566,-7.566,-7.566,-7.566,-7.566,-7.566,-7.566,-7.566,-7.566,-7.566,-7.6443,-7.6843,-7.6843,-7.7768,-7.8622,-7.9406,-7.9661,-8.0192,-8.0977,-8.1054,-8.1093,-8.1093,-8.1093,-8.1093,-8.1093,-8.1093,-8.1093,-8.1124,-8.1283,-8.1362,-8.1449,-8.1795,-8.2073,-8.228,-8.228,-8.2287,-8.2293,-8.2293,-8.2293,-8.2293,-8.2293,-8.2293,-8.2293,-8.2293,-8.2293,-8.2293,-8.2293,-8.2293,-8.2293,-8.2293,0.0,-8.2293,-8.2293,0.0,-8.2293,-8.2293,0.0,0.0,-8.2293,-8.2293,-8.2293,-8.2293,-8.2293,-8.2293,-8.2293,-8.2293,-8.2293,-8.2293,-8.2293,-8.2293,-8.2293,-8.2293,-8.2293,-8.2293,-8.2293,-8.2293,-8.2293,-8.2293,-8.2293,-8.2293,-8.2293,-8.2293,-8.2293,-8.2293,-8.2293,-8.2293,-8.2293,-8.2293,-8.2293,-8.2293,-8.2293,-8.2293,-8.2293,-8.2293,-8.2293,-8.2293,-8.2293,-8.2293,-8.2293,-8.2293,-8.2293,-6.996,-7.019,-7.0419,-7.0419,-7.0839,-7.1259,-7.1642,-7.257,-7.3521,-7.421,-7.4829,-7.5299,-7.5606,-7.5676,-7.5692,-7.5692,-7.5692,-7.5692,-7.5692,-7.5692,-7.5923,-7.6437,-7.6459,-7.6689,-7.7188,-7.762,-7.7806,-7.7806,-7.873,-7.9392,-7.9777,-8.0308,-8.0746,-8.1093,-8.1093,-8.1093,-8.1093,-8.1093,-8.1093,-8.1093,-8.1093,-8.1176,-8.1269,-8.1388,-8.1536,-8.1787,-8.2073,-8.2226,-8.2293,-8.2293,-8.2293,-8.2293,-8.2293,-8.2293,-8.2293,-8.2293,-8.2293,-8.2293,-8.2293,-8.2293,-8.2293,-8.2293,-8.2293,-8.2293,-8.2293,-8.2293,-8.2293,-8.2293,0.0,0.0,0.0,0.0,0.0,0.0,-8.2293,-8.2293,-8.2293,-8.2293,-8.2293,-8.2293,-8.2293,-8.2293,-8.2293,-8.2293,-8.2293,-8.2293,-8.2293,-8.2293,-8.2293,-8.2293,-8.2293,-8.2293,-8.2293,-8.2293,-8.2293,-8.2293,-8.2293,-8.2293,-8.2293,-8.2293,-8.2293,-8.2293,-8.2293,-8.2293,-8.2293,-8.2293,-8.2293,-8.2293,-8.2293,-8.2293,-8.2293,-8.2293,-8.2293,-8.2293,-8.2293,-8.2293,-7.1068,-7.0916,-7.0839,-7.1068,-7.1658,-7.215,-7.245,-7.3762,-7.4768,-7.4768,-7.5331,-7.5763,-7.5763,-7.5794,-7.5772,-7.5772,-7.5772,-7.5772,-7.5772,-7.6002,-7.6424,-7.7038,-7.7307,-7.7729,-7.8343,-7.8622,-7.8769,-7.8769,-7.9715,-8.0169,-8.0169,-8.0785,-8.1093,-8.1093,-8.1093,-8.1093,-8.1093,-8.1093,-8.1093,-8.1093,-8.1093,-8.1253,-8.1507,-8.1536,-8.1779,-8.2089,-8.2234,-8.2293,-8.2293,-8.2293,-8.2293,-8.2293,-8.2293,-8.2293,-8.2293,-8.2293,-8.2293,-8.2293,-8.2293,-8.2293,-8.2293,-8.2293,-8.2293,-8.2293,-8.2293,-8.2293,-8.2293,-8.2293,-8.2293,0.0,0.0,0.0,-8.2293,-8.2293,0.0,-8.2293,-8.2293,-8.2293,-8.2293,-8.2293,-8.2293,-8.2293,-8.2293,-8.2293,-8.2293,-8.2293,-8.2293,-8.2293,-8.2293,-8.2293,-8.2293,-8.2293,-8.2293,-8.2293,-8.2293,-8.2293,-8.2293,-8.2293,-8.2293,-8.2293,-8.2293,-8.2293,-8.2293,-8.2293,-8.2293,-8.2293,-8.2293,-8.2293,-8.2293,-8.2293,-8.2293,-8.2293,-8.2293,-8.2293,-8.2293,-8.2293,-7.275,-7.2253,-7.1909,-7.275,-7.2986,-7.3373,-7.4258,-7.5117,-7.5654,-7.5654,-7.5794,-7.5879,-7.5879,-7.5955,-7.6015,-7.6015,-7.6015,-7.6015,-7.6015,-7.6784,-7.7246,-7.7284,-7.8054,-7.8477,-7.8477,-7.9323,-7.9769,-7.9769,-8.0631,-8.1054,-8.1054,-8.1093,-8.1093,-8.1093,-8.1093,-8.1093,-8.1093,-8.1093,-8.1093,-8.1093,-8.1093,-8.1336,-8.1708,-8.192,-8.2094,-8.229,-8.229,-8.2293,-8.2293,-8.2293,-8.2293,-8.2293,-8.2293,-8.2293,-8.2293,-8.2293,-8.2293,-8.2293,-8.2293,-8.2293,-8.2293,-8.2293,-8.2293,-8.2293,-8.2293,-8.2293,-8.2293,-8.2293,-8.2293,-8.2293,-8.2293,-8.2293,-8.2293,-8.2293,-8.2293,0.0,0.0,-8.2293,-8.2293,-8.2293,-8.2293,-8.2293,-8.2293,-8.2293,-8.2293,-8.2293,-8.2293,-8.2293,-8.2293,-8.2293,-8.2293,-8.2293,-8.2293,-8.2293,-8.2293,-8.2293,-8.2293,-8.2293,-8.2293,-8.2293,-8.2293,-8.2293,-8.2293,-8.2293,-8.2293,-8.2293,-8.2293,-8.2293,-8.2293,-8.2293,-8.2293,-8.2293,-8.2293,-8.2293,-8.2293,-8.2293,-7.3767,-7.3724,-7.345,-7.3133,-7.3603,-7.4319,-7.5156,-7.5587,-7.581,-7.581,-7.5925,-7.597,-7.597,-7.6,-7.6015,-7.6015,-7.6015,-7.6015,-7.6015,-7.6823,-7.7553,-7.8054,-7.89,-7.9631,-8.0208,-8.0516,-8.0669,-8.0669,-8.0977,-8.1093,-8.1093,-8.1093,-8.1093,-8.1093,-8.1093,-8.1093,-8.1093,-8.1093,-8.1093,-8.1124,-8.1375,-8.166,-8.1934,-8.2138,-8.2234,-8.2293,-8.2293,-8.2293,-8.2293,-8.2293,-8.2293,-8.2293,-8.2293,-8.2293,-8.2293,-8.2293,-8.2293,-8.2293,-8.2293,-8.2293,-8.2293,-8.2293,-8.2293,-8.2293,-8.2293,-8.2293,-8.2293,-8.2293,-8.2293,-8.2293,-8.2293,-8.2293,-8.2293,-8.2293,-8.2293,-8.2293,0.0,-8.2293,-8.2293,-8.2293,-8.2293,-8.2293,-8.2293,-8.2293,-8.2293,-8.2293,-8.2293,-8.2293,-8.2293,-8.2293,-8.2293,-8.2293,-8.2293,-8.2293,-8.2293,-8.2293,-8.2293,-8.2293,-8.2293,-8.2293,-8.2293,-8.2293,-8.2293,-8.2293,-8.2293,-8.2293,-8.2293,-8.2293,-8.2293,-8.2293,-8.2293,-8.2293,-8.2293,-8.2293,-8.2293,-8.2293,-7.4692,-7.4948,-7.4788,-7.4133,-7.4565,-7.5165,-7.5695,-7.5872,-7.594,-7.594,-7.5985,-7.6015,-7.6015,-7.6015,-7.6015,-7.6015,-7.6284,-7.6476,-7.6476,-7.7553,-7.84,-7.8938,-7.9785,-8.0516,-8.1093,-8.1093,-8.1093,-8.1093,-8.1093,-8.1093,-8.1093,-8.1093,-8.1093,-8.1093,-8.1093,-8.1093,-8.1093,-8.1093,-8.1116,-8.1239,-8.164,-8.1866,-8.2005,-8.2226,-8.2293,-8.2293,-8.2293,-8.2293,-8.2293,-8.2293,-8.2293,-8.2293,-8.2293,-8.2293,-8.2293,-8.2293,-8.2293,-8.2293,-8.2293,-8.2293,-8.2293,-8.2293,-8.2293,-8.2293,-8.2293,-8.2293,-8.2293,-8.2293,-8.2293,-8.2293,-8.2293,-8.2293,-8.2293,-8.2293,-8.2293,-8.2293,0.0,-8.2293,-8.2293,-8.2293,-8.2293,-8.2293,-8.2293,-8.2293,-8.2293,-8.2293,-8.2293,-8.2293,-8.2293,-8.2293,-8.2293,-8.2293,-8.2293,-8.2293,-8.2293,-8.2293,-8.2293,-8.2293,-8.2293,-8.2293,-8.2293,-8.2293,-8.2293,-8.2293,-8.2293,-8.2293,-8.2293,-8.2293,-8.2293,-8.2293,-8.2293,-8.2293,-8.2293,-8.2293,-8.2293,-8.2293,-7.5539,-7.581,-7.5864,-7.5724,-7.581,-7.5925,-7.6,-7.6015,-7.6015,-7.6015,-7.6015,-7.6015,-7.6015,-7.6053,-7.6053,-7.6053,-7.6861,-7.7361,-7.7361,-7.89,-7.9823,-7.9823,-8.0631,-8.1093,-8.1093,-8.1093,-8.1108,-8.1124,-8.1124,-8.1124,-8.1139,-8.1124,-8.1124,-8.1124,-8.1093,-8.1093,-8.1093,-8.1108,-8.1239,-8.1472,-8.1836,-8.1993,-8.205,-8.2226,-8.2293,-8.2293,-8.2293,-8.2293,-8.2293,-8.2293,-8.2293,-8.2293,-8.2293,-8.2293,-8.2293,-8.2293,-8.2293,-8.2293,-8.2293,-8.2293,-8.2293,-8.2293,-8.2293,-8.2293,-8.2293,-8.2293,-8.2293,-8.2293,-8.2293,-8.2293,-8.2293,-8.2293,-8.2293,0.0,0.0,0.0,-8.2293,-8.2293,-8.2293,-8.2293,-8.2293,-8.2293,-8.2293,-8.2293,-8.2293,-8.2293,-8.2293,0.0,-8.2293,-8.2293,-8.2293,-8.2293,-8.2293,-8.2293,-8.2293,-8.2293,-8.2293,-8.2293,-8.2293,-8.2293,-8.2293,-8.2293,-8.2293,-8.2293,-8.2293,-8.2293,-8.2293,-8.2293,-8.2293,-8.2293,-8.2293,-8.2293,-8.2293,-8.2293,-8.2293,-8.2293,-7.5826,-7.5925,-7.597,-7.5917,-7.5932,-7.5985,-7.6015,-7.6015,-7.6015,-7.6015,-7.6015,-7.6015,-7.6015,-7.6592,-7.6976,-7.6976,-7.7707,-7.8169,-7.8169,-7.9208,-7.9823,-7.9823,-8.0631,-8.1093,-8.1093,-8.1093,-8.1176,-8.1323,-8.1323,-8.1387,-8.1525,-8.1375,-8.1323,-8.131,-8.1161,-8.1093,-8.1108,-8.1267,-8.1553,-8.1843,-8.1961,-8.2084,-8.2226,-8.2287,-8.2293,-8.2293,-8.2293,-8.2293,-8.2293,-8.2293,-8.2293,-8.2293,-8.2293,-8.2293,-8.2293,-8.2293,-8.2293,-8.2293,-8.2293,-8.2293,-8.2293,-8.2293,-8.2293,-8.2293,-8.2293,-8.2293,-8.2293,-8.2293,-8.2293,-8.2293,-8.2293,-8.2293,-8.2293,-8.2293,-8.2293,-8.2293,-8.2293,-8.2293,-8.2293,-8.2293,-8.2293,-8.2293,-8.2293,-8.2293,-8.2293,-8.2293,-8.2293,-8.2293,-8.2293,-8.2293,-8.2293,-8.2293,-8.2293,-8.2293,-8.2293,-8.2293,-8.2293,-8.2293,-8.2293,-8.2293,-8.2293,-8.2293,-8.2293,-8.2293,-8.2293,-8.2293,-8.2293,-8.2293,-8.2293,-8.2293,-8.2293,-8.2293,-8.2293,-8.2293,-8.2293,-8.2293,-7.594,-7.5985,-7.6015,-7.6015,-7.6015,-7.6015,-7.6015,-7.6322,-7.6553,-7.6553,-7.6553,-7.6707,-7.7053,-7.7207,-7.7438,-7.7784,-7.8592,-7.9054,-7.9054,-7.9862,-8.0362,-8.0362,-8.0823,-8.1116,-8.1224,-8.1224,-8.1336,-8.1514,-8.1514,-8.1579,-8.1698,-8.1579,-8.1514,-8.1553,-8.14,-8.1375,-8.1388,-8.1568,-8.1787,-8.1993,-8.2084,-8.2214,0.0,-8.2293,-8.2293,-8.2293,-8.2293,-8.2293,-8.2293,-8.2293,-8.2293,-8.2293,-8.2293,-8.2293,-8.2293,-8.2293,-8.2293,-8.2293,-8.2293,-8.2293,-8.2293,-8.2293,-8.2293,-8.2293,-8.2293,-8.2293,-8.2293,-8.2293,-8.2293,-8.2293,-8.2293,-8.2293,-8.2293,-8.2293,-8.2293,-8.2293,-8.2293,-8.2293,-8.2293,-8.2293,-8.2293,-8.2293,-8.2293,-8.2293,-8.2293,-8.2293,-8.2293,-8.2293,-8.2293,-8.2293,-8.2293,-8.2293,-8.2293,-8.2293,-8.2293,-8.2293,-8.2293,-8.2293,-8.2293,-8.2293,-8.2293,-8.2293,-8.2293,-8.2293,-8.2293,-8.2293,-8.2293,-8.2293,-8.2293,-8.2293,-8.2293,-8.2293,-8.2293,-8.2293,-8.2293,-8.2293,-7.6015,-7.6005,-7.602,-7.5976,-7.6005,-7.602,-7.5976,-7.663,-7.713,-7.713,-7.7207,-7.7553,-7.8246,-7.79,-7.79,-7.8592,-7.9477,-7.9977,-7.9977,-8.0716,-8.1154,-8.1154,-8.1161,-8.1267,-8.1437,-8.1449,-8.1525,-8.1735,-8.1735,-8.1753,-8.177,-8.1744,-8.1735,-8.1735,-8.1708,-8.1708,-8.1744,-8.1934,-8.2038,-8.2062,-8.2226,-8.2293,-8.2293,-8.2293,-8.2293,-8.2293,-8.2293,-8.2293,-8.2293,-8.2293,-8.2293,-8.2293,-8.2293,-8.2293,-8.2293,-8.2293,-8.2293,-8.2293,-8.2293,-8.2293,-8.2293,-8.2293,-8.2293,-8.2293,-8.2293,-8.2293,-8.2293,-8.2293,-8.2293,-8.2293,-8.2293,-8.2293,-8.2293,-8.2293,-8.2293,-8.2293,-8.2293,-8.2293,-8.2293,-8.2293,-8.2293,0.0,-8.2293,-8.2293,-8.2293,-8.2293,-8.2293,-8.2293,-8.2293,-8.2293,-8.2293,-8.2293,-8.2293,-8.2293,-8.2293,-8.2293,-8.2293,-8.2293,-8.2293,-8.2293,-8.2293,-8.2293,-8.2293,-8.2293,-8.2293,-8.2293,-8.2293,-8.2293,-8.2293,-8.2293,-8.2293,-8.2293,-8.2293,-8.2293,-8.2293,-8.2293,-7.6015,-7.6133,-7.6186,-7.602,-7.6147,-7.6186,-7.602,-7.613,-7.6245,-7.6245,-7.6861,-7.7361,-7.7476,-7.8631,-7.9438,-7.9554,-8.0362,-8.0862,-8.0862,-8.1189,-8.1363,-8.1363,-8.1519,-8.16,-8.164,-8.164,-8.1744,-8.1955,-8.1955,-8.205,-8.2171,-8.2044,-8.1955,-8.1948,-8.177,-8.1787,-8.1955,-8.1981,-8.2084,-8.2237,-8.2287,-8.2293,-8.2293,-8.2293,-8.2293,-8.2293,-8.2293,-8.2293,-8.2293,-8.2293,-8.2293,-8.2293,-8.2293,-8.2293,-8.2293,-8.2293,-8.2293,-8.2293,-8.2293,-8.2293,-8.2293,-8.2293,-8.2293,-8.2293,-8.2293,-8.2293,-8.2293,-8.2293,-8.2293,-8.2293,-8.2293,-8.2293,-8.2293,-8.2293,-8.2293,-8.2293,-8.2293,-8.2293,-8.2293,-8.2293,-8.2293,-8.2293,-8.2293,-8.2293,-8.2293,-8.2293,-8.2293,-8.2293,-8.2293,-8.2293,-8.2293,-8.2293,-8.2293,-8.2293,-8.2293,-8.2293,-8.2293,-8.2293,-8.2293,-8.2293,-8.2293,-8.2293,-8.2293,-8.2293,-8.2293,-8.2293,-8.2293,-8.2293,-8.2293,-8.2293,-8.2293,-8.2293,-8.2293,-8.2293,-8.2293,-8.2293,-7.6199,-7.6584,-7.6738,-7.6111,-7.6451,-7.68,-7.6698,-7.6669,-7.6823,-7.7246,-7.8054,-7.8784,-7.9208,-7.9592,-7.9977,-8.0439,-8.0862,-8.1093,-8.1093,-8.1269,-8.1387,-8.1387,-8.1589,-8.1744,-8.1836,-8.1843,-8.1955,-8.2157,-8.2157,-8.2218,-8.229,-8.2214,-8.2157,-8.2153,-8.2062,-8.2067,-8.2157,-8.2157,-8.2218,-8.2293,-8.2293,-8.2293,-8.2293,-8.2293,-8.2293,-8.2293,-8.2293,-8.2293,-8.2293,-8.2293,-8.2293,-8.2293,-8.2293,-8.2293,-8.2293,-8.2293,-8.2293,-8.2293,-8.2293,-8.2293,-8.2293,-8.2293,-8.2293,-8.2293,-8.2293,-8.2293,-8.2293,-8.2293,-8.2293,-8.2293,-8.2293,-8.2293,-8.2293,-8.2293,-8.2293,-8.2293,-8.2293,-8.2293,-8.2293,-8.2293,-8.2293,-8.2293,-8.2293,-8.2293,-8.2293,-8.2293,-8.2293,-8.2293,-8.2293,-8.2293,-8.2293,-8.2293,-8.2293,-8.2293,-8.2293,-8.2293,-8.2293,-8.2293,-8.2293,-8.2293,-8.2293,-8.2293,-8.2293,-8.2293,-8.2293,-8.2293,-8.2293,-8.2293,-8.2293,-8.2293,-8.2293,-8.2293,-8.2293,-8.2293,-8.2293,-8.2293,-7.6355,-7.6939,-7.7163,-7.6188,-7.6727,-7.7319,-7.7299,-7.7592,-7.7977,-7.8438,-7.9246,-8.0054,-8.0746,-8.04,-8.0392,-8.1107,-8.1161,-8.1191,-8.121,-8.1412,-8.1514,-8.1514,-8.1717,-8.1912,-8.2067,-8.2067,-8.2148,-8.2293,-8.2293,-8.2215,-8.202,-8.2215,-8.2293,-8.2293,-8.2293,-8.2293,-8.2293,-8.2293,-8.2293,-8.2293,-8.2293,-8.2293,-8.2293,-8.2293,-8.2293,-8.2293,-8.2293,-8.2293,-8.2293,-8.2293,-8.2293,-8.2293,-8.2293,-8.2293,-8.2293,-8.2293,-8.2293,-8.2293,-8.2293,-8.2293,-8.2293,-8.2293,-8.2293,-8.2293,-8.2293,-8.2293,-8.2293,-8.2293,-8.2293,-8.2293,-8.2293,-8.2293,-8.2293,-8.2293,-8.2293,-8.2293,-8.2293,-8.2293,-8.2293,-8.2293,-8.2293,-8.2293,-8.2293,-8.2293,-8.2293,-8.2293,-8.2293,-8.2293,-8.2293,-8.2293,-8.2293,-8.2293,-8.2293,-8.2293,-8.2293,-8.2293,-8.2293,-8.2293,-8.2293,-8.2293,-8.2293,-8.2293,-8.2293,-8.2293,-8.2293,-8.2293,-8.2293,-8.2293,-8.2293,-8.2293,-8.2293,-8.2293,-8.2293,-8.2293,-8.2293,-8.2293,-7.6439,-7.6939,-7.7163,-7.6188,-7.6816,-7.7434,-7.7328,-7.8592,-7.9323,-7.8592,-7.9246,-7.9823,-7.99,-8.0554,-8.1099,-8.1337,-8.135,-8.1449,-8.163,-8.182,-8.1948,-8.1948,-8.2148,-8.2237,-8.2284,-8.2284,-8.2287,-8.2293,-8.2293,-8.1903,-8.1122,-8.1942,-8.2293,-8.2293,-8.2293,-8.2293,-8.2293,-8.2293,-8.2293,-8.2293,-8.2293,-8.2293,-8.2293,-8.2293,-8.2293,-8.2293,-8.2293,-8.2293,-8.2293,-8.2293,-8.2293,-8.2293,-8.2293,-8.2293,-8.2293,-8.2293,-8.2293,-8.2293,-8.2293,-8.2293,-8.2293,-8.2293,-8.2293,-8.2293,-8.2293,-8.2293,-8.2293,-8.2293,-8.2293,-8.2293,-8.2293,-8.2293,-8.2293,-8.2293,-8.2293,-8.2293,-8.2293,-8.2293,-8.2293,-8.2293,-8.2293,-8.2293,-8.2293,-8.2293,-8.2293,-8.2293,-8.2293,-8.2293,-8.2293,-8.2293,-8.2293,-8.2293,-8.2293,-8.2293,-8.2293,-8.2293,-8.2293,-8.2293,-8.2293,-8.2293,-8.2293,-8.2293,-8.2293,-8.2293,-8.2293,-8.2293,-8.2293,-8.2293,-8.2293,-8.2293,-8.2293,-8.2293,-8.2293,-8.2293,-8.2293,-8.2293,-7.637,-7.7365,-7.7975,-7.6958,-7.7925,-7.891,-7.8978,-7.9442,-7.9957,-8.0392,-8.0641,-8.0754,-8.0754,-8.1182,-8.1507,-8.1568,-8.1568,-8.161,-8.1689,-8.1905,-8.1987,-8.1987,-8.2175,-8.2293,-8.2293,-8.2293,-8.2293,-8.2293,-8.2293,-8.2137,-8.1786,-8.2137,-8.2293,-8.2293,-8.2293,-8.2293,-8.2293,-8.2293,-8.2293,-8.2293,-8.2293,-8.2293,-8.2293,-8.2293,-8.2293,-8.2293,-8.2293,-8.2293,-8.2293,-8.2293,-8.2293,-8.2293,-8.2293,-8.2293,-8.2293,-8.2293,-8.2293,-8.2293,-8.2293,-8.2293,-8.2293,-8.2293,-8.2293,-8.2293,-8.2293,-8.2293,-8.2293,-8.2293,-8.2293,-8.2293,-8.2293,-8.2293,-8.2293,-8.2293,-8.2293,-8.2293,-8.2293,-8.2293,-8.2293,-8.2293,-8.2293,-8.2293,-8.2293,-8.2293,-8.2293,-8.2293,-8.2293,-8.2293,-8.2293,-8.2293,-8.2293,-8.2293,-8.2293,-8.2293,-8.2293,-8.2293,-8.2293,-8.2293,-8.2293,-8.2293,-8.2293,-8.2293,-8.2293,-8.2293,-8.2293,-8.2293,-8.2293,-8.2293,-8.2293,-8.2293,-8.2293,-8.2293,-8.2293,-8.2293,-8.2293,-8.2293,-7.6742,-7.7817,-7.8541,-7.7911,-7.8987,-7.9955,-8.0156,-8.0306,-8.0666,-8.1582,-8.162,-8.1547,-8.1469,-8.161,-8.1717,-8.1779,-8.1779,-8.1804,-8.1851,-8.1993,-8.2084,-8.2084,-8.2226,-8.2293,-8.2293,-8.2293,-8.2293,-8.2293,-8.2293,-8.2176,-8.1903,-8.1903,-8.2059,-8.2293,-8.2293,-8.2293,-8.2293,-8.2293,-8.2293,-8.2293,-8.2293,-8.2293,-8.2293,-8.2293,-8.2293,-8.2293,-8.2293,-8.2293,-8.2293,-8.2293,-8.2293,-8.2293,-8.2293,-8.2293,-8.2293,-8.2293,-8.2293,-8.2293,-8.2293,-8.2293,-8.2293,-8.2293,-8.2293,-8.2293,-8.2293,-8.2293,-8.2293,-8.2293,-8.2293,-8.2293,-8.2293,-8.2293,-8.2293,-8.2293,-8.2293,-8.2293,-8.2293,-8.2293,-8.2293,-8.2293,-8.2293,-8.2293,-8.2293,-8.2293,-8.2293,-8.2293,-8.2293,-8.2293,-8.2293,-8.2293,-8.2293,-8.2293,-8.2293,-8.2293,-8.2293,-8.2293,-8.2293,-8.2293,-8.2293,-8.2293,-8.2293,-8.2293,-8.2293,-8.2293,-8.2293,-8.2293,-8.2293,-8.2293,-8.2293,-8.2293,-8.2293,-8.2293,-8.2293,-8.2293,-8.2293,-8.2293,-7.77,-7.8153,-7.8654,-7.9,-7.9625,-8.0156,-8.0388,-8.1116,-8.1689,-8.1698,-8.1851,-8.1927,-8.1717,-8.1698,-8.1779,-8.1974,-8.1987,-8.2078,-8.2287,-8.229,-8.229,-8.229,-8.2293,-8.2293,-8.2293,-8.2293,-8.2293,-8.2293,-8.2293,-8.1864,-8.1005,-8.1005,-8.1474,-8.2293,-8.2293,-8.2293,-8.2293,-8.2293,-8.2293,-8.2293,-8.2293,-8.2293,-8.2293,-8.2293,-8.2293,-8.2293,-8.2293,-8.2293,-8.2293,-8.2293,-8.2293,-8.2293,-8.2293,-8.2293,-8.2293,-8.2293,-8.2293,-8.2293,-8.2293,-8.2293,-8.2293,-8.2293,-8.2293,-8.2293,-8.2293,-8.2293,-8.2293,-8.2293,-8.2293,-8.2293,-8.2293,-8.2293,-8.2293,-8.2293,-8.2293,-8.2293,-8.2293,-8.2293,-8.2293,-8.2293,-8.2293,-8.2293,-8.2293,-8.2293,-8.2293,-8.2293,-8.2293,-8.2293,-8.2293,-8.2293,-8.2293,-8.2293,-8.2293,-8.2293,-8.2293,-8.2293,-8.2293,-8.2293,-8.2293,-8.2293,-8.2293,-8.2293,-8.2293,-8.2293,-8.2293,-8.2293,-8.2293,-8.2293,-8.2293,-8.2293,-8.2293,-8.2293,-8.2293,-8.2293,-8.2293,-8.2293,-7.7768,-7.8884,-7.9841,-7.998,-8.0641,-8.1243,-8.1469,-8.1631,-8.1787,-8.2073,-8.2056,-8.2044,-8.2089,-8.2089,-8.2143,-8.2214,-8.2218,-8.223,-8.229,-8.2293,-8.2293,-8.2293,-8.2293,-8.2293,-8.2293,-8.2293,-8.2293,-8.2293,-8.2293,-8.2176,-8.1903,-8.1903,-8.202,-8.2293,-8.2293,-8.2293,-8.2293,-8.2293,-8.2293,-8.2293,-8.2293,-8.2293,-8.2293,-8.2293,-8.2293,-8.2293,-8.2293,-8.2293,-8.2293,-8.2293,-8.2293,-8.2293,-8.2293,-8.2293,-8.2293,-8.2293,-8.2293,-8.2293,-8.2293,-8.2293,-8.2293,-8.2293,-8.2293,-8.2293,-8.2293,-8.2293,-8.2293,-8.2293,-8.2293,-8.2293,-8.2293,-8.2293,-8.2293,-8.2293,-8.2293,-8.2293,-8.2293,-8.2293,-8.2293,-8.2293,-8.2293,-8.2293,-8.2293,-8.2293,-8.2293,-8.2293,-8.2293,-8.2293,-8.2293,-8.2293,-8.2293,-8.2293,-8.2293,-8.2293,-8.2293,-8.2293,-8.2293,-8.2293,-8.2293,-8.2293,-8.2293,-8.2293,-8.2293,-8.2293,-8.2293,-8.2293,-8.2293,-8.2293,-8.2293,-8.2293,-8.2293,-8.2293,-8.2293,-8.2293,-8.2293,-8.2293,-7.8745,-7.9692,-8.0548,-8.1024,-8.1501,-8.1859,-8.2078,-8.1993,-8.2032,-8.228,-8.2171,-8.2157,-8.2287,-8.2293,-8.2293,-8.2293,-8.2293,-8.2293,-8.2293,-8.2293,-8.2293,-8.2293,-8.2293,-8.2293,-8.2293,-8.2293,-8.2293,-8.2293,-8.2293,-8.2293,-8.2293,-8.2293,-8.2293,-8.2293,-8.2293,-8.2293,-8.2293,-8.2293,-8.2293,-8.2293,-8.2293,-8.2293,-8.2293,-8.2293,-8.2293,-8.2293,-8.2293,-8.2293,-8.2293,-8.2293,-8.2293,-8.2293,-8.2293,-8.2293,-8.2293,-8.2293,-8.2293,-8.2293,-8.2293,-8.2293,-8.2293,-8.2293,-8.2293,-8.2293,-8.2293,-8.2293,-8.2293,-8.2293,-8.2293,-8.2293,-8.2293,-8.2293,-8.2293,-8.2293,-8.2293,-8.2293,-8.2293,-8.2293,-8.2293,-8.2293,-8.2293,-8.2293,-8.2293,-8.2293,-8.2293,-8.2293,-8.2293,-8.2293,-8.2293,-8.2293,-8.2293,-8.2293,-8.2293,-8.2293,-8.2293,-8.2293,-8.2293,-8.2293,-8.2293,-8.2293,-8.2293,-8.2293,-8.2293,-8.2293,-8.2293,-8.2293,-8.2293,-8.2293,-8.2293,-8.2293,-8.2293,-8.2293,-8.2293,-8.2293,-8.2293,-8.2293,-8.0273,-8.0574,-8.0917,-8.2074,-8.2153,-8.2078,-8.2284,-8.2293,-8.2293,-8.2293,-8.2293,-8.2293,-8.2293,-8.2293,-8.2293,-8.2293,-8.2293,-8.2293,-8.2293,-8.2293,-8.2293,-8.2293,-8.2293,-8.2293,-8.2293,-8.2293,-8.2293,-8.2293,-8.2293,-8.2293,-8.2293,-8.2293,-8.2293,-8.2293,-8.2293,-8.2293,-8.2293,-8.2293,-8.2293,-8.2293,-8.2293,-8.2293,-8.2293,-8.2293,-8.2293,-8.2293,-8.2293,-8.2293,-8.2293,-8.2293,-8.2293,-8.2293,-8.2293,-8.2293,-8.2293,-8.2293,-8.2293,-8.2293,-8.2293,-8.2293,-8.2293,-8.2293,-8.2293,-8.2293,-8.2293,-8.2293,-8.2293,-8.2293,-8.2293,-8.2293,-8.2293,-8.2293,-8.2293,-8.2293,-8.2293,-8.2293,-8.2293,-8.2293,-8.2293,-8.2293,-8.2293,-8.2293,-8.2293,-8.2293,-8.2293,-8.2293,-8.2293,-8.2293,-8.2293,-8.2293,-8.2293,-8.2293,-8.2293,-8.2293,-8.2293,-8.2293,-8.2293,-8.2293,-8.2293,-8.2293,-8.2293,-8.2293,-8.2293,-8.2293,-8.2293,-8.2293,-8.2293,-8.2293,-8.2293,-8.2293,-8.2293,-8.2293,-8.2293,-8.2293,-8.2293,-8.2293,-7.983,-8.0961,-8.1937,-8.2248,-8.228,-8.2234,-8.229,-8.2293,-8.2293,-8.2293,-8.2293,-8.2293,-8.2293,-8.2293,-8.2293,-8.2293,-8.2293,-8.2293,-8.2293,-8.2293,-8.2293,-8.2293,-8.2293,-8.2293,-8.2293,-8.2293,-8.2293,-8.2293,-8.2293,-8.2293,-8.2293,-8.2293,-8.2293,-8.2293,-8.2293,-8.2293,-8.2293,-8.2293,-8.2293,-8.2293,-8.2293,-8.2293,-8.2293,-8.2293,-8.2293,-8.2293,-8.2293,-8.2293,-8.2293,-8.2293,-8.2293,-8.2293,-8.2293,-8.2293,-8.2293,-8.2293,-8.2293,-8.2293,-8.2293,-8.2293,-8.2293,-8.2293,-8.2293,-8.2293,-8.2293,-8.2293,-8.2293,-8.2293,-8.2293,-8.2293,-8.2293,-8.2293,-8.2293,-8.2293,-8.2293,-8.2293,-8.2293,-8.2293,-8.2293,-8.2293,-8.2293,-8.2293,-8.2293,-8.2293,-8.2293,-8.2293,-8.2293,-8.2293,-8.2293,-8.2293,-8.2293,-8.2293,-8.2293,-8.2293,-8.2293,-8.2293,-8.2293,-8.2293,-8.2293,-8.2293,-8.2293,-8.2293,-8.2293,-8.2293,-8.2293,-8.2293,-8.2293,-8.2293,-8.2293,-8.2293,-8.2293,-8.2293,-8.2293,-8.2293,-8.2293,-8.2293,-7.9593,-8.0771,-8.1708,-8.1708,-8.2059,-8.2293,-8.2293,-8.2293,-8.2293,-8.2293,-8.2293,-8.2293,-8.2293,-8.2293,-8.2293,-8.2293,-8.2293,-8.2293,-8.2293,-8.2293,-8.2293,-8.2293,-8.2293,-8.2293,-8.2293,-8.2293,-8.2293,-8.2293,-8.2293,-8.2293,-8.2293,-8.2293,-8.2293,-8.2293,-8.2293,-8.2293,-8.2293,-8.2293,-8.2293,-8.2293,-8.2293,-8.2293,-8.2293,-8.2293,-8.2293,-8.2293,-8.2293,-8.2293,-8.2293,-8.2293,-8.2293,-8.2293,-8.2293,-8.2293,-8.2293,-8.2293,-8.2293,-8.2293,-8.2293,-8.2293,-8.2293,-8.2293,-8.2293,-8.2293,-8.2293,-8.2293,-8.2293,-8.2293,-8.2293,-8.2293,-8.2293,-8.2293,-8.2293,-8.2293,-8.2293,-8.2293,-8.2293,-8.2293,-8.2293,-8.2293,-8.2293,-8.2293,-8.2293,-8.2293,-8.2293,-8.2293,-8.2293,-8.2293,-8.2293,-8.2293,-8.2293,-8.2293,-8.2293,-8.2293,-8.2293,-8.2293,-8.2293,-8.2293,-8.2293,-8.2293,-8.2293,-8.2293,-8.2293,-8.2293,-8.2293,-8.2293,-8.2293,-8.2293,-8.2293,-8.2293,-8.2293,-8.2293,-8.2293,-8.2293,-8.2293,-8.2293,-7.9366,-8.0224,-8.081,-8.081,-8.1513,-8.2098,-8.2098,-8.2215,-8.2293,-8.2293,-8.2293,-8.2293,-8.2293,-8.2293,-8.2293,-8.2293,-8.2293,-8.2293,-8.2293,-8.2293,-8.2293,-8.2293,-8.2293,-8.2293,-8.2293,-8.2293,-8.2293,-8.2293,-8.2293,-8.2293,-8.2293,-8.2293,-8.2293,-8.2293,-8.2293,-8.2293,-8.2293,-8.2293,-8.2293,-8.2293,-8.2293,-8.2293,-8.2293,-8.2293,-8.2293,-8.2293,-8.2293,-8.2293,-8.2293,-8.2293,-8.2293,-8.2293,-8.2293,-8.2293,-8.2293,-8.2293,-8.2293,-8.2293,-8.2293,-8.2293,-8.2293,-8.2293,-8.2293,-8.2293,-8.2293,-8.2293,-8.2293,-8.2293,-8.2293,-8.2293,-8.2293,-8.2293,-8.2293,-8.2293,-8.2293,-8.2293,-8.2293,-8.2293,-8.2293,-8.2293,-8.2293,-8.2293,-8.2293,-8.2293,-8.2293,-8.2293,-8.2293,-8.2293,-8.2293,-8.2293,-8.2296,-8.2293,-8.2293,-8.2293,-8.2293,-8.2293,-8.2293,-8.2293,-8.2293,-8.2293,-8.2293,-8.2293,-8.2293,-8.2293,-8.2293,-8.2293,-8.2293,-8.2293,-8.2293,-8.2293,-8.2293,-8.2293,-8.2293,-8.2293,-8.2293,-8.2293,-7.8585,-7.9287,-7.9912,-7.9912,-8.0615,-8.12,-8.12,-8.1825,-8.2293,-8.2293,-8.2293,-8.2293,-8.2293,-8.2293,-8.2293,-8.2293,-8.2293,-8.2293,-8.2293,-8.2293,-8.2293,-8.2293,-8.2293,-8.2293,-8.2293,-8.2293,-8.2293,-8.2293,-8.2293,-8.2293,-8.2293,-8.2293,-8.2293,-8.2293,-8.2293,-8.2293,-8.2293,-8.2293,-8.2293,-8.2293,-8.2293,-8.2293,-8.2293,-8.2293,-8.2293,-8.2293,-8.2293,-8.2293,-8.2293,-8.2293,-8.2293,-8.2293,-8.2293,-8.2293,-8.2293,-8.2293,-8.2293,-8.2293,-8.2293,-8.2293,-8.2293,-8.2293,-8.2293,-8.2293,-8.2293,-8.2293,-8.2293,-8.2293,-8.2293,-8.2293,-8.2293,-8.2293,-8.2293,-8.2293,-8.2293,-8.2293,-8.2293,-8.2293,-8.2293,-8.2293,-8.2293,-8.2293,-8.2293,-8.2293,-8.2293,-8.2293,-8.2293,-8.2293,-8.2293,-8.2305,-8.2305,-8.2293,-8.2293,-8.2293,-8.2293,-8.2293,-8.2293,-8.2293,-8.2293,-8.2293,-8.2293,-8.2293,-8.2293,-8.2293,-8.2293,-8.2293,-8.2293,-8.2293,-8.2293,-8.2293,-8.2293,-8.2293,-8.2293,-8.2293,-8.2293,-8.2293,-7.7687,-7.839,-7.9014,-7.9014,-7.9717,-8.0302,-8.0302,-8.1044,-8.1591,-8.1591,-8.202,-8.2293,-8.2293,-8.2293,-8.2293,-8.2293,-8.2293,-8.2293,-8.2293,-8.2293,-8.2293,-8.2293,-8.2293,-8.2293,-8.2293,-8.2293,-8.2293,-8.2293,-8.2293,-8.2293,-8.2293,-8.2293,-8.2293,-8.2293,-8.2293,-8.2293,-8.2293,-8.2293,-8.2293,-8.2293,-8.2293,-8.2293,-8.2293,-8.2293,-8.2293,-8.2293,-8.2293,-8.2293,-8.2293,-8.2293,-8.2293,-8.2293,-8.2293,-8.2293,-8.2293,-8.2293,-8.2293,-8.2293,-8.2293,-8.2293,-8.2293,-8.2293,-8.2293,-8.2293,-8.2293,-8.2293,-8.2293,-8.2293,-8.2299,-8.2305,-8.2305,-8.2313,-8.2315,-8.2305,-8.2313,-8.2315,-8.2305,-8.2305,-8.2308,-8.2315,-8.231,-8.2308,-8.2315,-8.2318,-8.2318,-8.2318,-8.2318,-8.2318,-8.2318,-8.2283,-8.2283,-8.2318,-8.231,-8.2305,-8.2305,-8.2305,-8.2299,-8.2293,-8.2293,-8.2296,-8.2305,-8.2305,-8.2305,-8.2305,-8.2313,-8.2313,-8.2305,-8.2313,-8.2318,-8.2315,-8.2308,-8.2305,-8.2305,-8.2296,-8.2293,-8.2293,-7.7101,-7.7648,-7.8116,-7.8116,-7.8819,-7.9405,-7.9405,-8.0146,-8.0693,-8.0693,-8.1278,-8.1786,-8.1981,-8.1981,-8.2098,-8.2293,-8.2293,-8.2293,-8.2293,-8.2293,-8.2293,-8.2293,-8.2293,-8.2293,-8.2293,-8.2293,-8.2293,-8.2293,-8.2293,-8.2293,-8.2293,-8.2293,-8.2293,-8.2293,-8.2293,-8.2293,-8.2293,-8.2293,-8.2293,-8.2293,-8.2293,-8.2293,-8.2293,-8.2293,-8.2293,-8.2293,-8.2293,-8.2293,-8.2293,-8.2293,-8.2293,-8.2293,-8.2293,-8.2293,-8.2293,-8.2293,-8.2296,-8.2296,-8.2293,-8.2293,-8.2293,-8.2296,-8.2299,-8.2299,-8.2302,-8.2305,-8.2305,-8.2305,-8.2313,-8.232,-8.232,-8.2287,-8.229,-8.2281,-8.2287,-8.229,-8.2281,-8.232,-8.2283,-8.2292,-8.2285,-8.2283,-8.2292,-8.2292,-8.2292,-8.2292,-8.2292,-8.2292,-8.2292,-8.2295,-8.2296,-8.2297,-8.2287,-8.232,-8.232,-8.232,-8.2315,-8.2305,-8.2305,-8.231,-8.232,-8.232,-8.232,-8.2281,-8.2289,-8.2289,-8.2281,-8.229,-8.2292,-8.2292,-8.2283,-8.232,-8.2318,-8.2305,-8.2299,-8.2299,-7.7101,-7.714,-7.7218,-7.7218,-7.7921,-7.8507,-7.8507,-7.9248,-7.9795,-7.9795,-7.9834,-8.0185,-8.1005,-8.1083,-8.1435,-8.2215,-8.2293,-8.2293,-8.2293,-8.2293,-8.2293,-8.2293,-8.2293,-8.2293,-8.2293,-8.2293,-8.2293,-8.2293,-8.2293,-8.2293,-8.2293,-8.2293,-8.2293,-8.2293,-8.2293,-8.2293,-8.2293,-8.2293,-8.2293,-8.2293,-8.2293,-8.2293,-8.2293,-8.2293,-8.2293,-8.2293,-8.2293,-8.2293,-8.2293,-8.2293,-8.2293,-8.2293,-8.2293,-8.2293,-8.2293,-8.2293,-8.2302,-8.231,-8.2296,-8.2293,-8.2296,-8.231,-8.2313,-8.2315,-8.2289,-8.229,-8.229,-8.229,-8.229,-8.2292,-8.2292,-8.2292,-8.2292,-8.2292,-8.2292,-8.2292,-8.2292,-8.2292,-8.2292,-8.2292,-8.2292,-8.2292,-8.2292,-8.2292,-8.2292,-8.2292,-8.2292,-8.2292,-8.2292,-8.2299,-8.2303,-8.2304,-8.2299,-8.2292,-8.2292,-8.2292,-8.2292,-8.229,-8.229,-8.229,-8.2292,-8.2292,-8.2292,-8.2292,-8.2292,-8.2292,-8.2292,-8.2292,-8.2292,-8.2292,-8.2292,-8.2292,-8.229,-8.2318,-8.2313,-8.2313,-7.7101,-7.7101,-7.7101,-7.7101,-7.7375,-7.7609,-7.7609,-7.8311,-7.8897,-7.8897,-7.9366,-7.9834,-8.0146,-8.0185,-8.0537,-8.1435,-8.1474,-8.1708,-8.2254,-8.2293,-8.2293,-8.2293,-8.2293,-8.2293,-8.2293,-8.2293,-8.2293,-8.2293,-8.2293,-8.2293,-8.2293,-8.2293,-8.2293,-8.2293,-8.2293,-8.2293,-8.2293,-8.2293,-8.2293,-8.2293,-8.2293,-8.2293,-8.2293,-8.2293,-8.2293,-8.2293,-8.2293,-8.2299,-8.2308,-8.2308,-8.2313,-8.2281,-8.2281,-8.2281,-8.2281,-8.2281,-8.2283,-8.2287,-8.2283,-8.2281,-8.2283,-8.2287,-8.2287,-8.2289,-8.2292,-8.2292,-8.2292,-8.2292,-8.2296,-8.2299,-8.2299,-8.2301,-8.2302,-8.23,-8.2301,-8.2302,-8.23,-8.2299,-8.23,-8.2303,-8.2301,-8.2301,-8.2303,-8.2303,-8.2303,-8.2303,-8.2303,-8.2303,-8.2303,-8.2304,-8.2304,-8.2304,-8.2304,-8.2302,-8.2299,-8.2299,-8.2297,-8.2292,-8.2292,-8.2295,-8.2299,-8.2299,-8.2299,-8.2299,-8.2302,-8.2301,-8.2299,-8.2302,-8.2303,-8.2303,-8.2301,-8.2299,-8.2299,-8.229,-8.2287,-8.2287,-7.7101,-7.7101,-7.7101,-7.7101,-7.7101,-7.7101,-7.7101,-7.7609,-7.7999,-7.7999,-7.8507,-7.8975,-7.9248,-7.9287,-7.9639,-8.0537,-8.0576,-8.0966,-8.1825,-8.2137,-8.2293,-8.2293,-8.2293,-8.2293,-8.2293,-8.2293,-8.2293,-8.2293,-8.2293,-8.2293,-8.2293,-8.2293,-8.2293,-8.2293,-8.2293,-8.2293,-8.2293,-8.2293,-8.2293,-8.2293,-8.2293,-8.2293,-8.2293,-8.2293,-8.2293,-8.2293,-8.2293,-8.2302,-8.2313,-8.2313,-8.2283,-8.2292,-8.2292,-8.2292,-8.2293,-8.2295,-8.2296,-8.2296,-8.2299,-8.2299,-8.2299,-8.2296,-8.2296,-8.2296,-8.2299,-8.2299,-8.2299,-8.2299,-8.2301,-8.2303,-8.2303,-8.2304,-8.2304,-8.2303,-8.2304,-8.2304,-8.2303,-8.2303,-8.2304,-8.2304,-8.2304,-8.2304,-8.2304,-8.2304,-8.2304,-8.2304,-8.2304,-8.2304,-8.2304,-8.2304,-8.2304,-8.2304,-8.2304,-8.2304,-8.2303,-8.2303,-8.2302,-8.2299,-8.2299,-8.2301,-8.2303,-8.2303,-8.2303,-8.2303,-8.2304,-8.2304,-8.2303,-8.2304,-8.2304,-8.2304,-8.2304,-8.2303,-8.2303,-8.2299,-8.2296,-8.2296,-7.7101,-7.7101,-7.7101,-7.7101,-7.7101,-7.7101,-7.7101,-7.7101,-7.7101,-7.7101,-7.7101,-7.7414,-7.8311,-7.839,-7.8741,-7.96,-7.9678,-8.0068,-8.0927,-8.1825,-8.2293,-8.2293,-8.2293,-8.2293,-8.2293,-8.2293,-8.2293,-8.2293,-8.2293,-8.2293,-8.2293,-8.2293,-8.2293,-8.2293,-8.2293,-8.2293,-8.2293,-8.2293,-8.2293,-8.2293,-8.2293,-8.2293,-8.2293,-8.2293,-8.2293,-8.2293,-8.2293,-8.2302,-8.2315,-8.2315,-8.2285,-8.2293,-8.2293,-8.2293,-8.2295,-8.2301,-8.2301,-8.2302,-8.2304,-8.2304,-8.2304,-8.2303,-8.2301,-8.2303,-8.2304,-8.2304,-8.2304,-8.2304,-8.2304,-8.2304,-8.2304,-8.2304,-8.2304,-8.2304,-8.2304,-8.2304,-8.2304,-8.2304,-8.2304,-8.2304,-8.2304,-8.2304,-8.2304,-8.2304,-8.2304,-8.2304,-8.2304,-8.2304,-8.2304,-8.2304,-8.2304,-8.2304,-8.2304,-8.2304,-8.2304,-8.2304,-8.2304,-8.2304,-8.2304,-8.2304,-8.2304,-8.2304,-8.2304,-8.2304,-8.2304,-8.2304,-8.2304,-8.2304,-8.2304,-8.2304,-8.2304,-8.2304,-8.2304,-8.2303,-8.2301,-8.2301,-7.7101,-7.7101,-7.7101,-7.7101,-7.7101,-7.7101,-7.7101,-7.7101,-7.7101,-7.7101,-7.7101,-7.7218,-7.7453,-7.7492,-7.7843,-7.8702,-7.878,-7.917,-8.0029,-8.0888,-8.1396,-8.1396,-8.1981,-8.2293,-8.2293,-8.2293,-8.2293,-8.2293,-8.2293,-8.2293,-8.2293,-8.2293,-8.2293,-8.2293,-8.2293,-8.2293,-8.2293,-8.2293,-8.2293,-8.2293,-8.2293,-8.2293,-8.2293,-8.2305,-8.2308,-8.231,-8.2281,-8.229,-8.2296,-8.2296,-8.2301,-8.2303,-8.2303,-8.2303,-8.2304,-8.2304,-8.2304,-8.2304,-8.2304,-8.2304,-8.2304,-8.2304,-8.2304,-8.2304,-8.2304,-8.2304,-8.2304,-8.2304,-8.2304,-8.2304,-8.2304,-8.2304,-8.2304,-8.2304,-8.2304,-8.2304,-8.2304,-8.2304,-8.2304,-8.2304,-8.2304,-8.2304,-8.2304,-8.2304,-8.2304,-8.2304,-8.2304,-8.2304,-8.2304,-8.2304,-8.2304,-8.2304,-8.2304,-8.2304,-8.2304,-8.2304,-8.2304,-8.2304,-8.2304,-8.2304,-8.2304,-8.2304,-8.2304,-8.2304,-8.2304,-8.2304,-8.2304,-8.2304,-8.2304,-8.2304,-8.2304,-8.2304,-8.2304,-8.2304,-8.2304,-8.2304,-7.7101,-7.7101,-7.7101,-7.7101,-7.7101,-7.7101,-7.7101,-7.7101,-7.7101,-7.7101,-7.7101,-7.7101,-7.7101,-7.7101,-7.7296,-7.7843,-7.8194,-7.8624,-7.9131,-8.0302,-8.1005,-8.1005,-8.1825,-8.2293,-8.2293,-8.2293,-8.2293,-8.2293,-8.2293,-8.2293,-8.2293,-8.2293,-8.2293,-8.2293,-8.2293,-8.2293,-8.2293,-8.2293,-8.2293,-8.2293,-8.2293,-8.2296,-8.2302,-8.231,-8.2318,-8.2283,-8.229,-8.2297,-8.2301,-8.2301,-8.2304,-8.2304,-8.2304,-8.2304,-8.2304,-8.2304,-8.2304,-8.2304,-8.2304,-8.2304,-8.2304,-8.2304,-8.2304,-8.2304,-8.2304,-8.2304,-8.2304,-8.2304,-8.2304,-8.2304,-8.2304,-8.2304,-8.2304,-8.2304,-8.2304,-8.2304,-8.2304,-8.2304,-8.2304,-8.2304,-8.2304,-8.2304,-8.2304,-8.2304,-8.2304,-8.2304,-8.2304,-8.2304,-8.2304,-8.2304,-8.2304,-8.2304,-8.2304,-8.2304,-8.2304,-8.2304,-8.2304,-8.2304,-8.2304,-8.2304,-8.2304,-8.2304,-8.2304,-8.2304,-8.2304,-8.2304,-8.2304,-8.2304,-8.2304,-8.2304,-8.2304,-8.2304,-8.2304,-8.2304,-8.2304,-8.2304,-7.7101,-7.7101,-7.7101,-7.7101,-7.7101,-7.7101,-7.7101,-7.7101,-7.7101,-7.7101,-7.7101,-7.7101,-7.7101,-7.7101,-7.7101,-7.7101,-7.7843,-7.8272,-7.8272,-7.9834,-8.081,-8.0888,-8.1708,-8.2215,-8.2293,-8.2293,-8.2293,-8.2293,-8.2293,-8.2293,-8.2293,-8.2293,-8.2293,-8.2293,-8.2293,-8.2293,-8.2293,-8.2293,-8.2293,-8.2293,-8.2293,-8.2305,-8.2315,-8.2318,-8.2285,-8.2293,-8.2295,-8.2299,-8.2302,-8.2302,-8.2304,-8.2304,-8.2304,-8.2304,-8.2304,-8.2304,-8.2304,-8.2304,-8.2304,-8.2304,-8.2304,-8.2304,-8.2304,-8.2304,-8.2304,-8.2304,-8.2304,-8.2304,-8.2304,-8.2304,-8.2304,-8.2304,-8.2304,-8.2304,-8.2304,-8.2304,-8.2304,-8.2304,-8.2304,-8.2304,-8.2304,-8.2304,-8.2304,-8.2304,-8.2304,-8.2304,-8.2304,-8.2304,-8.2304,-8.2304,-8.2304,-8.2304,-8.2304,-8.2304,-8.2304,-8.2304,-8.2304,-8.2304,-8.2304,-8.2304,-8.2304,-8.2304,-8.2304,-8.2304,-8.2304,-8.2304,-8.2304,-8.2304,-8.2304,-8.2304,-8.2304,-8.2304,-8.2304,-8.2304,-8.2304,-8.2304,-7.7101,-7.7101,-7.7101,-7.7101,-7.7101,-7.7101,-7.7101,-7.7101,-7.7101,-7.7101,-7.7101,-7.7101,-7.7101,-7.7101,-7.7101,-7.7101,-7.7257,-7.7375,-7.7375,-7.835,-7.9287,-7.9951,-8.081,-8.1591,-8.2293,-8.2293,-8.2293,-8.2293,-8.2293,-8.2293,-8.2293,-8.2293,-8.2293,-8.2293,-8.2293,-8.2293,-8.2293,-8.2293,-8.2299,-8.231,-8.231,-8.2318,-8.229,-8.2296,-8.2299,-8.2301,-8.2303,-8.2304,-8.2304,-8.2304,-8.2304,-8.2304,-8.2304,-8.2304,-8.2304,-8.2304,-8.2304,-8.2304,-8.2304,-8.2304,-8.2304,-8.2304,-8.2304,-8.2304,-8.2304,-8.2304,-8.2304,-8.2304,-8.2304,-8.2304,-8.2304,-8.2304,-8.2304,-8.2304,-8.2304,-8.2304,-8.2304,-8.2304,-8.2304,-8.2304,-8.2304,-8.2304,-8.2304,-8.2304,-8.2304,-8.2304,-8.2304,-8.2304,-8.2304,-8.2304,-8.2304,-8.2304,-8.2304,-8.2304,-8.2304,-8.2304,-8.2304,-8.2304,-8.2304,-8.2304,-8.2304,-8.2304,-8.2304,-8.2304,-8.2304,-8.2304,-8.2304,-8.2304,-8.2304,-8.2304,-8.2304,-8.2304,-8.2304,-8.2304,-8.2304,-8.2304,-7.7101,-7.7101,-7.7101,-7.7101,-7.7101,-7.7101,-7.7101,-7.7101,-7.7101,-7.7101,-7.7101,-7.7101,-7.7101,-7.7101,-7.7101,-7.7101,-7.7101,-7.7101,-7.7101,-7.7921,-7.878,-7.9678,-8.0537,-8.1396,-8.2293,-8.2293,-8.2293,-8.2293,-8.2293,-8.2293,-8.2293,-8.2293,-8.2293,-8.2293,-8.2293,-8.2293,-8.2293,-8.2299,-8.2308,-8.2315,-8.2283,-8.229,-8.2297,-8.2301,-8.2303,-8.2304,-8.2304,-8.2304,-8.2304,-8.2304,-8.2304,-8.2304,-8.2304,-8.2304,-8.2304,-8.2304,-8.2304,-8.2304,-8.2304,-8.2304,-8.2304,-8.2304,-8.2304,-8.2304,-8.2304,-8.2304,-8.2304,-8.2304,-8.2304,-8.2304,-8.2304,-8.2304,-8.2304,-8.2304,-8.2304,-8.2304,-8.2304,-8.2304,-8.2304,-8.2304,-8.2304,-8.2304,-8.2304,-8.2304,-8.2304,-8.2304,-8.2304,-8.2304,-8.2304,-8.2304,-8.2304,-8.2304,-8.2304,-8.2304,-8.2304,-8.2304,-8.2304,-8.2304,-8.2304,-8.2304,-8.2304,-8.2304,-8.2304,-8.2304,-8.2304,-8.2304,-8.2304,-8.2304,-8.2304,-8.2304,-8.2304,-8.2304,-8.2304,-8.2304,-8.2304,-8.2304,-7.7101,-7.7101,-7.7101,-7.7101,-7.7101,-7.7101,-7.7101,-7.7101,-7.7101,-7.7101,-7.7101,-7.7101,-7.7101,-7.7101,-7.7101,-7.7101,-7.7101,-7.7101,-7.7101,-7.7765,-7.8624,-7.9678,-8.0381,-8.1278,-8.2293,-8.2293,-8.2293,-8.2293,-8.2293,-8.2293,-8.2293,-8.2296,-8.2296,-8.2296,-8.2299,-8.2302,-8.2302,-8.2313,-8.232,-8.2283,-8.2292,-8.2299,-8.2303,-8.2303,-8.2304,-8.2304,-8.2304,-8.2304,-8.2304,-8.2304,-8.2304,-8.2304,-8.2304,-8.2304,-8.2304,-8.2304,-8.2304,-8.2304,-8.2304,-8.2304,-8.2304,-8.2304,-8.2304,-8.2304,-8.2304,-8.2304,-8.2304,-8.2304,-8.2304,-8.2304,-8.2304,-8.2304,-8.2304,-8.2304,-8.2304,-8.2304,-8.2304,-8.2304,-8.2304,-8.2304,-8.2304,-8.2304,-8.2304,-8.2304,-8.2304,-8.2304,-8.2304,-8.2304,-8.2304,-8.2304,-8.2304,-8.2304,-8.2304,-8.2304,-8.2304,-8.2304,-8.2304,-8.2304,-8.2304,-8.2304,-8.2304,-8.2304,-8.2304,-8.2304,-8.2304,-8.2304,-8.2304,-8.2304,-8.2304,-8.2304,-8.2304,-8.2304,-8.2304,-8.2304,-8.2304,-8.2304,-7.7101,-7.7101,-7.7101,-7.7101,-7.7101,-7.7101,-7.7101,-7.7101,-7.7101,-7.7101,-7.7101,-7.7101,-7.7101,-7.7101,-7.7101,-7.7101,-7.7101,-7.7101,-7.7101,-7.7218,-7.7999,-7.9639,-7.9795,-8.0654,-8.2254,-8.2293,-8.2293,-8.2293,-8.2293,-8.2293,-8.2293,-8.2305,-8.231,-8.2313,-8.2285,-8.2289,-8.2289,-8.229,-8.2295,-8.23,-8.2301,-8.2303,-8.2304,-8.2304,-8.2304,-8.2304,-8.2304,-8.2304,-8.2304,-8.2304,-8.2304,-8.2304,-8.2304,-8.2304,-8.2304,-8.2304,-8.2304,-8.2304,-8.2304,-8.2304,-8.2304,-8.2304,-8.2304,-8.2304,-8.2304,-8.2304,-8.2304,-8.2304,-8.2304,-8.2304,-8.2304,-8.2304,-8.2304,-8.2304,-8.2304,-8.2304,-8.2304,-8.2304,-8.2304,-8.2304,-8.2304,-8.2304,-8.2304,-8.2304,-8.2304,-8.2304,-8.2304,-8.2304,-8.2304,-8.2304,-8.2304,-8.2304,-8.2304,-8.2304,-8.2304,-8.2304,-8.2304,-8.2304,-8.2304,-8.2304,-8.2304,-8.2304,-8.2304,-8.2304,-8.2304,-8.2304,-8.2304,-8.2304,-8.2304,-8.2304,-8.2304,-8.2304,-8.2304,-8.2304,-8.2304,-8.2304,-7.7101,-7.7107,-7.7115,-7.7115,-7.7115,-7.7115,-7.7115,-7.7107,-7.7101,-7.7101,-7.7101,-7.7101,-7.7101,-7.7101,-7.7101,-7.7101,-7.7101,-7.7101,-7.7101,-7.711,-7.7891,-7.9639,-7.9694,-8.0514,-8.2254,-8.231,-8.2313,-8.2305,-8.2305,-8.2305,-8.2305,-8.2281,-8.2285,-8.2287,-8.229,-8.2292,-8.2293,-8.2297,-8.23,-8.2301,-8.2303,-8.2304,-8.2304,-8.2304,-8.2304,-8.2304,-8.2304,-8.2304,-8.2304,-8.2304,-8.2304,-8.2304,-8.2304,-8.2304,-8.2304,-8.2304,-8.2304,-8.2304,-8.2304,-8.2304,-8.2304,-8.2304,-8.2304,-8.2304,-8.2304,-8.2304,-8.2304,-8.2304,-8.2304,-8.2304,-8.2304,-8.2304,-8.2304,-8.2304,-8.2304,-8.2304,-8.2304,-8.2304,-8.2304,-8.2304,-8.2304,-8.2304,-8.2304,-8.2304,-8.2304,-8.2304,-8.2304,-8.2304,-8.2304,-8.2304,-8.2304,-8.2304,-8.2304,-8.2304,-8.2304,-8.2304,-8.2304,-8.2304,-8.2304,-8.2304,-8.2304,-8.2304,-8.2304,-8.2304,-8.2304,-8.2304,-8.2304,-8.2304,-8.2304,-8.2304,-8.2304,-8.2304,-8.2304,-8.2304,-8.2304,-8.2304]},{"header":{"parameterUnit":"m.s-1","parameterCategory":1,"la1":30.6,"la2":28.766,"lo1":-90.7593,"lo2":-88.6598,"dy":0.0162,"dx":0.0183,"nx":116,"ny":114,"refTime":"2024-05-12T18:00:00:Z","depth":0,"parameterNumber":3,"parameterNumberName":"V-component_of_WINDS"},"data":[0.0,0.0,0.0,0.0,0.0,0.0,0.0,0.0,0.0,0.0,0.0,0.0,0.0,0.0,0.0,0.0,0.0,0.0,0.0,0.0,0.0,0.0,0.0,0.0,0.0,0.0,0.0,0.0,0.0,0.0,0.0,0.0,0.0,0.0,0.0,0.0,0.0,0.0,0.0,0.0,0.0,0.0,0.0,0.0,0.0,0.0,0.0,0.0,0.0,0.0,0.0,0.0,0.0,0.0,0.0,0.0,0.0,0.0,0.0,0.0,0.0,0.0,0.0,0.0,0.0,0.0,0.0,0.0,0.0,0.0,0.0,0.0,0.0,0.0,0.0,0.0,0.0,0.0,0.0,0.0,0.0,0.0,0.0,0.0,0.0,0.0,0.0,0.0,0.0,0.0,0.0,0.0,0.0,0.0,0.0,0.0,0.0,0.0,0.0,0.0,0.0,0.0,0.0,0.0,0.0,0.0,0.0,0.0,0.0,0.0,0.0,0.0,0.0,0.0,0.0,0.0,0.0,0.0,0.0,0.0,0.0,0.0,0.0,0.0,0.0,0.0,0.0,0.0,0.0,0.0,0.0,0.0,0.0,0.0,0.0,0.0,0.0,0.0,0.0,0.0,0.0,0.0,0.0,0.0,0.0,0.0,0.0,0.0,0.0,0.0,0.0,0.0,0.0,0.0,0.0,0.0,0.0,0.0,0.0,0.0,0.0,0.0,0.0,0.0,0.0,0.0,0.0,0.0,0.0,0.0,0.0,0.0,0.0,0.0,0.0,0.0,0.0,0.0,0.0,0.0,0.0,0.0,0.0,0.0,0.0,0.0,0.0,0.0,0.0,0.0,0.0,0.0,0.0,0.0,0.0,0.0,0.0,0.0,0.0,0.0,0.0,0.0,0.0,0.0,0.0,0.0,0.0,0.0,0.0,0.0,0.0,0.0,0.0,0.0,0.0,0.0,0.0,0.0,0.0,0.0,0.0,0.0,0.0,0.0,0.0,0.0,0.0,0.0,0.0,0.0,0.0,0.0,0.0,0.0,0.0,0.0,0.0,0.0,0.0,0.0,0.0,0.0,0.0,0.0,0.0,0.0,0.0,0.0,0.0,0.0,0.0,0.0,0.0,0.0,0.0,0.0,0.0,0.0,0.0,0.0,0.0,0.0,0.0,0.0,0.0,0.0,0.0,0.0,0.0,0.0,0.0,0.0,0.0,0.0,0.0,0.0,0.0,0.0,0.0,0.0,0.0,0.0,0.0,0.0,0.0,0.0,0.0,0.0,0.0,0.0,0.0,0.0,0.0,0.0,0.0,0.0,0.0,0.0,0.0,0.0,0.0,0.0,0.0,0.0,0.0,0.0,0.0,0.0,0.0,0.0,0.0,0.0,0.0,0.0,0.0,0.0,0.0,0.0,0.0,0.0,0.0,0.0,0.0,0.0,0.0,0.0,0.0,0.0,0.0,0.0,0.0,0.0,0.0,0.0,0.0,0.0,0.0,0.0,0.0,0.0,0.0,0.0,0.0,0.0,0.0,0.0,0.0,0.0,0.0,0.0,0.0,0.0,0.0,0.0,0.0,0.0,0.0,0.0,0.0,0.0,0.0,0.0,0.0,0.0,0.0,0.0,0.0,0.0,0.0,0.0,0.0,0.0,0.0,0.0,0.0,0.0,0.0,0.0,0.0,0.0,0.0,0.0,0.0,0.0,0.0,0.0,0.0,0.0,0.0,0.0,0.0,0.0,0.0,0.0,0.0,0.0,0.0,0.0,0.0,0.0,0.0,0.0,0.0,0.0,0.0,0.0,0.0,0.0,0.0,0.0,0.0,0.0,0.0,0.0,0.0,0.0,0.0,0.0,0.0,0.0,0.0,0.0,0.0,0.0,0.0,0.0,0.0,0.0,0.0,0.0,0.0,0.0,0.0,0.0,0.0,0.0,0.0,0.0,0.0,0.0,0.0,0.0,0.0,0.0,0.0,0.0,0.0,0.0,0.0,0.0,0.0,0.0,0.0,0.0,0.0,0.0,0.0,0.0,0.0,0.0,0.0,0.0,0.0,0.0,0.0,0.0,0.0,0.0,0.0,0.0,0.0,0.0,0.0,0.0,0.0,0.0,0.0,0.0,0.0,0.0,0.0,0.0,0.0,0.0,0.0,0.0,0.0,0.0,0.0,0.0,0.0,0.0,0.0,0.0,0.0,0.0,0.0,0.0,0.0,0.0,0.0,0.0,0.0,0.0,0.0,0.0,0.0,0.0,0.0,0.0,0.0,0.0,0.0,0.0,0.0,0.0,0.0,0.0,0.0,0.0,0.0,0.0,0.0,0.0,0.0,0.0,0.0,0.0,0.0,0.0,0.0,0.0,0.0,0.0,0.0,0.0,0.0,0.0,0.0,0.0,0.0,0.0,0.0,0.0,0.0,0.0,0.0,0.0,0.0,0.0,0.0,0.0,0.0,0.0,0.0,0.0,0.0,0.0,0.0,0.0,0.0,0.0,0.0,0.0,0.0,0.0,0.0,0.0,0.0,0.0,0.0,0.0,0.0,0.0,0.0,0.0,0.0,0.0,0.0,0.0,0.0,0.0,0.0,0.0,0.0,0.0,0.0,0.0,0.0,0.0,0.0,0.0,0.0,0.0,0.0,0.0,0.0,0.0,0.0,0.0,0.0,0.0,0.0,0.0,0.0,0.0,0.0,0.0,0.0,0.0,0.0,0.0,0.0,0.0,0.0,0.0,0.0,0.0,0.0,0.0,0.0,0.0,0.0,0.0,0.0,0.0,0.0,0.0,0.0,0.0,0.0,0.0,0.0,0.0,0.0,0.0,0.0,0.0,0.0,0.0,0.0,0.0,0.0,0.0,0.0,0.0,0.0,0.0,0.0,0.0,0.0,0.0,0.0,0.0,0.0,0.0,0.0,0.0,0.0,0.0,0.0,0.0,0.0,0.0,0.0,0.0,0.0,0.0,0.0,0.0,0.0,0.0,0.0,0.0,0.0,0.0,0.0,0.0,0.0,0.0,0.0,0.0,0.0,0.0,0.0,0.0,0.0,0.0,0.0,0.0,0.0,0.0,0.0,0.0,0.0,0.0,0.0,0.0,0.0,0.0,0.0,0.0,0.0,0.0,0.0,0.0,0.0,0.0,0.0,0.0,0.0,0.0,0.0,0.0,0.0,0.0,0.0,0.0,0.0,0.0,0.0,0.0,0.0,0.0,0.0,0.0,0.0,0.0,0.0,0.0,0.0,0.0,0.0,0.0,0.0,0.0,0.0,0.0,0.0,0.0,0.0,0.0,0.0,0.0,0.0,0.0,0.0,0.0,0.0,0.0,0.0,0.0,0.0,0.0,0.0,0.0,0.0,0.0,0.0,0.0,0.0,0.0,0.0,0.0,0.0,0.0,0.0,0.0,0.0,0.0,0.0,0.0,0.0,0.0,0.0,0.0,0.0,0.0,0.0,0.0,0.0,0.0,0.0,0.0,0.0,0.0,0.0,0.0,0.0,0.0,0.0,0.0,0.0,0.0,0.0,0.0,0.0,0.0,0.0,0.0,0.0,0.0,0.0,0.0,0.0,0.0,0.0,0.0,0.0,0.0,0.0,0.0,0.0,0.0,0.0,0.0,0.0,0.0,0.0,0.0,0.0,0.0,0.0,0.0,0.0,0.0,0.0,0.0,0.0,0.0,0.0,0.0,0.0,0.0,0.0,0.0,0.0,0.0,0.0,0.0,0.0,0.0,0.0,0.0,0.0,0.0,0.0,0.0,0.0,0.0,0.0,0.0,0.0,0.0,0.0,0.0,0.0,0.0,0.0,0.0,0.0,0.0,0.0,0.0,0.0,0.0,0.0,0.0,0.0,0.0,0.0,0.0,0.0,0.0,0.0,0.0,0.0,0.0,0.0,0.0,0.0,0.0,0.0,0.0,0.0,0.0,0.0,0.0,0.0,0.0,0.0,0.0,0.0,0.0,0.0,0.0,0.0,0.0,0.0,0.0,0.0,0.0,0.0,0.0,0.0,0.0,0.0,0.0,0.0,0.0,0.0,0.0,0.0,0.0,0.0,0.0,0.0,0.0,0.0,0.0,0.0,0.0,0.0,0.0,0.0,0.0,0.0,0.0,0.0,0.0,0.0,0.0,0.0,0.0,0.0,0.0,0.0,0.0,0.0,0.0,0.0,0.0,0.0,0.0,0.0,0.0,0.0,0.0,0.0,0.0,0.0,0.0,0.0,0.0,0.0,0.0,0.0,0.0,0.0,0.0,0.0,0.0,0.0,0.0,0.0,0.0,0.0,0.0,0.0,0.0,0.0,0.0,0.0,0.0,0.0,0.0,0.0,0.0,0.0,0.0,0.0,0.0,0.0,0.0,0.0,0.0,0.0,0.0,0.0,0.0,0.0,0.0,0.0,0.0,0.0,0.0,0.0,0.0,0.0,0.0,0.0,0.0,0.0,0.0,0.0,0.0,0.0,0.0,0.0,0.0,0.0,0.0,0.0,0.0,0.0,0.0,0.0,0.0,0.0,0.0,0.0,0.0,0.0,0.0,0.0,0.0,0.0,0.0,0.0,0.0,0.0,0.0,0.0,0.0,0.0,0.0,0.0,0.0,0.0,0.0,0.0,0.0,0.0,0.0,0.0,0.0,0.0,0.0,0.0,0.0,0.0,0.0,0.0,0.0,0.0,0.0,0.0,0.0,0.0,0.0,0.0,0.0,0.0,0.0,0.0,0.0,0.0,0.0,0.0,0.0,0.0,0.0,0.0,0.0,0.0,0.0,0.0,0.0,0.0,0.0,0.0,0.0,0.0,0.0,0.0,0.0,0.0,0.0,0.0,0.0,0.0,0.0,0.0,0.0,0.0,0.0,0.0,0.0,0.0,0.0,0.0,0.0,0.0,0.0,0.0,0.0,0.0,0.0,0.0,0.0,0.0,0.0,0.0,0.0,0.0,0.0,0.0,0.0,0.0,0.0,0.0,0.0,0.0,0.0,0.0,0.0,0.0,0.0,0.0,0.0,0.0,0.0,0.0,0.0,0.0,0.0,0.0,0.0,0.0,0.0,0.0,0.0,0.0,0.0,0.0,0.0,0.0,0.0,0.0,0.0,0.0,0.0,0.0,0.0,0.0,0.0,0.0,0.0,0.0,0.0,0.0,0.0,0.0,0.0,0.0,0.0,0.0,0.0,0.0,0.0,0.0,0.0,0.0,0.0,0.0,0.0,0.0,0.0,0.0,0.0,0.0,0.0,0.0,0.0,0.0,0.0,0.0,0.0,0.0,0.0,0.0,0.0,0.0,0.0,0.0,0.0,0.0,0.0,0.0,0.0,0.0,0.0,0.0,0.0,0.0,0.0,0.0,0.0,0.0,0.0,0.0,0.0,0.0,0.0,0.0,0.0,0.0,0.0,0.0,0.0,0.0,0.0,0.0,0.0,0.0,0.0,0.0,0.0,0.0,0.0,0.0,0.0,0.0,0.0,0.0,0.0,0.0,0.0,0.0,0.0,0.0,0.0,0.0,0.0,0.0,0.0,0.0,0.0,0.0,0.0,0.0,0.0,0.0,0.0,0.0,0.0,0.0,0.0,0.0,0.0,0.0,0.0,0.0,0.0,0.0,0.0,0.0,0.0,0.0,0.0,0.0,0.0,0.0,0.0,0.0,0.0,0.0,0.0,0.0,0.0,0.0,0.0,0.0,0.0,0.0,0.0,0.0,0.0,0.0,0.0,0.0,0.0,0.0,0.0,0.0,0.0,0.0,0.0,0.0,0.0,0.0,0.0,0.0,0.0,0.0,0.0,0.0,0.0,0.0,0.0,0.0,0.0,0.0,0.0,0.0,0.0,0.0,0.0,0.0,0.0,0.0,0.0,0.0,0.0,0.0,0.0,0.0,0.0,0.0,0.0,0.0,0.0,0.0,0.0,0.0,0.0,0.0,0.0,0.0,0.0,0.0,0.0,0.0,0.0,0.0,0.0,0.0,0.0,0.0,0.0,0.0,0.0,0.0,0.0,0.0,0.0,0.0,0.0,0.0,0.0,0.0,0.0,0.0,0.0,0.0,0.0,0.0,0.0,0.0,0.0,0.0,0.0,0.0,0.0,0.0,0.0,0.0,0.0,0.0,0.0,-0.7525,-0.7525,0.0,0.0,0.0,0.0,0.0,0.0,0.0,0.0,0.0,0.0,0.0,0.0,0.0,0.0,0.0,0.0,0.0,0.0,0.0,0.0,0.0,0.0,0.0,-1.5601,-1.5601,-1.5601,-1.5601,-1.5601,-1.5601,0.0,0.0,0.0,0.0,0.0,0.0,0.0,-1.5601,-1.5601,-1.5601,-1.5655,-1.5774,-1.5892,-1.5946,-1.6017,0.0,0.0,0.0,0.0,0.0,0.0,0.0,0.0,0.0,0.0,0.0,0.0,0.0,0.0,0.0,0.0,0.0,0.0,0.0,0.0,0.0,0.0,0.0,0.0,0.0,0.0,0.0,0.0,0.0,0.0,0.0,0.0,0.0,0.0,0.0,0.0,0.0,0.0,0.0,0.0,0.0,0.0,0.0,0.0,0.0,0.0,0.0,0.0,0.0,0.0,0.0,0.0,0.0,0.0,0.0,0.0,0.0,0.0,0.0,0.0,0.0,0.0,0.0,0.0,0.0,0.0,0.0,0.0,0.0,0.0,-0.7546,-0.755,0.0,0.0,0.0,0.0,0.0,0.0,0.0,0.0,0.0,0.0,0.0,0.0,0.0,0.0,0.0,0.0,0.0,0.0,0.0,0.0,0.0,-1.5601,-1.5601,-1.5601,-1.5601,-1.5601,-1.5601,-1.5601,-1.5601,-1.5601,0.0,0.0,0.0,-1.5601,-1.5601,-1.5645,-1.5645,-1.5601,-1.5645,-1.5785,-1.6082,-1.6258,-1.6269,-1.6147,-1.6291,0.0,0.0,0.0,0.0,0.0,0.0,0.0,0.0,0.0,0.0,0.0,0.0,0.0,0.0,0.0,0.0,0.0,0.0,0.0,0.0,0.0,0.0,0.0,0.0,0.0,0.0,0.0,0.0,0.0,0.0,0.0,0.0,0.0,0.0,0.0,0.0,0.0,0.0,0.0,0.0,0.0,0.0,0.0,0.0,0.0,0.0,0.0,0.0,0.0,0.0,0.0,0.0,0.0,0.0,0.0,0.0,0.0,0.0,0.0,0.0,0.0,0.0,0.0,-0.7566,-0.7574,-0.7574,-0.7574,-0.7615,-0.768,-0.7607,-0.7615,-0.7689,-0.7689,0.0,0.0,0.0,0.0,0.0,0.0,0.0,0.0,0.0,0.0,0.0,0.0,0.0,0.0,0.0,0.0,0.0,0.0,0.0,-1.5601,-1.5601,-1.5601,-1.5601,-1.5601,-1.5601,-1.5601,-1.5601,-1.5601,-1.5601,-1.5601,-1.5601,-1.5601,-1.5601,-1.5855,-1.5806,-1.5601,-1.5806,-1.6021,-1.6269,-1.6506,-1.6603,-1.6634,-1.6666,-1.6658,-1.6518,0.0,0.0,0.0,0.0,0.0,0.0,0.0,0.0,0.0,0.0,0.0,0.0,0.0,0.0,0.0,0.0,0.0,0.0,0.0,0.0,0.0,0.0,0.0,0.0,0.0,0.0,0.0,0.0,0.0,0.0,0.0,0.0,0.0,0.0,0.0,0.0,0.0,0.0,0.0,0.0,0.0,-0.6872,-0.6962,0.0,0.0,0.0,0.0,0.0,0.0,0.0,0.0,0.0,0.0,0.0,0.0,0.0,-0.7513,-0.7525,-0.7603,-0.7644,-0.7644,-0.7725,-0.7762,-0.7762,-0.7762,-0.777,-0.7778,-0.777,0.0,-0.7782,-0.7782,0.0,0.0,0.0,0.0,0.0,0.0,0.0,0.0,0.0,0.0,0.0,0.0,0.0,0.0,0.0,0.0,0.0,0.0,0.0,0.0,0.0,-1.5601,-1.5601,-1.5601,-1.5601,-1.5601,-1.5601,-1.5601,-1.5601,-1.5601,-1.5601,-1.5655,-1.5795,-1.5953,-1.6028,-1.6,-1.6237,-1.6471,-1.6517,-1.6743,-1.685,-1.685,-1.685,-1.6915,-1.6936,-1.5684,0.0,0.0,0.0,0.0,0.0,0.0,0.0,0.0,0.0,0.0,0.0,0.0,0.0,0.0,0.0,0.0,0.0,0.0,0.0,0.0,0.0,0.0,0.0,0.0,0.0,0.0,0.0,0.0,0.0,0.0,0.0,0.0,0.0,0.0,0.0,0.0,0.0,0.0,0.0,-0.6982,-0.7039,-0.7133,-0.7178,-0.7203,0.0,0.0,0.0,0.0,0.0,0.0,0.0,0.0,0.0,-0.7603,-0.7652,-0.768,-0.768,-0.7717,-0.7738,-0.7742,-0.7778,-0.7799,-0.7799,-0.7799,-0.7827,-0.7876,-0.7876,-0.7901,-0.7942,-0.7897,-0.7925,-0.8007,0.0,0.0,0.0,0.0,-0.806,-0.806,0.0,0.0,0.0,0.0,0.0,0.0,0.0,0.0,0.0,0.0,0.0,0.0,-1.5601,-1.5601,-1.5601,-1.5601,-1.5601,-1.5601,-1.5601,-1.5601,-1.5601,-1.5601,-1.5655,-1.5774,-1.6007,-1.6072,-1.6194,-1.6495,-1.6603,-1.6763,-1.6754,-1.6926,-1.7001,-1.7001,-1.7001,-1.7001,-1.7001,-1.6613,-1.5229,-1.3259,0.0,0.0,0.0,0.0,0.0,0.0,0.0,0.0,0.0,0.0,0.0,0.0,0.0,0.0,0.0,0.0,0.0,0.0,0.0,0.0,0.0,0.0,0.0,0.0,0.0,0.0,0.0,0.0,0.0,0.0,0.0,0.0,0.0,0.0,0.0,0.0,0.0,-0.7162,-0.7186,-0.7256,-0.728,-0.7297,0.0,0.0,0.0,0.0,0.0,0.0,-0.7595,-0.766,-0.7697,-0.7697,-0.7762,-0.7799,-0.7799,-0.7823,-0.7831,-0.7836,-0.7856,-0.7864,-0.7864,-0.7864,-0.7901,-0.7966,-0.7966,-0.8003,-0.8056,-0.7995,-0.8003,-0.806,-0.806,-0.806,-0.806,-0.806,-0.806,-0.806,0.0,0.0,0.0,0.0,0.0,0.0,0.0,0.0,0.0,0.0,0.0,-1.5601,-1.5601,-1.5601,-1.5601,-1.5601,-1.5601,-1.5601,-1.5601,-1.5601,-1.5601,-1.5601,-1.5806,-1.5996,-1.6007,-1.6172,-1.6517,-1.6969,-1.6764,-1.6775,-1.699,-1.7001,-1.7001,-1.7001,-1.7001,-1.7001,-1.6936,-1.5564,-1.4912,-1.4577,-1.1886,0.0,0.0,0.0,0.0,0.0,0.0,0.0,0.0,0.0,0.0,0.0,0.0,0.0,0.0,0.0,0.0,0.0,0.0,0.0,0.0,0.0,0.0,0.0,0.0,0.0,0.0,0.0,0.0,0.0,0.0,0.0,0.0,0.0,0.0,0.0,0.0,0.0,0.0,-0.7264,-0.7333,0.0,0.0,0.0,0.0,-0.7644,-0.7652,-0.7693,-0.7782,-0.7791,-0.7791,-0.7791,-0.7795,-0.7799,-0.7799,-0.7885,-0.7929,-0.7929,-0.8011,-0.8048,-0.8048,-0.8048,-0.8052,-0.8056,-0.8056,-0.8056,-0.806,-0.8056,-0.8056,-0.806,-0.806,-0.806,-0.806,-0.806,-0.806,-0.806,0.0,0.0,0.0,0.0,0.0,-1.5601,-1.5601,-1.5601,-1.5601,-1.5601,-1.5601,-1.5601,-1.5601,-1.5601,-1.5601,-1.5601,-1.5601,-1.5601,-1.5601,-1.5601,-1.5666,-1.5877,-1.5963,-1.6147,-1.6461,-1.6635,-1.684,-1.7001,-1.6926,-1.6926,-1.7001,-1.7001,-1.7001,-1.7001,-1.7001,-1.7001,-1.6936,-1.6483,-1.5759,-1.4782,-1.3792,-1.2347,0.0,0.0,0.0,0.0,0.0,0.0,0.0,0.0,0.0,0.0,0.0,0.0,0.0,0.0,0.0,0.0,0.0,0.0,0.0,0.0,0.0,0.0,0.0,0.0,0.0,0.0,0.0,0.0,0.0,0.0,0.0,0.0,0.0,0.0,0.0,0.0,0.0,-0.7423,-0.746,0.0,-0.7558,-0.7595,-0.7652,-0.7742,-0.775,-0.7766,-0.7795,-0.7856,-0.7889,-0.7889,-0.7938,-0.7966,-0.7966,-0.7999,-0.8015,-0.8019,-0.8048,-0.806,-0.806,-0.806,-0.8093,-0.815,-0.815,-0.8183,-0.8236,-0.8236,-0.8166,-0.806,-0.806,-0.806,-0.806,-0.806,-0.806,-0.806,0.0,0.0,0.0,-1.5601,-1.5601,-1.5601,-1.5601,-1.5601,-1.5601,-1.5601,-1.5601,-1.5601,-1.5601,-1.5601,-1.5601,-1.5601,-1.5601,-1.5601,-1.5601,-1.5666,-1.5785,-1.6007,-1.6158,-1.6439,-1.6764,-1.6926,-1.7001,-1.7001,-1.7001,-1.7001,-1.7001,-1.7001,-1.7001,-1.7001,-1.7001,-1.7001,-1.6936,-1.6483,-1.5759,-1.4847,-1.3857,-1.2676,-1.1292,0.0,0.0,0.0,0.0,0.0,0.0,0.0,0.0,0.0,0.0,0.0,0.0,0.0,0.0,0.0,0.0,0.0,0.0,0.0,0.0,0.0,0.0,0.0,0.0,0.0,0.0,0.0,0.0,0.0,0.0,0.0,0.0,0.0,0.0,-0.7435,-0.7468,-0.7562,-0.757,-0.7607,-0.7701,-0.7709,-0.7746,-0.7836,-0.7844,-0.7856,-0.7885,-0.7946,-0.7978,-0.7978,-0.8032,-0.8076,-0.8109,-0.8109,-0.8125,-0.8154,-0.8154,-0.8154,-0.8154,-0.8154,-0.8187,-0.8244,-0.8244,-0.8281,-0.8334,-0.8334,-0.8264,-0.815,-0.8121,-0.7941,-0.7684,-0.7653,-0.7474,-0.7223,0.0,-1.5601,-1.5601,-1.5601,-1.5601,-1.5601,-1.5601,-1.5601,-1.5601,-1.5601,-1.5601,-1.5601,-1.5601,-1.5601,-1.5601,-1.5601,-1.5601,-1.5601,-1.5601,-1.5877,-1.6017,-1.6028,-1.6482,-1.6775,-1.7001,-1.7001,-1.7001,-1.7001,-1.7001,-1.7001,-1.7001,-1.7001,-1.7001,-1.7001,-1.7001,-1.7001,-1.6936,-1.5499,-1.4912,-1.4642,-1.1886,-1.1556,-1.2529,0.0,0.0,0.0,0.0,0.0,0.0,0.0,0.0,0.0,0.0,0.0,0.0,0.0,0.0,0.0,0.0,0.0,0.0,0.0,0.0,0.0,0.0,0.0,0.0,0.0,0.0,0.0,0.0,0.0,0.0,0.0,0.0,0.0,-0.7529,-0.7529,-0.7562,-0.7656,-0.7668,-0.7701,-0.7795,-0.7803,-0.784,-0.7934,-0.7938,-0.7974,-0.8056,-0.8064,-0.8064,-0.8064,-0.8068,-0.8113,-0.8203,-0.8203,-0.8248,-0.8334,-0.8334,-0.8334,-0.8334,-0.8334,-0.8334,-0.8338,-0.8338,-0.8255,-0.8255,-0.8255,-0.8255,-0.8247,-0.8154,-0.7603,-0.6915,-0.6755,-0.614,-0.5384,-1.5601,-1.5601,-1.5601,-1.5601,-1.5601,-1.5601,-1.5601,-1.5601,-1.5601,-1.5601,-1.5601,-1.5601,-1.5601,-1.5601,-1.5601,-1.5601,-1.5601,-1.5601,-1.5601,-1.5877,-1.6158,-1.6515,-1.6754,-1.6937,-1.7001,-1.7001,-1.7001,-1.7001,-1.7001,-1.7001,-1.7001,-1.7001,-1.7001,-1.7001,-1.7001,-1.7001,-1.6936,-1.5499,-1.4912,-1.4707,-1.2931,-1.2471,-1.2734,0.0,0.0,0.0,0.0,0.0,0.0,0.0,0.0,0.0,0.0,0.0,0.0,0.0,0.0,0.0,0.0,0.0,0.0,0.0,0.0,0.0,0.0,0.0,0.0,0.0,0.0,0.0,0.0,0.0,0.0,0.0,-0.7582,-0.7623,-0.7623,-0.7623,-0.766,-0.775,-0.7762,-0.7795,-0.7889,-0.7897,-0.7934,-0.8019,-0.8027,-0.8036,-0.806,-0.8125,-0.8162,-0.8162,-0.8223,-0.8272,-0.8297,-0.8297,-0.8309,-0.8334,-0.8334,-0.8334,-0.8334,-0.8334,-0.837,-0.8432,-0.8432,-0.8117,-0.7467,-0.7467,-0.7112,-0.6479,-0.7052,-0.7087,-0.6825,-0.6117,-0.5682,-0.5338,-1.5601,-1.5601,-1.5601,-1.5601,-1.5601,-1.5601,-1.5601,-1.5601,-1.5601,-1.5601,-1.5601,-1.5601,-1.5601,-1.5601,-1.5601,-1.5601,-1.5601,-1.5645,-1.5741,-1.6126,-1.6471,-1.6786,-1.6937,-1.7001,-1.7001,-1.7001,-1.7001,-1.7001,-1.7001,-1.7001,-1.7001,-1.7001,-1.7001,-1.7001,-1.7001,-1.7001,-1.6936,-1.5499,-1.4912,-1.4772,-1.339,-1.3128,-1.3587,-1.2997,-1.3521,-1.4502,-1.3914,-1.4107,-1.4724,-1.4578,0.0,0.0,0.0,0.0,0.0,0.0,0.0,0.0,0.0,0.0,0.0,0.0,0.0,0.0,0.0,0.0,0.0,0.0,0.0,0.0,0.0,0.0,0.0,0.0,-0.766,-0.7733,-0.777,-0.7742,-0.7754,-0.7844,-0.7856,-0.7893,-0.7978,-0.7987,-0.8007,-0.8056,-0.8097,-0.8117,-0.8117,-0.8207,-0.8256,-0.8256,-0.8305,-0.8354,-0.8391,-0.8391,-0.8411,-0.8448,-0.8448,-0.8448,-0.8448,-0.8448,-0.8213,-0.7995,-0.7995,-0.7399,-0.6547,-0.6547,-0.6189,-0.573,0.0,0.0,0.0,0.0,-0.4344,-0.4257,-1.5601,-1.5601,-1.5601,-1.5601,-1.5601,-1.5601,-1.5601,-1.5601,-1.5601,-1.5601,-1.5601,-1.5601,-1.5601,-1.5601,-1.5601,-1.5601,-1.5601,-1.5709,-1.6028,-1.645,-1.6732,-1.699,-1.7001,-1.7001,-1.7001,-1.7001,-1.7001,-1.7001,-1.7001,-1.7001,-1.7001,-1.7001,-1.7001,-1.7001,-1.7001,-1.7001,-1.6936,-1.5694,-1.5173,-1.5033,-1.3783,-1.3914,-1.4782,-1.3521,-1.4698,-1.6807,-1.5593,-1.6136,-1.7323,-1.6691,0.0,0.0,0.0,0.0,0.0,0.0,0.0,0.0,0.0,0.0,0.0,0.0,0.0,0.0,0.0,0.0,0.0,0.0,0.0,0.0,0.0,0.0,0.0,0.0,-0.7754,-0.7844,-0.7925,-0.7872,-0.786,-0.7938,-0.795,-0.7978,-0.8056,-0.8072,-0.8076,-0.8076,-0.8162,-0.8215,-0.8215,-0.8301,0.0,0.0,0.0,-0.8403,-0.8485,-0.8489,-0.8526,-0.8607,-0.8607,-0.8518,-0.8429,-0.8429,-0.7892,-0.6994,-0.6994,-0.6458,-0.5562,-0.5562,-0.5473,-0.5378,-0.5415,-0.4953,-0.4065,-0.3153,-0.2793,-0.2793,-1.5601,-1.5601,-1.5601,-1.5601,-1.5601,-1.5601,-1.5601,-1.5601,-1.5601,-1.5601,-1.5601,-1.5601,-1.5601,-1.5601,-1.5601,-1.5601,-1.5601,-1.5785,-1.6215,-1.6334,-1.6571,-1.699,-1.7001,-1.7001,-1.7001,-1.7001,-1.7001,-1.7001,-1.7001,-1.7001,-1.7001,-1.7001,-1.7001,-1.7001,-1.7001,-1.7001,-1.7001,-1.6742,-1.6613,-1.6548,-1.6278,-1.5694,-1.4847,-1.4577,-1.5564,-1.6969,-1.6965,-1.7137,-1.7432,-1.7684,-1.6973,-1.6025,-1.5845,-1.4077,0.0,0.0,0.0,0.0,0.0,0.0,0.0,0.0,0.0,0.0,0.0,0.0,0.0,0.0,0.0,0.0,0.0,0.0,0.0,-0.7851,-0.7848,-0.7913,-0.7934,-0.7978,-0.8019,-0.8036,-0.8036,-0.8044,-0.806,-0.813,-0.817,-0.817,-0.8256,-0.8309,-0.8309,-0.8395,-0.8444,-0.8444,-0.8517,-0.8562,-0.8583,-0.8583,-0.8591,-0.8607,-0.8607,0.0,-0.7442,-0.7442,-0.6905,-0.601,-0.601,-0.5473,-0.4576,-0.4576,-0.4128,-0.35,-0.4299,-0.4027,-0.3133,-0.2948,-0.2856,-0.2856,-1.5601,-1.5601,-1.5601,-1.5601,-1.5601,-1.5601,-1.5601,-1.5601,-1.5601,-1.5601,-1.5601,-1.5601,-1.5601,-1.5601,-1.5601,-1.5601,-1.5817,-1.6064,-1.6301,-1.6527,-1.6764,-1.699,-1.7001,-1.7001,-1.7001,-1.7001,-1.7001,-1.7001,-1.7001,-1.7001,-1.7001,-1.7001,-1.7001,-1.7001,-1.7001,-1.7001,-1.7001,-1.7001,-1.7001,-1.7001,-1.7001,-1.6148,-1.4977,-1.5694,-1.6491,-1.7206,-1.7335,-1.7051,-1.6661,-1.6884,-1.655,-1.5887,-1.4991,-1.4369,-1.3531,0.0,0.0,0.0,0.0,0.0,0.0,0.0,0.0,0.0,0.0,0.0,0.0,0.0,0.0,-1.0046,-0.8837,0.0,-0.8598,-0.7946,-0.7942,-0.7999,-0.7999,-0.8036,-0.806,-0.806,-0.8101,-0.813,-0.813,-0.8211,-0.8264,-0.8264,-0.835,-0.8403,-0.8403,-0.8489,-0.8538,-0.8538,-0.8583,-0.8607,-0.8607,-0.8607,-0.8607,-0.8607,-0.8607,-0.8071,-0.7173,-0.7173,-0.6368,-0.5025,-0.5025,-0.4487,-0.3592,-0.3592,-0.3323,-0.2964,-0.3412,-0.3323,-0.2874,-0.2874,-0.2874,-0.2874,-1.5601,-1.5601,-1.5601,-1.5601,-1.5601,-1.5601,-1.5601,-1.5601,-1.5601,-1.5601,-1.5601,-1.5601,-1.5601,-1.5601,-1.5601,-1.5601,-1.5989,-1.6269,-1.6312,-1.671,-1.6958,-1.7001,-1.7001,-1.7001,-1.7001,-1.7001,-1.7001,-1.7001,-1.7001,-1.7001,-1.7001,-1.7001,-1.7001,-1.7001,-1.7001,-1.7001,-1.7001,-1.7001,-1.7001,-1.7001,-1.7001,-1.6374,-1.5502,-1.6621,-1.6868,-1.6583,-1.6599,-1.6099,-1.5422,-1.5737,-1.5948,-1.5726,-1.4298,-1.4432,-1.4457,-1.1094,-0.999,0.0,0.0,0.0,0.0,0.0,0.0,0.0,0.0,-1.1675,-1.1323,-1.012,-1.056,-1.0531,-0.8536,-0.8875,-0.9109,-0.8123,-0.8019,-0.8068,-0.8085,-0.8089,-0.8097,-0.8113,-0.8166,-0.8207,-0.8223,-0.8309,-0.8362,-0.8362,-0.8448,-0.8497,-0.8497,-0.8566,-0.8607,-0.8607,-0.8607,-0.8607,-0.8607,-0.8429,-0.8429,-0.8607,-0.825,-0.7624,-0.6905,-0.6726,-0.5652,-0.4038,-0.4038,-0.3592,-0.2874,-0.2874,-0.2874,-0.2874,-0.2874,-0.2874,-0.2874,-0.2874,-0.2874,-0.2874,-1.5601,-1.5601,-1.5601,-1.5601,-1.5601,-1.5601,-1.5601,-1.5601,-1.5601,-1.5601,-1.5601,-1.5601,-1.5601,-1.5601,-1.5601,-1.5601,-1.5899,-1.6075,-1.6301,-1.656,-1.6786,-1.699,-1.7001,-1.7001,-1.7001,-1.7001,-1.7001,-1.7001,-1.7001,-1.7001,-1.7001,-1.7001,-1.7001,-1.7001,-1.7001,-1.7001,-1.7001,-1.7001,-1.7001,-1.7001,-1.7001,-1.7076,-1.7137,-1.7269,-1.5737,-1.3511,-1.3838,-1.3841,-1.3977,-1.5634,-1.5717,-1.5239,-1.5744,-1.4813,-1.319,-1.1106,-0.9843,-0.884,-0.7744,-0.837,-0.9992,-1.2326,-1.2874,-1.2909,0.0,-1.2998,-1.2646,-1.1524,-1.0594,-0.9866,-0.9631,-0.8898,-0.8215,-0.8131,-0.8056,-0.8089,-0.817,-0.8183,-0.8211,-0.8293,-0.824,-0.8232,-0.8313,-0.8403,-0.8456,-0.8456,-0.8542,-0.8591,-0.8591,-0.8603,-0.8607,-0.8607,-0.8607,-0.8607,-0.8607,-0.7803,-0.7803,-0.8607,-0.6815,-0.601,-0.5831,-0.5025,-0.4038,-0.3053,-0.3053,-0.2964,-0.2874,-0.2874,-0.2874,-0.2874,-0.2874,-0.2874,-0.2874,-0.2874,-0.2874,-0.2874,-1.5601,-1.5601,-1.5601,-1.5601,-1.5601,-1.5601,-1.5601,-1.5601,-1.5601,-1.5601,-1.5601,-1.5601,-1.5601,-1.5601,-1.5601,-1.5601,-1.5946,-1.6204,-1.6312,-1.6657,-1.6904,-1.7001,-1.7001,-1.7001,-1.7001,-1.7001,-1.7001,-1.7001,-1.7001,-1.7001,-1.7001,-1.7001,-1.7001,-1.7001,-1.7001,-1.7001,-1.7001,-1.7001,-1.7001,-1.7012,-1.7163,-1.681,-1.6185,-1.6378,-1.5165,-1.3538,-1.4518,-1.4928,0.0,-1.4344,-1.452,-1.4813,-1.3531,-1.4024,-1.4355,-1.0718,-1.0185,-1.0609,-0.99,-0.9506,-1.0008,-1.2481,-1.2626,-1.2083,-1.2148,-1.2146,-1.1924,-1.0773,-1.0759,-1.0492,-0.9073,-0.9036,-0.8975,-0.8227,-0.8105,-0.8154,-0.8195,-0.8244,-0.8313,-0.8403,-0.8379,-0.8375,-0.8411,-0.8497,-0.855,-0.855,-0.8587,-0.8607,-0.8607,-0.8607,-0.8607,-0.8607,-0.8607,-0.8607,-0.8607,-0.825,-0.7982,-0.7803,-0.6994,-0.601,-0.4845,-0.4487,-0.3771,-0.2874,-0.2874,-0.2874,-0.2874,-0.2874,-0.2874,-0.2874,-0.2874,-0.2874,-0.2874,-0.2874,-0.2874,-0.2874,-1.5601,-1.5601,-1.5601,-1.5601,-1.5601,-1.5601,-1.5601,-1.5601,-1.5601,-1.5601,-1.5601,-1.5601,-1.5601,-1.5601,-1.5623,-1.5688,-1.6075,-1.6344,-1.6409,-1.6786,-1.7001,-1.7001,-1.7001,-1.7001,-1.7001,-1.7001,-1.7001,-1.7001,-1.7001,-1.7001,-1.7001,-1.7001,-1.7001,-1.7001,-1.7001,-1.7001,-1.7001,-1.7001,-1.7001,-1.7023,-1.7281,-1.6803,-1.6017,-1.6324,-1.5807,-1.5016,-1.5226,-1.5035,-1.4583,-1.3658,-1.3769,-1.4033,-1.2597,-1.3786,-1.4838,-1.0784,-1.0387,-1.1268,-1.091,-1.0397,-1.0325,-1.2147,-1.2005,-1.1312,-1.1072,-1.132,-1.1265,-1.0081,-1.093,-1.12,-0.9049,-0.9476,-0.9653,-0.8345,-0.8154,-0.8215,-0.8268,-0.833,-0.8407,-0.8497,-0.8509,-0.8509,-0.8509,-0.857,-0.8607,-0.8607,-0.8607,-0.8607,-0.8607,-0.8607,-0.8607,-0.8607,-0.8607,-0.8607,-0.8607,-0.8339,-0.7892,-0.7173,-0.6637,-0.5652,-0.4307,-0.4038,-0.3502,-0.2874,-0.2874,-0.2874,-0.2874,-0.2874,-0.2874,-0.2874,-0.2874,-0.2874,-0.2874,-0.2874,-0.2874,-0.2874,-1.5601,-1.5601,-1.5601,-1.5601,-1.5601,-1.5601,-1.5601,-1.5601,-1.5601,-1.5601,-1.5601,-1.5601,-1.5601,-1.5601,-1.5688,-1.5974,-1.6172,-1.6409,-1.6698,-1.6872,-1.7001,-1.7001,-1.7001,-1.7001,-1.7001,-1.7001,-1.7001,-1.7001,-1.7001,-1.7001,-1.7001,-1.7001,-1.7001,-1.7001,-1.7001,-1.7001,-1.7001,-1.7001,-1.7001,-1.7023,-1.7281,-1.7507,-1.7666,-1.7923,-1.809,-1.7851,-1.5008,-1.2731,-1.1514,-1.4093,-1.385,-1.2758,-1.4583,-1.4562,-1.3393,-1.1536,-1.0218,-0.9459,-0.9464,-1.0319,-1.128,-1.1409,-1.1445,-1.1122,-1.008,-1.0874,-1.1482,-1.0367,-1.1137,-1.1635,-1.031,-1.006,-0.9677,-0.8433,-0.8195,-0.826,-0.844,-0.8464,-0.8501,-0.8595,-0.8603,-0.8603,-0.8603,-0.8607,-0.8607,-0.8607,-0.8607,-0.8607,-0.8607,-0.8607,-0.8607,-0.8607,-0.8607,-0.8607,-0.8607,-0.771,-0.7263,-0.7173,-0.5293,-0.4397,-0.4307,-0.3323,-0.2964,-0.2874,-0.2874,-0.2874,-0.2874,-0.2874,-0.2874,-0.2874,-0.2874,-0.2874,-0.2874,-0.2874,-0.2874,-0.2874,-1.6043,-1.6075,-1.6075,-1.6075,-1.6075,-1.6075,-1.6075,-1.5806,-1.5601,-1.5601,-1.5601,0.0,0.0,0.0,0.0,0.0,-1.6172,-1.6409,-1.6709,-1.6872,-1.7001,-1.7001,-1.7001,-1.7001,-1.7001,-1.7001,-1.7001,-1.7001,-1.7001,-1.7001,-1.7001,-1.7001,-1.7001,-1.7001,-1.7001,-1.7001,-1.7001,-1.7001,-1.7098,-1.727,-1.7507,-1.7755,-1.7992,-1.8229,-1.8369,-1.8223,0.0,-1.5735,-1.5088,-1.4449,-1.4289,-1.4374,-1.4536,-1.4449,-1.4109,-1.2755,-1.0981,-0.9775,-1.1399,-1.0375,-0.9509,-1.2069,-1.1586,-1.0524,-1.1096,-1.1593,-1.1919,-1.1546,-1.1807,-1.1665,-1.0409,-1.0172,-0.9785,-0.8444,-0.8342,-0.8403,-0.8464,-0.8526,-0.8575,-0.8603,-0.8607,-0.8607,-0.8607,-0.8607,-0.8607,-0.8607,-0.8607,-0.8607,-0.8607,-0.8607,-0.8607,-0.8607,-0.8607,-0.8607,-0.8607,-0.825,-0.7442,-0.6189,-0.4307,-0.3412,-0.3323,-0.3053,-0.2874,-0.2874,-0.2874,-0.2874,-0.2874,-0.2874,-0.2874,-0.2874,-0.2874,-0.2874,-0.2874,-0.2874,-0.2874,-0.2874,0.0,-1.6312,-1.6312,-1.6312,-1.6312,0.0,0.0,0.0,0.0,0.0,0.0,0.0,0.0,0.0,0.0,0.0,0.0,-1.6452,-1.6764,-1.6926,-1.7001,-1.7001,-1.7001,-1.7001,-1.7001,-1.7001,-1.7001,-1.7001,-1.7001,-1.7001,-1.7001,-1.7001,-1.7001,-1.7001,-1.7001,-1.7001,-1.7012,-1.7098,-1.7227,-1.741,-1.7723,-1.7949,-1.8121,-1.7998,-1.8012,0.0,-1.7168,-1.6793,-1.6354,-1.4917,-1.4397,-1.4343,-1.4343,-1.4263,-1.39,-1.2769,-1.1631,-1.1023,-1.216,-1.1149,-1.021,-1.237,-1.172,-1.088,-1.1746,-1.2402,-1.2803,-1.2803,-1.2842,-1.2489,-1.1143,-1.0519,-0.9816,-0.854,-0.8432,-0.8485,-0.8517,-0.857,-0.8607,-0.8607,-0.8607,-0.8607,-0.8607,-0.8607,-0.8607,-0.8607,-0.8607,-0.8429,-0.816,-0.8429,-0.825,-0.762,-0.825,-0.8429,-0.8071,-0.8429,-0.762,-0.5652,-0.3771,-0.2874,-0.2874,-0.2874,-0.2874,-0.2874,-0.2874,-0.2874,-0.2874,-0.2874,-0.2874,-0.2874,-0.2874,-0.2874,-0.2874,-0.2874,-0.2874,-0.2874,0.0,0.0,-1.6344,0.0,0.0,0.0,0.0,0.0,0.0,0.0,0.0,0.0,0.0,0.0,0.0,0.0,0.0,0.0,-1.698,-1.7001,-1.7001,-1.7001,-1.7001,-1.7001,-1.7001,-1.7001,-1.7001,-1.7001,-1.7001,-1.7001,-1.7001,-1.7001,-1.7001,-1.7001,-1.7001,-1.7001,-1.7023,-1.727,-1.7389,-1.7432,-1.7906,-1.8099,-1.7994,-1.7508,-1.7308,-1.7168,-1.6391,-1.5811,-1.5325,-1.5325,-1.4212,-1.3058,-1.4283,-1.3992,-1.2951,-1.1863,-1.2249,-1.2909,-1.1965,-1.2482,-1.3109,-1.2268,-1.2018,-1.2055,-1.2274,-1.3217,-1.4135,-1.4142,-1.4097,-1.3698,-1.2445,-1.1105,-0.9841,-0.8728,-0.8481,-0.8509,-0.8595,-0.8607,-0.8607,-0.8607,-0.8607,-0.8607,-0.8607,-0.8607,-0.8607,-0.8518,-0.8518,-0.816,-0.7263,-0.7982,-0.762,-0.5741,-0.7531,-0.7982,-0.7173,-0.7982,-0.7442,-0.5562,-0.3771,-0.2874,-0.2874,-0.2874,-0.2874,-0.2874,-0.2874,-0.2874,-0.2874,-0.2874,-0.2874,-0.2874,-0.2874,-0.2874,-0.2874,-0.2874,-0.2874,-0.2874,0.0,0.0,0.0,0.0,0.0,0.0,0.0,0.0,0.0,0.0,0.0,0.0,0.0,0.0,0.0,0.0,0.0,0.0,-1.698,-1.7001,-1.7001,-1.7001,-1.7001,-1.7001,-1.7001,-1.7001,-1.7001,-1.7001,-1.7001,-1.7001,-1.7001,-1.7001,-1.7001,-1.7001,-1.7001,-1.7001,-1.7023,-1.727,-1.7475,-1.7658,-1.797,-1.785,-1.7518,-1.7359,-1.6956,-1.6391,-1.5603,-1.5301,-1.5325,-1.5325,-1.4817,-1.4291,-1.477,-1.4774,-1.4422,-1.4114,-1.3568,-1.3296,-1.4087,-1.3195,-1.2529,-1.4334,-1.4148,-1.3748,-1.4788,-1.5298,-1.5502,-1.5703,-1.4084,-1.2658,-1.2515,-1.059,-0.8903,-0.8647,-0.8575,-0.8583,-0.8603,-0.8607,-0.8607,-0.8607,-0.8607,-0.8607,-0.8607,-0.8607,-0.8339,-0.762,-0.7531,-0.7442,-0.7173,-0.6726,-0.6189,-0.5741,-0.6189,-0.6368,-0.6099,-0.5652,-0.5114,-0.4666,-0.3502,-0.2874,-0.2874,-0.2874,-0.2874,-0.2874,-0.2874,-0.2874,-0.2874,-0.2874,-0.2874,-0.2874,-0.2874,-0.2874,-0.2874,-0.2874,-0.2874,-0.2874,0.0,0.0,0.0,0.0,0.0,0.0,0.0,0.0,0.0,0.0,0.0,0.0,0.0,0.0,0.0,0.0,0.0,0.0,0.0,-1.7001,-1.7001,-1.7001,-1.7001,-1.7001,-1.7001,-1.7001,-1.7001,-1.7001,-1.7001,-1.7001,-1.7001,-1.7001,-1.7001,-1.7001,-1.7001,-1.7066,-1.7184,-1.7421,-1.7669,0.0,0.0,-1.7547,-1.7238,-1.6523,-1.6028,-1.555,-1.4917,-1.4834,0.0,0.0,0.0,-1.4838,-1.4935,-1.4968,-1.4968,-1.4968,-1.4554,-1.4182,-1.5073,-1.4445,-1.3886,-1.552,-1.5385,-1.5043,-1.5801,-1.6105,-1.602,-1.5447,-1.3793,-1.222,-1.176,-0.9995,-0.855,-0.8599,-0.8607,-0.8607,-0.8607,-0.8607,-0.8607,-0.8607,-0.8607,-0.8429,-0.8071,-0.7982,-0.762,-0.6637,-0.6994,-0.6815,-0.601,-0.5741,-0.5293,-0.4487,-0.5293,-0.5741,-0.5741,-0.4756,-0.4307,-0.4307,-0.3323,-0.2874,-0.2874,-0.2874,-0.2874,-0.2874,-0.2874,-0.2874,-0.2874,-0.2874,-0.2874,-0.2874,-0.2874,-0.2874,-0.2874,-0.2874,-0.2874,-0.2874,0.0,0.0,0.0,0.0,0.0,0.0,0.0,0.0,0.0,0.0,-1.7001,-1.7001,-1.7001,-1.6829,0.0,0.0,0.0,0.0,0.0,0.0,-1.7001,-1.7001,-1.7001,-1.7001,-1.7001,-1.7001,-1.7001,-1.7001,-1.7001,-1.7001,-1.7001,-1.7001,-1.7001,-1.7001,-1.7001,-1.7076,-1.7256,-1.7559,-1.7727,-1.7765,-1.7428,-1.7168,-1.6885,0.0,0.0,-1.4776,-1.4349,0.0,0.0,0.0,-1.4968,-1.4968,-1.4968,-1.4968,-1.4968,-1.4992,-1.5114,-1.5285,-1.5496,-1.5658,-1.5821,-1.5999,-1.5966,-1.5966,-1.5793,-1.5846,-1.5638,-1.4224,-1.3086,-1.1963,-1.0765,-0.9437,-0.8607,-0.8607,0.0,-0.8607,-0.8607,-0.8607,-0.8607,-0.8607,-0.8518,-0.8071,-0.7263,-0.7084,-0.6547,-0.5562,-0.6279,-0.6099,-0.4397,-0.4935,-0.4576,-0.2964,-0.4487,-0.5293,-0.5293,-0.4487,-0.4128,-0.4128,-0.3323,-0.2874,-0.2874,-0.2874,-0.2874,-0.2874,-0.2874,-0.2874,-0.2874,-0.2874,-0.2874,-0.2874,-0.2874,-0.2874,-0.2874,-0.2874,-0.2874,-0.2874,0.0,0.0,0.0,0.0,0.0,0.0,0.0,0.0,0.0,0.0,-1.7001,-1.7001,0.0,0.0,0.0,0.0,0.0,0.0,0.0,0.0,0.0,-1.7001,-1.7001,-1.7001,-1.7001,-1.7001,-1.7001,-1.7001,-1.7001,-1.7001,-1.7001,-1.7001,-1.7001,-1.7001,-1.7001,-1.675,-1.6461,-1.7347,-1.7103,-1.6292,-1.7007,-1.6523,-1.5381,-1.5097,0.0,0.0,0.0,0.0,0.0,0.0,-1.4968,-1.4968,-1.4968,-1.4968,-1.4992,-1.5147,-1.5212,-1.5309,-1.5642,-1.5748,-1.5821,-1.5999,-1.5966,-1.5711,-1.4631,-1.4423,0.0,-1.3081,-1.1773,-1.0858,-1.0687,-0.9571,-0.8607,-0.8607,-0.8607,-0.8607,-0.8607,-0.8607,-0.8607,0.0,-0.7892,-0.7352,-0.7173,-0.6458,-0.5562,-0.4576,-0.4666,-0.4666,-0.4307,-0.368,-0.3233,-0.2874,-0.3233,-0.3412,-0.3412,-0.3233,-0.3143,-0.3143,-0.2964,-0.2874,-0.2874,-0.2874,-0.2874,-0.2874,-0.2874,-0.2874,-0.2874,-0.2874,-0.2874,-0.2874,-0.2874,-0.2874,-0.2874,-0.2874,-0.2874,-0.2874,0.0,0.0,0.0,0.0,0.0,0.0,0.0,-1.7001,-1.7001,-1.7001,-1.7001,-1.7001,-1.7001,-1.7001,-1.7001,0.0,0.0,0.0,0.0,0.0,0.0,0.0,0.0,0.0,-1.7001,-1.7001,-1.7001,-1.7001,0.0,-1.7001,-1.7001,-1.7001,-1.7001,-1.7012,-1.7141,-1.7126,-1.6959,-1.7188,-1.7003,-1.6518,-1.6202,-1.5673,0.0,0.0,0.0,0.0,0.0,0.0,0.0,0.0,-1.4968,-1.4968,-1.4968,-1.5033,-1.5122,-1.5212,-1.5374,-1.5553,-1.5723,-1.5845,-1.5934,-1.5942,-1.5966,-1.5652,-1.4401,0.0,0.0,-1.1842,-1.1013,-1.0406,-0.9749,-0.9049,-0.8607,-0.8607,-0.8607,-0.8607,-0.8607,-0.8607,-0.8429,-0.7892,-0.7442,-0.6815,-0.5831,-0.5293,-0.4576,-0.3682,-0.3592,-0.3592,-0.3592,-0.3143,-0.2874,-0.2874,-0.2874,-0.2874,-0.2874,-0.2874,-0.2874,-0.2874,-0.2874,-0.2874,-0.2874,-0.2874,-0.2874,-0.2874,-0.2874,-0.2874,-0.2874,-0.2874,-0.2874,-0.2874,-0.2874,-0.2874,-0.2874,-0.2874,-0.2874,-0.2874,0.0,0.0,0.0,0.0,0.0,0.0,-1.7001,-1.7001,-1.7001,-1.7001,-1.7001,-1.7001,-1.7001,-1.7001,-1.7001,0.0,0.0,0.0,0.0,0.0,0.0,0.0,0.0,0.0,0.0,0.0,0.0,-1.7001,-1.7001,0.0,0.0,0.0,0.0,0.0,-1.7292,-1.7329,-1.7256,-1.7021,-1.6738,0.0,0.0,-1.4884,0.0,0.0,0.0,0.0,0.0,0.0,0.0,0.0,-1.4968,-1.4968,-1.5009,-1.5122,-1.5244,-1.5285,-1.552,-1.578,-1.5821,-1.5934,-1.5966,-1.5966,-1.5966,-1.5593,-1.4084,-1.3892,0.0,-1.0631,-1.0126,-0.9937,-0.8786,-0.8607,-0.8607,-0.8607,-0.8607,-0.8607,-0.8607,-0.8429,-0.8071,0.0,-0.6815,0.0,-0.4487,-0.4128,-0.368,-0.2964,-0.2874,-0.2874,-0.2874,-0.2874,-0.2874,-0.2874,-0.2874,-0.2874,-0.2874,-0.2874,-0.2874,-0.2874,-0.2874,-0.2874,-0.2874,-0.2874,-0.2874,-0.2874,-0.2874,-0.2874,-0.2874,-0.2874,-0.2874,-0.2874,-0.2874,-0.2874,-0.2874,-0.2874,-0.2874,-0.2874,0.0,0.0,0.0,0.0,0.0,0.0,-1.7001,-1.7001,-1.7001,-1.7001,-1.7001,-1.7001,-1.7001,-1.7001,-1.7001,0.0,0.0,0.0,0.0,0.0,0.0,0.0,0.0,0.0,0.0,0.0,0.0,-1.7001,-1.7001,0.0,0.0,0.0,0.0,0.0,0.0,-1.6887,-1.6037,-1.6678,0.0,0.0,0.0,0.0,0.0,0.0,0.0,0.0,0.0,0.0,0.0,0.0,0.0,-1.4992,-1.5163,-1.5228,-1.5277,-1.5439,0.0,0.0,-1.5975,-1.595,-1.5966,-1.5966,-1.5966,-1.5345,-1.2901,0.0,-1.1813,-0.9237,-0.8719,-0.8786,-0.8607,-0.8607,-0.8607,-0.8607,-0.8607,-0.8607,-0.8607,-0.7892,-0.7263,-0.7173,0.0,0.0,-0.4307,-0.3502,-0.2964,-0.2874,-0.2874,-0.2874,-0.2874,-0.2874,-0.2874,-0.2874,-0.2874,-0.2874,-0.2874,-0.2874,-0.2874,-0.2874,-0.2874,-0.2874,-0.2874,-0.2874,-0.2874,-0.2874,-0.2874,-0.2874,-0.2874,-0.2874,-0.2874,-0.2874,-0.2874,-0.2874,-0.2874,-0.2874,-0.2874,-0.2874,0.0,0.0,0.0,0.0,0.0,0.0,-1.7001,-1.7001,-1.7001,-1.7001,-1.7001,-1.7001,-1.7001,-1.7001,-1.7001,-1.7001,-1.7001,0.0,0.0,0.0,0.0,0.0,0.0,0.0,0.0,0.0,-1.7001,-1.7001,-1.7001,0.0,0.0,0.0,0.0,0.0,0.0,-1.6468,-1.5788,-1.577,0.0,0.0,0.0,0.0,0.0,0.0,0.0,0.0,0.0,0.0,-1.4968,0.0,0.0,0.0,-1.4266,-1.475,0.0,0.0,-1.5796,-1.5951,-1.6024,-1.5966,-1.5966,-1.5966,-1.6121,-1.5492,-1.286,-1.2398,-1.1749,-0.9061,-0.8583,-0.8607,-0.8607,-0.8607,-0.8607,-0.8607,-0.8607,0.0,-0.8607,-0.825,-0.762,-0.6458,-0.5652,-0.4666,0.0,-0.3143,-0.2874,-0.2874,-0.2874,-0.2874,-0.2874,-0.2874,-0.2874,-0.2874,-0.2874,-0.2874,-0.2874,-0.2874,-0.2874,-0.2874,-0.2874,-0.2874,-0.2874,-0.2874,-0.2874,-0.2874,-0.2874,-0.2874,-0.2874,-0.2874,-0.2874,-0.2874,-0.2874,-0.2874,-0.2874,-0.2874,-0.2874,-0.2874,0.0,0.0,0.0,0.0,0.0,-1.7001,-1.7001,-1.7001,-1.7001,-1.7001,-1.7001,-1.7001,-1.7001,-1.7001,-1.7001,-1.7001,-1.7001,0.0,0.0,0.0,0.0,0.0,0.0,0.0,0.0,0.0,-1.7001,-1.7001,-1.7001,-1.6872,0.0,0.0,-1.6515,-1.6017,0.0,0.0,0.0,0.0,0.0,0.0,0.0,0.0,0.0,0.0,0.0,0.0,0.0,0.0,0.0,0.0,0.0,0.0,0.0,0.0,0.0,0.0,-1.5567,-1.5966,-1.5966,-1.5966,-1.5974,-1.6113,-1.5878,-1.5095,-1.2908,-1.2154,-1.1297,-0.9032,-0.8607,-0.8607,-0.8607,-0.8607,-0.8607,-0.8607,-0.8607,-0.8607,-0.8607,-0.8339,-0.7531,-0.592,0.0,-0.4666,-0.3053,-0.2874,-0.2874,-0.2874,-0.2874,-0.2874,-0.2874,-0.2874,-0.2874,-0.2874,-0.2874,-0.2874,-0.2874,-0.2874,-0.2874,-0.2874,-0.2874,-0.2874,-0.2874,-0.2874,-0.2874,-0.2874,-0.2874,-0.2874,-0.2874,-0.2874,-0.2874,-0.2874,-0.2874,-0.2874,-0.2874,-0.2874,-0.2874,-0.2874,0.0,0.0,0.0,0.0,0.0,-1.7001,-1.7001,-1.7001,-1.7001,-1.7001,-1.7001,-1.7001,-1.7001,-1.7001,-1.7001,-1.7001,-1.7001,0.0,0.0,0.0,0.0,0.0,0.0,0.0,-1.7001,-1.7001,-1.7001,-1.7001,-1.7001,-1.6678,-1.6039,-1.614,-1.596,-1.5496,0.0,0.0,0.0,0.0,0.0,0.0,0.0,0.0,0.0,0.0,0.0,0.0,0.0,0.0,0.0,0.0,0.0,0.0,0.0,-1.5634,-1.5529,0.0,-1.4832,-1.5966,-1.5966,-1.5966,-1.6089,-1.6259,-1.5211,-1.3942,-1.2854,-1.1527,-1.0166,-0.8854,-0.8607,-0.8607,-0.8607,-0.8607,-0.8607,-0.8607,-0.8607,0.0,-0.8607,-0.7803,-0.6815,0.0,-0.4845,-0.3951,-0.2964,-0.2874,-0.2874,-0.2874,-0.2874,-0.2874,-0.2874,-0.2874,-0.2874,-0.2874,-0.2874,-0.2874,-0.2874,-0.2874,-0.2874,-0.2874,-0.2874,-0.2874,-0.2874,-0.2874,-0.2874,-0.2874,-0.2874,-0.2874,-0.2874,-0.2874,-0.2874,-0.2874,-0.2874,-0.2874,-0.2874,-0.2874,-0.2874,-0.2874,0.0,0.0,0.0,0.0,0.0,0.0,-1.7001,-1.7001,-1.7001,-1.7001,-1.7001,-1.7001,-1.7001,-1.7001,-1.7001,-1.7001,-1.7001,0.0,0.0,0.0,0.0,0.0,0.0,0.0,-1.7001,-1.7001,-1.7001,-1.7001,-1.6548,-1.6241,-1.614,-1.5737,-1.5287,-1.4943,-1.4996,-1.478,0.0,0.0,0.0,0.0,0.0,0.0,0.0,0.0,0.0,0.0,0.0,0.0,0.0,0.0,0.0,0.0,0.0,0.0,0.0,-1.4303,-1.4923,-1.599,-1.6186,-1.5469,-1.4838,-1.4994,-1.4087,-1.2811,-1.1423,-1.089,-1.0249,-0.8867,-0.8607,-0.8607,-0.8607,-0.8607,-0.8607,-0.8607,-0.8607,-0.8607,0.0,0.0,0.0,-0.5831,-0.4307,-0.3233,-0.2964,-0.2874,-0.2874,-0.2874,-0.2874,-0.2874,-0.2874,-0.2874,-0.2874,-0.2874,-0.2874,-0.2874,-0.2874,-0.2874,-0.2874,-0.2874,-0.2874,-0.2874,-0.2874,-0.2874,-0.2874,-0.2874,-0.2874,-0.2874,-0.2874,-0.2874,-0.2874,-0.2874,-0.2874,-0.2874,-0.2874,-0.2874,-0.2874,-0.2874,0.0,0.0,0.0,0.0,0.0,0.0,-1.7001,-1.7001,-1.7001,-1.7001,-1.7001,-1.7001,-1.7001,-1.7001,-1.7001,-1.7001,-1.7001,0.0,0.0,0.0,0.0,0.0,0.0,0.0,-1.7001,-1.7001,-1.6872,-1.6613,-1.6251,-1.5837,-1.5376,-1.5125,-1.4722,-1.4265,-1.4333,-1.4223,0.0,0.0,0.0,0.0,0.0,0.0,-1.4456,0.0,0.0,0.0,0.0,0.0,0.0,0.0,0.0,0.0,0.0,0.0,0.0,0.0,-1.542,-1.5996,-1.5607,-1.4875,-1.4168,-1.3858,-1.2768,-1.1625,-1.0796,-1.0244,-0.9669,-0.8786,-0.8607,-0.8607,-0.8607,-0.8607,-0.8607,-0.8607,-0.8607,-0.8518,-0.816,-0.7531,-0.6726,-0.5293,-0.3859,-0.2874,-0.2874,-0.2874,-0.2874,-0.2874,-0.2874,-0.2874,-0.2874,-0.2874,-0.2874,-0.2874,-0.2874,-0.2874,-0.2874,-0.2874,-0.2874,-0.2874,-0.2874,-0.2874,-0.2874,-0.2874,-0.2874,-0.2874,-0.2874,-0.2874,0.0,-0.2874,-0.2874,-0.2874,-0.2874,-0.2874,-0.2874,-0.2874,-0.2874,-0.2874,0.0,0.0,0.0,0.0,0.0,0.0,0.0,-1.7001,-1.7001,-1.7001,-1.7001,-1.7001,-1.7001,-1.7001,-1.7001,-1.7001,-1.7001,0.0,0.0,0.0,0.0,0.0,0.0,-1.7001,-1.7001,-1.6936,-1.6623,-1.5994,-1.6008,-1.5395,-1.415,-1.4449,-1.4274,-1.3598,-1.3831,-1.3904,-1.3904,-1.3904,-1.3912,-1.3937,-1.4123,-1.4302,0.0,0.0,0.0,0.0,0.0,0.0,0.0,0.0,0.0,0.0,0.0,0.0,0.0,0.0,0.0,0.0,0.0,-1.414,-1.3793,-1.278,-1.145,-1.0434,-1.053,-0.958,0.0,-0.8607,-0.8607,-0.8607,-0.8607,-0.8607,-0.8607,-0.8607,-0.8607,-0.825,-0.7352,-0.7084,-0.6279,-0.4397,-0.3412,-0.2874,-0.2874,-0.2874,-0.2874,-0.2874,-0.2874,-0.2874,-0.2874,-0.2874,-0.2874,-0.2874,-0.2874,-0.2874,-0.2874,-0.2874,-0.2874,-0.2874,-0.2874,-0.2874,-0.2874,-0.2874,-0.2874,-0.2874,-0.2874,-0.2874,-0.2874,-0.2874,-0.2874,-0.2874,-0.2874,-0.2874,-0.2874,-0.2874,-0.2874,-0.2874,0.0,0.0,0.0,0.0,0.0,0.0,0.0,0.0,0.0,0.0,-1.7001,-1.7001,-1.7001,-1.7001,-1.7001,0.0,0.0,0.0,0.0,0.0,0.0,0.0,-1.7001,-1.7001,-1.7001,-1.6483,-1.6186,-1.6161,-1.5081,-1.4594,-1.4544,-1.4083,-1.385,-1.3847,-1.3888,-1.3904,-1.3904,-1.3904,-1.3985,-1.4131,-1.4302,-1.4481,0.0,0.0,0.0,0.0,-1.4968,-1.5057,0.0,0.0,0.0,0.0,0.0,0.0,0.0,0.0,-1.617,-1.5997,-1.4769,0.0,-1.2687,-1.1445,-1.0076,-0.9024,0.0,-0.8875,-0.8607,-0.8607,-0.8607,-0.8607,-0.8607,-0.8607,-0.8607,-0.8607,-0.8607,-0.825,-0.7352,-0.592,-0.4576,-0.3412,-0.3053,-0.2874,-0.2874,-0.2874,-0.2874,-0.2874,-0.2874,-0.2874,-0.2874,-0.2874,-0.2874,-0.2874,-0.2874,-0.2874,-0.2874,-0.2874,-0.2874,-0.2874,-0.2874,-0.2874,-0.2874,-0.2874,-0.2874,-0.2874,-0.2874,-0.2874,-0.2874,-0.2874,-0.2874,-0.2874,-0.2874,-0.2874,-0.2874,-0.2874,-0.2874,-0.2874,0.0,0.0,0.0,0.0,0.0,0.0,0.0,0.0,0.0,0.0,-1.7001,-1.7001,-1.7001,-1.7001,-1.7001,0.0,0.0,0.0,0.0,0.0,0.0,-1.7001,-1.7001,-1.686,-1.664,-1.6257,-1.584,-1.5375,-1.4733,-1.4336,-1.4195,-1.3866,-1.3815,-1.3904,-1.3904,-1.3904,-1.3904,-1.3993,-1.4083,-1.4205,-1.4456,0.0,0.0,0.0,0.0,0.0,-1.4968,-1.5082,0.0,-1.5455,-1.5626,-1.5804,0.0,0.0,0.0,0.0,-1.6292,-1.6124,-1.4922,-1.3641,-1.2249,-1.1057,-0.9669,-0.8607,-0.8607,-0.8607,-0.8607,-0.8607,-0.8607,-0.8607,-0.8607,-0.8607,-0.8607,-0.8607,-0.825,-0.7442,-0.6099,-0.4576,-0.3502,-0.2964,-0.2874,-0.2874,-0.2874,-0.2874,-0.2874,-0.2874,-0.2874,-0.2874,-0.2874,-0.2874,-0.2874,-0.2874,-0.2874,-0.2874,-0.2874,-0.2874,-0.2874,-0.2874,-0.2874,-0.2874,-0.2874,-0.2874,-0.2874,-0.2874,-0.2874,-0.2874,-0.2874,-0.2874,-0.2874,-0.2874,-0.2874,-0.2874,-0.2874,-0.2874,-0.2874,-0.2874,0.0,0.0,0.0,0.0,0.0,0.0,0.0,0.0,0.0,0.0,0.0,0.0,0.0,0.0,0.0,0.0,0.0,0.0,0.0,0.0,-1.686,-1.686,-1.686,-1.6695,-1.6241,-1.6005,-1.5452,-1.443,-1.4527,-1.4212,-1.3615,-1.3831,-1.3904,-1.3904,-1.3904,-1.3912,-1.3953,-1.4115,-1.4213,-1.4286,-1.4586,0.0,0.0,0.0,0.0,0.0,0.0,0.0,0.0,-1.5496,-1.5666,-1.5845,-1.5999,0.0,0.0,0.0,0.0,0.0,-1.532,-1.3981,-1.2623,-1.1062,-0.9669,-0.8607,-0.8607,-0.8607,-0.8607,-0.8607,-0.8607,-0.8607,-0.8607,-0.8607,-0.8607,-0.8607,-0.771,-0.6368,-0.4576,-0.3502,-0.2874,-0.2874,-0.2874,-0.2874,-0.2874,-0.2874,-0.2874,-0.2874,-0.2874,-0.2874,-0.2874,-0.2874,-0.2874,-0.2874,-0.2874,-0.2874,-0.2874,-0.2874,-0.2874,-0.2874,-0.2874,-0.2874,-0.2874,-0.2874,-0.2874,-0.2874,-0.2874,-0.2874,-0.2874,-0.2874,-0.2874,-0.2874,-0.2874,-0.2874,-0.2874,-0.2874,-0.2874,-0.2874,0.0,0.0,0.0,0.0,0.0,0.0,0.0,0.0,0.0,0.0,0.0,0.0,0.0,0.0,0.0,0.0,0.0,0.0,0.0,-1.654,-1.6323,-1.6323,-1.6323,-1.6277,-1.6175,-1.5201,-1.4645,-1.4631,-1.4047,-1.3788,-1.3863,-1.3888,-1.3904,-1.3904,-1.3904,-1.3985,-1.414,-1.4164,-1.4351,-1.4635,-1.4684,0.0,0.0,0.0,0.0,0.0,0.0,0.0,0.0,-1.5675,-1.5853,-1.6008,-1.5958,0.0,0.0,0.0,0.0,0.0,-1.6545,-1.5548,-1.3973,-1.1344,-0.9669,-0.8607,-0.8607,-0.8607,-0.8607,-0.8607,-0.8607,-0.8607,-0.8607,-0.8607,-0.8607,-0.8607,-0.7084,-0.5562,-0.4487,-0.3502,-0.2874,-0.2874,-0.2874,-0.2874,-0.2874,-0.2874,-0.2874,-0.2874,-0.2874,-0.2874,-0.2874,-0.2874,-0.2874,-0.2874,-0.2874,-0.2874,-0.2874,-0.2874,-0.2874,-0.2874,-0.2874,-0.2874,-0.2874,-0.2874,-0.2874,-0.2874,-0.2874,-0.2874,-0.2874,-0.2874,-0.2874,-0.2874,-0.2874,-0.2874,-0.2874,-0.2874,-0.2874,-0.2874,0.0,0.0,0.0,0.0,0.0,0.0,0.0,0.0,0.0,0.0,0.0,0.0,0.0,0.0,0.0,0.0,0.0,0.0,-1.6605,-1.6323,-1.6092,-1.5808,-1.5517,-1.5369,-1.5369,-1.4844,-1.4501,-1.4269,-1.3924,-1.3823,-1.3904,-1.3904,-1.3953,-1.405,-1.405,-1.4148,-1.4318,-1.4424,-1.4562,-1.4716,0.0,0.0,0.0,0.0,0.0,0.0,0.0,0.0,0.0,0.0,-1.5894,-1.5966,-1.5966,0.0,0.0,0.0,0.0,0.0,-1.6917,-1.5988,-1.4536,-1.2414,-1.0822,-0.9491,-0.8786,-0.8607,-0.8607,-0.8607,-0.8607,-0.8607,-0.8607,-0.816,-0.7531,-0.6458,-0.5562,-0.4576,-0.368,-0.3143,-0.2874,-0.2874,-0.2874,-0.2874,-0.2874,-0.2874,-0.2874,-0.2874,-0.2874,-0.2874,-0.2874,-0.2874,-0.2874,-0.2874,-0.2874,-0.2874,-0.2874,-0.2874,-0.2874,-0.2874,-0.2874,-0.2874,-0.2874,-0.2874,-0.2874,-0.2874,-0.2874,-0.2874,-0.2874,-0.2874,-0.2874,-0.2874,-0.2874,-0.2874,-0.2874,-0.2874,-0.2874,-0.2874,0.0,0.0,0.0,0.0,0.0,0.0,0.0,0.0,0.0,0.0,0.0,0.0,0.0,0.0,0.0,0.0,0.0,-1.664,-1.6231,-1.6008,-1.5663,-1.5347,-1.4779,-1.4588,-1.4684,-1.4588,-1.4331,-1.3904,-1.3904,-1.3904,-1.3904,-1.3945,-1.4042,-1.418,-1.4221,-1.4335,-1.4505,-1.4651,-1.4732,-1.4781,0.0,0.0,0.0,0.0,0.0,0.0,0.0,0.0,0.0,0.0,0.0,0.0,0.0,0.0,0.0,-1.6479,-1.6584,-1.6572,-1.657,-1.5866,-1.4625,-1.2857,-1.1527,-1.0288,-0.8964,-0.8607,-0.8607,-0.8607,-0.8607,-0.8607,-0.8607,-0.7799,-0.6637,-0.4935,-0.4487,-0.3949,-0.3053,-0.2874,-0.2874,-0.2874,-0.2874,-0.2874,-0.2874,-0.2874,-0.2874,-0.2874,-0.2874,-0.2874,-0.2874,-0.2874,-0.2874,-0.2874,-0.2874,-0.2874,-0.2874,-0.2874,-0.2874,-0.2874,-0.2874,-0.2874,-0.2874,-0.2874,-0.2874,-0.2874,-0.2874,-0.2874,-0.2874,-0.2874,-0.2874,-0.2874,-0.2874,-0.2874,-0.2874,-0.2874,-0.2874,-0.2874,0.0,0.0,0.0,0.0,0.0,0.0,0.0,0.0,0.0,0.0,0.0,0.0,0.0,0.0,0.0,0.0,-1.655,-1.6231,-1.6175,-1.5329,-1.4788,-1.4727,-1.4206,-1.4161,-1.4684,-1.4223,-1.3959,-1.3904,-1.3904,-1.3904,-1.3904,-1.4075,-1.4164,-1.4188,-1.4343,-1.4513,-1.4692,-1.47,-1.4797,-1.4952,-1.496,0.0,0.0,0.0,0.0,0.0,0.0,0.0,0.0,0.0,0.0,0.0,0.0,0.0,-1.6113,-1.6479,-1.6584,-1.6401,-1.5418,-1.5066,-1.436,-1.1527,-1.0816,-1.0288,-0.8964,-0.8607,-0.8607,-0.8607,-0.8607,-0.8607,-0.8607,-0.7799,-0.6815,-0.5741,-0.4845,-0.3949,-0.3053,-0.2874,-0.2874,-0.2874,-0.2874,-0.2874,-0.2874,-0.2874,-0.2874,-0.2874,-0.2874,-0.2874,-0.2874,-0.2874,-0.2874,-0.2874,-0.2874,-0.2874,-0.2874,-0.2874,-0.2874,-0.2874,-0.2874,-0.2874,-0.2874,-0.2874,-0.2874,-0.2874,-0.2874,-0.2874,-0.2874,-0.2874,-0.2874,-0.2874,-0.2874,-0.2874,-0.2874,-0.2874,-0.2874,-0.2874,0.0,0.0,0.0,0.0,0.0,0.0,0.0,0.0,0.0,0.0,0.0,-1.6807,-1.6418,0.0,0.0,0.0,-1.6058,-1.596,-1.5338,-1.4874,-1.4526,-1.4223,-1.4006,-1.4014,-1.4223,-1.4006,-1.3904,-1.3904,-1.4018,-1.4075,-1.4075,-1.4253,-1.4399,-1.4513,-1.4578,-1.47,-1.4871,-1.4871,-1.4903,-1.4968,-1.4968,-1.4968,0.0,0.0,0.0,0.0,0.0,0.0,0.0,0.0,-1.5966,-1.5966,-1.5966,-1.5966,-1.6113,-1.6479,-1.6584,-1.6572,-1.6395,-1.569,-1.4536,-1.2591,-1.1349,-1.0288,-0.8964,-0.8607,-0.8607,-0.8607,-0.816,-0.7531,-0.6905,-0.601,-0.5293,-0.4935,-0.4038,-0.3323,-0.2964,-0.2874,-0.2874,-0.2874,-0.2874,-0.2874,-0.2874,-0.2874,-0.2874,-0.2874,-0.2874,-0.2874,-0.2874,-0.2874,-0.2874,-0.2874,-0.2874,-0.2874,-0.2874,-0.2874,-0.2874,-0.2874,-0.2874,-0.2874,-0.2874,-0.2874,-0.2874,-0.2874,-0.2874,-0.2874,-0.2874,-0.2874,-0.2874,-0.2874,-0.2874,-0.2874,-0.2874,-0.2874,-0.2874,-0.2874,0.0,0.0,0.0,0.0,0.0,0.0,0.0,0.0,-1.7001,0.0,0.0,0.0,0.0,-1.6556,0.0,0.0,-1.5625,-1.5419,-1.4736,-1.4526,-1.4269,-1.3896,-1.3904,-1.3904,-1.3904,-1.3961,-1.3985,-1.3985,-1.4172,-1.4261,-1.4261,-1.444,-1.4586,-1.4708,-1.4765,-1.4854,-1.4968,-1.4968,-1.5,-1.5049,-1.5049,-1.509,0.0,0.0,0.0,0.0,0.0,0.0,0.0,0.0,-1.5966,-1.5966,-1.5966,-1.5966,-1.6113,-1.6479,-1.6584,-1.6572,-1.6482,-1.569,-1.4536,-1.268,-1.1438,-1.0288,-0.8514,-0.816,-0.816,-0.816,-0.7624,-0.6905,-0.592,-0.5204,-0.4666,-0.4307,-0.3502,-0.2874,-0.2874,-0.2874,-0.2874,-0.2874,-0.2874,-0.2874,-0.2874,-0.2874,-0.2874,-0.2874,-0.2874,-0.2874,-0.2874,-0.2874,-0.2874,-0.2874,-0.2874,-0.2874,-0.2874,-0.2874,-0.2874,-0.2874,-0.2874,-0.2874,-0.2874,-0.2874,-0.2874,-0.2874,-0.2874,-0.2874,-0.2874,-0.2874,-0.2874,-0.2874,-0.2874,-0.2874,-0.2874,-0.2874,-0.2874,-0.2874,0.0,0.0,0.0,0.0,0.0,0.0,0.0,0.0,-1.7001,-1.7001,-1.7001,0.0,0.0,0.0,0.0,0.0,-1.5279,-1.4684,-1.4684,-1.4223,-1.3904,-1.3904,-1.3904,-1.3904,-1.3904,-1.4083,-1.418,-1.418,-1.4351,-1.4432,-1.444,-1.4627,-1.4708,-1.4716,-1.4887,-1.4968,-1.4968,-1.4968,-1.5074,-1.5236,-1.5166,-1.535,-1.5512,0.0,0.0,0.0,0.0,0.0,0.0,0.0,-1.5966,-1.5966,-1.5966,-1.5966,-1.6121,-1.6479,-1.6584,-1.6401,-1.533,-1.4977,-1.4272,-1.1438,-1.0728,-1.0021,-0.7706,-0.7173,-0.7173,-0.7173,-0.7173,-0.6905,-0.5831,-0.5652,-0.5383,-0.4487,-0.3502,-0.2874,-0.2874,-0.2874,-0.2874,-0.2874,-0.2874,-0.2874,-0.2874,-0.2874,-0.2874,-0.2874,-0.2874,-0.2874,-0.2874,-0.2874,-0.2874,-0.2874,-0.2874,-0.2874,-0.2874,-0.2874,-0.2874,-0.2874,-0.2874,-0.2874,-0.2874,-0.2874,-0.2874,-0.2874,-0.2874,-0.2874,-0.2874,-0.2874,-0.2874,-0.2874,-0.2874,-0.2874,-0.2874,-0.2874,-0.2874,-0.2874,0.0,0.0,0.0,0.0,0.0,0.0,0.0,0.0,-1.6299,-1.6299,-1.5834,0.0,0.0,0.0,0.0,0.0,0.0,0.0,-1.4169,-1.4014,-1.3904,-1.3904,-1.4026,-1.4099,-1.4099,-1.4391,-1.4489,-1.4359,-1.4538,-1.4627,-1.4627,-1.4806,-1.4887,-1.4887,-1.4944,-1.4968,-1.4976,-1.5106,-1.5187,-1.5174,-1.5382,-1.5463,-1.5528,0.0,0.0,0.0,0.0,0.0,0.0,0.0,0.0,0.0,-1.5966,-1.6129,-1.6276,-1.6511,-1.6674,-1.6733,-1.6514,-1.5073,-1.3299,-1.2414,-1.0199,-0.8063,-0.7352,-0.771,-0.7803,-0.6458,-0.5652,-0.5025,-0.4756,-0.4218,-0.3859,-0.4218,-0.3502,-0.2874,-0.2874,-0.2874,-0.2874,-0.2874,-0.2874,-0.2874,-0.2874,-0.2874,-0.2874,-0.2874,-0.2874,-0.2874,-0.2874,-0.2874,-0.2874,-0.2874,-0.2874,-0.2874,-0.2874,-0.2874,-0.2874,-0.2874,-0.2874,-0.2874,-0.2874,-0.2874,-0.2874,-0.2874,-0.2874,-0.2874,-0.2874,-0.2874,-0.2874,-0.2874,-0.2874,-0.2874,-0.2874,-0.2874,-0.2874,-0.2874,0.0,0.0,0.0,0.0,0.0,0.0,-1.7001,-1.6418,-1.5974,-1.5974,-1.5456,-1.4903,0.0,0.0,0.0,0.0,0.0,0.0,-1.3896,-1.3969,-1.401,-1.401,-1.418,-1.431,-1.4391,-1.4594,-1.4684,-1.4643,-1.4757,-1.4814,-1.4814,-1.4919,-1.4968,-1.4968,-1.5041,-1.5074,-1.5082,-1.5268,-1.539,-1.5463,-1.5577,-1.5658,-1.574,0.0,0.0,0.0,0.0,0.0,0.0,0.0,0.0,0.0,-1.6129,-1.6219,-1.6357,-1.6617,-1.6771,-1.6711,-1.6354,-1.5073,-1.3476,-1.2325,-1.0016,-0.7795,-0.6815,-0.6726,-0.6458,-0.4935,-0.4397,-0.4218,-0.3769,-0.3592,-0.3502,-0.368,-0.3233,-0.2874,-0.2874,-0.2874,-0.2874,-0.2874,-0.2874,-0.2874,-0.2874,-0.2874,-0.2874,-0.2874,-0.2874,-0.2874,-0.2874,-0.2874,-0.2874,-0.2874,-0.2874,-0.2874,-0.2874,-0.2874,-0.2874,-0.2874,-0.2874,-0.2874,-0.2874,-0.2874,-0.2874,-0.2874,-0.2874,-0.2874,-0.2874,-0.2874,-0.2874,-0.2874,-0.2874,-0.2874,-0.2874,-0.2874,-0.2874,-0.2874,0.0,0.0,-1.7001,-1.7001,0.0,0.0,-1.6936,-1.6289,-1.5779,-1.5799,-1.5385,-1.5043,0.0,0.0,0.0,-1.4632,-1.4161,-1.3904,-1.3928,-1.4083,-1.4188,-1.4205,-1.4367,-1.4546,-1.4724,-1.4732,-1.4806,-1.4968,-1.4968,-1.4968,-1.4968,-1.4968,-1.4976,-1.5,-1.5163,-1.5244,-1.5277,-1.5463,-1.5626,-1.5772,-1.5788,-1.5894,-1.5966,-1.5966,0.0,0.0,0.0,0.0,0.0,0.0,0.0,0.0,-1.6276,-1.6341,-1.6422,-1.6669,-1.6687,-1.6388,-1.5293,-1.4801,-1.4,-1.1261,-0.9744,-0.823,-0.6007,-0.4756,-0.3949,-0.3143,-0.3682,-0.3949,-0.3053,-0.3592,-0.3859,-0.3053,-0.2874,-0.2874,-0.2874,-0.2874,-0.2874,-0.2874,-0.2874,-0.2874,-0.2874,-0.2874,-0.2874,-0.2874,-0.2874,-0.2874,-0.2874,-0.2874,-0.2874,-0.2874,-0.2874,-0.2874,-0.2874,-0.2874,-0.2874,-0.2874,-0.2874,-0.2874,-0.2874,-0.2874,-0.2874,-0.2874,-0.2874,-0.2874,-0.2874,-0.2874,-0.2874,-0.2874,-0.2874,-0.2874,-0.2874,-0.2874,-0.2874,-0.2874,0.0,0.0,-1.7001,-1.7001,0.0,0.0,-1.6234,-1.5117,-1.4397,-1.4485,-1.3938,-1.3671,-1.3905,-1.3874,0.0,-1.4044,-1.3951,-1.3961,-1.4107,-1.4156,-1.4237,-1.4367,-1.4554,-1.4732,-1.4903,-1.4911,-1.4927,-1.4968,-1.4968,-1.4968,-1.4968,-1.4968,-1.5041,-1.5179,-1.522,-1.5317,-1.5463,-1.5642,-1.574,-1.5788,-1.5926,-1.6008,-1.5966,-1.5966,-1.5966,0.0,0.0,0.0,0.0,0.0,0.0,0.0,-1.6462,-1.6617,-1.6747,-1.6741,-1.6158,-1.5286,-1.5058,-1.3382,-1.1261,-0.9922,-0.7431,-0.5022,-0.3769,-0.3323,-0.3323,-0.3859,-0.3592,-0.3143,-0.2964,-0.3053,-0.3143,-0.2964,-0.2874,-0.2874,-0.2874,-0.2874,-0.2874,-0.2874,-0.2874,-0.2874,-0.2874,-0.2874,-0.2874,-0.2874,-0.2874,-0.2874,-0.2874,-0.2874,-0.2874,-0.2874,-0.2874,-0.2874,-0.2874,-0.2874,-0.2874,-0.2874,-0.2874,-0.2874,-0.2874,-0.2874,-0.2874,-0.2874,-0.2874,-0.2874,-0.2874,-0.2874,-0.2874,-0.2874,-0.2874,-0.2874,-0.2874,-0.2874,-0.2874,-0.2874,0.0,0.0,0.0,0.0,0.0,0.0,0.0,0.0,-1.4086,-1.4212,-1.3712,-1.3433,-1.355,-1.3717,0.0,0.0,-1.4034,-1.4107,-1.4286,-1.4383,-1.4513,-1.4676,-1.4781,-1.4871,-1.496,-1.4968,-1.4968,-1.4968,-1.4968,-1.4968,-1.4968,-1.5057,-1.5147,-1.5244,-1.5415,-1.5545,-1.565,-1.5829,-1.5902,-1.591,-1.6008,-1.5966,-1.5966,-1.5966,-1.5966,-1.5966,-1.5966,0.0,0.0,0.0,0.0,0.0,0.0,0.0,-1.6782,-1.695,-1.6506,-1.5594,-1.3735,-1.2137,-1.0367,-0.7606,-0.5557,-0.4038,-0.3143,-0.2874,-0.3053,-0.3502,-0.3233,-0.2874,-0.2874,-0.2874,-0.2874,-0.2874,-0.2874,-0.2874,-0.2874,-0.2874,-0.2874,-0.2874,-0.2874,-0.2874,-0.2874,-0.2874,-0.2874,-0.2874,-0.2874,-0.2874,-0.2874,-0.2874,-0.2874,-0.2874,-0.2874,-0.2874,-0.2874,-0.2874,-0.2874,-0.2874,-0.2874,-0.2874,-0.2874,-0.2874,-0.2874,-0.2874,-0.2874,-0.2874,-0.2874,-0.2874,-0.2874,-0.2874,-0.2874,-0.2874,-0.2874,-0.2874,-0.2874,-0.2874,0.0,0.0,0.0,0.0,0.0,0.0,0.0,0.0,0.0,-1.4276,-1.3894,-1.3582,-1.3685,-1.3847,-1.401,0.0,0.0,0.0,-1.4464,-1.4651,-1.4814,-1.496,-1.4968,-1.4968,-1.4968,-1.4968,-1.4968,-1.4968,-1.5,-1.5009,-1.5017,-1.5171,-1.5268,-1.5342,-1.5642,-1.5788,-1.5829,-1.5983,-1.5966,-1.5966,-1.5883,-1.5966,-1.5966,-1.5998,-1.6006,-1.6097,-1.6129,-1.6227,-1.6357,-1.6389,0.0,0.0,0.0,0.0,-1.6838,-1.7071,-1.6928,-1.6042,-1.2845,-1.1422,-0.9735,-0.5378,-0.4218,-0.3859,-0.3053,-0.2874,-0.2874,-0.2874,-0.2874,-0.2874,-0.2874,-0.2874,-0.2874,-0.2874,-0.2874,-0.2874,-0.2874,-0.2874,-0.2874,-0.2874,-0.2874,-0.2874,-0.2874,-0.2874,-0.2874,-0.2874,-0.2874,-0.2874,-0.2874,-0.2874,-0.2874,-0.2874,-0.2874,-0.2874,-0.2874,-0.2874,-0.2874,-0.2874,-0.2874,-0.2874,-0.2874,-0.2874,-0.2874,-0.2874,-0.2874,-0.2874,-0.2874,-0.2874,-0.2874,-0.2874,-0.2874,-0.2874,-0.2874,-0.2874,-0.2874,-0.2874,0.0,0.0,0.0,0.0,0.0,0.0,0.0,0.0,0.0,0.0,-1.3628,-1.3701,-1.3847,-1.4034,-1.4148,-1.418,-1.431,-1.4473,-1.4659,0.0,0.0,-1.4968,-1.4968,-1.4968,-1.4968,-1.4968,-1.4968,-1.4968,-1.5122,-1.5204,-1.5204,-1.5228,-1.5407,-1.5707,-1.5748,-1.5861,-1.6008,-1.595,-1.5966,-1.5966,-1.5628,-1.5711,-1.5982,-1.5802,-1.5941,-1.6292,-1.6454,-1.6527,-1.6568,-1.673,-1.6709,0.0,0.0,0.0,-1.708,-1.7104,-1.6217,-1.5154,-1.4625,-1.1511,-0.7691,-0.5022,-0.368,-0.3053,-0.2964,-0.2874,-0.2874,-0.2874,-0.2874,-0.2874,-0.2874,-0.2874,-0.2874,-0.2874,-0.2874,-0.2874,-0.2874,-0.2874,-0.2874,-0.2874,-0.2874,-0.2874,-0.2874,-0.2874,-0.2874,-0.2874,-0.2874,-0.2874,-0.2874,-0.2874,-0.2874,-0.2874,-0.2874,-0.2874,-0.2874,-0.2874,-0.2874,-0.2874,-0.2874,-0.2874,-0.2874,-0.2874,-0.2874,-0.2874,-0.2874,-0.2874,-0.2874,-0.2874,-0.2874,-0.2874,-0.2874,-0.2874,-0.2874,-0.2874,-0.2874,-0.2874,0.0,0.0,0.0,0.0,0.0,0.0,0.0,0.0,0.0,0.0,0.0,-1.3855,-1.4034,-1.4131,-1.4261,-1.4456,-1.4546,-1.4659,-1.4838,-1.4919,-1.4968,-1.4968,-1.4968,-1.4968,-1.4968,-1.5065,-1.5122,-1.5122,-1.5301,-1.5447,-1.5536,-1.5536,-1.5618,-1.578,-1.5878,-1.5967,-1.5966,-1.5793,-1.5628,-1.5636,-1.5233,-1.5218,-1.5329,-1.5677,-1.5892,-1.5997,-1.6172,-1.6299,-1.6309,-1.6388,-1.6475,-1.6657,-1.7,0.0,0.0,0.0,-1.6665,-1.5594,-1.2927,-0.9642,-0.6531,-0.4126,-0.3233,-0.2874,-0.2874,-0.2874,-0.2874,-0.2874,-0.2874,-0.2874,-0.2874,-0.2874,-0.2874,-0.2874,-0.2874,-0.2874,-0.2874,-0.2874,-0.2874,-0.2874,-0.2874,-0.2874,-0.2874,-0.2874,-0.2874,-0.2874,-0.2874,-0.2874,-0.2874,-0.2874,-0.2874,-0.2874,-0.2874,-0.2874,-0.2874,-0.2874,-0.2874,-0.2874,-0.2874,-0.2874,-0.2874,-0.2874,-0.2874,-0.2874,-0.2874,-0.2874,-0.2874,-0.2874,-0.2874,-0.2874,-0.2874,-0.2874,-0.2874,-0.2874,-0.2874,-0.2874,0.0,0.0,0.0,0.0,0.0,0.0,0.0,0.0,0.0,0.0,0.0,0.0,-1.4164,0.0,0.0,0.0,-1.4749,-1.483,-1.496,-1.4968,-1.4968,-1.4968,-1.5009,-1.5033,-1.5033,-1.5212,-1.5309,-1.5309,-1.5496,-1.565,-1.5772,-1.5821,-1.5845,-1.5845,-1.5983,-1.5966,-1.5801,-1.5546,-1.5322,-1.5202,-1.487,-1.471,-1.487,-1.537,-1.5585,-1.5624,-1.5794,-1.5932,-1.5961,-1.5961,-1.6212,-1.6489,-1.6841,-1.7024,0.0,0.0,0.0,-1.5594,-1.1239,-0.8397,-0.6174,-0.359,-0.2874,-0.2874,-0.2874,-0.2874,-0.2874,-0.2874,-0.2874,-0.2874,-0.2874,-0.2874,-0.2874,-0.2874,-0.2874,-0.2874,-0.2874,-0.2874,-0.2874,-0.2874,-0.2874,-0.2874,-0.2874,-0.2874,-0.2874,-0.2874,-0.2874,-0.2874,-0.2874,-0.2874,-0.2874,-0.2874,-0.2874,-0.2874,-0.2874,-0.2874,-0.2874,-0.2874,-0.2874,-0.2874,-0.2874,-0.2874,-0.2874,-0.2874,-0.2874,-0.2874,-0.2874,-0.2874,-0.2874,-0.2874,-0.2874,-0.2874,-0.2874,-0.2874,-0.2874,-0.2874,0.0,0.0,0.0,0.0,0.0,0.0,0.0,0.0,0.0,0.0,0.0,0.0,-1.418,-1.4481,-1.4692,-1.4708,-1.4854,-1.496,-1.4968,-1.4968,-1.4968,-1.4968,-1.513,0.0,-1.5228,-1.5407,-1.5504,-1.5504,-1.5675,-1.5764,-1.578,-1.5951,-1.595,-1.595,-1.5958,-1.5801,-1.5463,-1.5381,-1.5225,-1.4853,-1.4387,-1.4587,-1.5112,-1.4785,-1.4958,-1.5451,-1.5622,-1.5682,-1.5697,-1.5697,-1.6042,-1.6401,-1.6401,-1.6753,-1.7112,0.0,0.0,0.0,-1.0973,-0.893,-0.7067,-0.3768,-0.2874,-0.2874,-0.2874,-0.2874,-0.2874,-0.2874,-0.2874,-0.2874,-0.2874,-0.2874,-0.2874,-0.2874,-0.2874,-0.2874,-0.2874,-0.2874,-0.2874,-0.2874,-0.2874,-0.2874,-0.2874,-0.2874,-0.2874,-0.2874,-0.2874,-0.2874,-0.2874,-0.2874,-0.2874,-0.2874,-0.2874,-0.2874,-0.2874,-0.2874,-0.2874,-0.2874,-0.2874,-0.2874,-0.2874,-0.2874,-0.2874,-0.2874,-0.2874,-0.2874,-0.2874,-0.2874,-0.2874,-0.2874,-0.2874,-0.2874,-0.2874,-0.2874,-0.2874,-0.2874,0.0,0.0,0.0,0.0,0.0,0.0,0.0,0.0,0.0,0.0,0.0,0.0,0.0,-1.4635,-1.4757,-1.4862,-1.4927,-1.5017,-1.513,-1.5139,-1.5195,-1.5309,-1.5382,-1.5415,-1.5415,-1.5593,-1.5683,-1.5683,-1.5861,-1.5951,-1.5951,-1.6016,-1.5966,-1.5966,-1.5966,-1.5801,-1.5389,-1.5165,-1.4831,-1.4469,-1.4202,-1.418,-1.4379,-1.475,-1.4894,-1.5046,-1.5206,-1.5264,-1.5264,-1.5264,-1.5344,-1.5344,-1.4353,-1.4177,-1.4088,-1.2927,-1.2573,-1.1954,-0.8575,-0.7328,-0.6264,-0.359,-0.2874,-0.2874,-0.2874,-0.2874,-0.2874,-0.2874,-0.2874,-0.2874,-0.2874,-0.2874,-0.2874,-0.2874,-0.2874,-0.2874,-0.2874,-0.2874,-0.2874,-0.2874,-0.2874,-0.2874,-0.2874,-0.2874,-0.2874,-0.2874,-0.2874,-0.2874,-0.2874,-0.2874,-0.2874,-0.2874,-0.2874,-0.2874,-0.2874,-0.2874,-0.2874,-0.2874,-0.2874,-0.2874,-0.2874,-0.2874,-0.2874,-0.2874,-0.2874,-0.2874,-0.2874,-0.2874,-0.2874,-0.2874,-0.2874,-0.2874,-0.2874,-0.2874,-0.2874,-0.2874,0.0,0.0,0.0,0.0,0.0,-1.379,-1.3969,-1.3993,-1.4058,-1.4237,0.0,0.0,0.0,0.0,-1.4862,-1.5041,-1.5057,-1.5139,-1.5317,-1.5333,-1.5382,-1.5512,-1.5569,-1.5601,-1.5601,-1.5772,-1.5861,-1.5861,-1.5991,-1.5966,-1.5966,-1.5966,-1.5966,-1.5801,-1.5857,-1.564,-1.5225,-1.4831,-1.452,-1.4209,-1.4019,-1.3994,-1.4014,-1.4507,-1.4629,-1.4601,-1.4699,-1.4734,-1.4734,-1.4734,-1.4911,-1.4727,-1.311,-1.2219,-1.1599,-1.0352,-1.0086,-0.9646,-0.706,-0.6085,-0.5283,-0.3411,-0.2874,-0.2874,-0.2874,-0.2874,-0.2874,-0.2874,-0.2874,-0.2874,-0.2874,-0.2874,-0.2874,-0.2874,-0.2874,-0.2874,-0.2874,-0.2874,-0.2874,-0.2874,-0.2874,-0.2874,-0.2874,-0.2874,-0.2874,-0.2874,-0.2874,-0.2874,-0.2874,-0.2874,-0.2874,-0.2874,-0.2874,-0.2874,-0.2874,-0.2874,-0.2874,-0.2874,-0.2874,-0.2874,-0.2874,-0.2874,-0.2874,-0.2874,-0.2874,-0.2874,-0.2874,-0.2874,-0.2874,-0.2874,-0.2874,-0.2874,-0.2874,-0.2874,-0.2874,-0.2874,0.0,0.0,-1.3701,-1.3872,-1.3904,-1.3969,-1.4148,-1.418,-1.4245,-1.4416,0.0,0.0,0.0,0.0,0.0,-1.5228,-1.5244,-1.5325,-1.5512,-1.5528,-1.5528,-1.5528,-1.5691,-1.578,-1.578,-1.5959,-1.5966,-1.5966,-1.5966,-1.5966,-1.5966,-1.5966,-1.5801,-1.5396,-1.5568,-1.531,-1.4897,-1.4477,-1.423,-1.4061,-1.3912,-1.4034,-1.4285,-1.4136,-1.417,-1.4299,-1.4299,-1.4299,-1.4299,-1.421,-1.4557,-1.4543,-1.2579,-1.0979,-0.9815,-0.9819,-0.8842,-0.7599,0.0,0.0,0.0,-0.3143,-0.2874,-0.2874,-0.2874,-0.2874,-0.2874,-0.2874,-0.2874,-0.2874,-0.2874,-0.2874,-0.2874,-0.2874,-0.2874,-0.2874,-0.2874,-0.2874,-0.2874,-0.2874,-0.2874,-0.2874,-0.2874,-0.2874,-0.2874,-0.2874,-0.2874,-0.2874,-0.2874,-0.2874,-0.2874,-0.2874,-0.2874,-0.2874,-0.2874,-0.2874,-0.2874,-0.2874,-0.2874,-0.2874,-0.2874,-0.2874,-0.2874,-0.2874,-0.2874,-0.2874,-0.2874,-0.2874,-0.2874,-0.2874,-0.2874,-0.2874,-0.2874,-0.2874,-0.2874,-0.2874,0.0,-1.3831,-1.3847,-1.3896,-1.401,-1.4115,-1.4172,-1.4278,-1.4424,0.0,0.0,0.0,-1.4879,-1.5057,-1.5187,-1.5236,-1.5366,-1.5512,-1.5691,-1.5699,-1.5764,-1.5894,-1.5943,-1.5967,-1.5967,-1.6024,-1.5966,-1.5966,-1.5966,-1.5966,-1.5966,-1.5966,-1.5865,-1.5492,-1.5196,-1.4931,-1.4722,-1.4636,-1.4426,-1.4075,-1.4143,-1.4224,-1.4292,-1.4251,-1.4265,-1.4299,-1.4299,-1.4299,-1.4122,-1.2692,-1.2331,-1.1793,-0.8494,-0.6713,-0.5733,-0.5107,-0.5109,-0.5109,-0.4124,0.0,0.0,0.0,0.0,0.0,-0.2874,-0.2874,-0.2874,-0.2874,-0.2874,-0.2874,-0.2874,-0.2874,-0.2874,-0.2874,-0.2874,-0.2874,-0.2874,-0.2874,-0.2874,-0.2874,-0.2874,-0.2874,-0.2874,-0.2874,-0.2874,-0.2874,-0.2874,-0.2874,-0.2874,-0.2874,-0.2874,-0.2874,-0.2874,-0.2874,-0.2874,-0.2874,-0.2874,-0.2874,-0.2874,-0.2874,-0.2874,-0.2874,-0.2874,-0.2874,-0.2874,-0.2874,-0.2874,-0.2874,-0.2874,-0.2874,-0.2874,-0.2874,-0.2874,-0.2874,-0.2874,-0.2874,-1.388,-1.3961,-1.4018,-1.4018,-1.4164,-1.431,-1.4391,-1.4481,-1.4611,0.0,0.0,0.0,-1.5057,-1.5244,-1.5382,-1.5455,-1.5561,-1.5699,-1.5878,-1.5886,-1.5934,-1.5958,-1.5966,-1.5966,-1.5966,-1.5966,-1.5966,-1.5966,-1.5966,-1.5875,-1.5719,-1.579,-1.5544,-1.5058,-1.4854,-1.4679,-1.4423,-1.4493,-1.4433,-1.4177,-1.4265,-1.4299,-1.4299,-1.4299,-1.4299,-1.4299,-1.4299,-1.4299,-1.4033,-1.2065,-1.0367,-0.8676,-0.6359,-0.4753,-0.3592,-0.3053,-0.3323,-0.3592,-0.3053,-0.2874,-0.2874,-0.2874,0.0,0.0,-0.2874,-0.2874,-0.2874,-0.2874,-0.2874,-0.2874,-0.2874,-0.2874,-0.2874,-0.2874,-0.2874,-0.2874,-0.2874,-0.2874,-0.2874,-0.2874,-0.2874,-0.2874,-0.2874,-0.2874,-0.2874,-0.2874,-0.2874,-0.2874,-0.2874,-0.2874,-0.2874,-0.2874,-0.2874,-0.2874,-0.2874,-0.2874,-0.2874,-0.2874,-0.2874,-0.2874,-0.2874,-0.2874,-0.2874,-0.2874,-0.2874,-0.2874,-0.2874,-0.2874,-0.2874,-0.2874,-0.2874,-0.2874,-0.2874,-0.2874,-0.2874,-0.2874,0.0,-1.4083,-1.4205,-1.4205,-1.4351,-1.4521,-1.4684,-1.4724,-1.4789,0.0,-1.4984,-1.5065,-1.5252,-1.5431,-1.561,-1.5756,-1.5788,-1.5869,-1.595,-1.5966,-1.5966,-1.5966,-1.5966,-1.5966,-1.5966,-1.5966,-1.5966,-1.5966,-1.5966,-1.5727,-1.5412,-1.5484,-1.5073,-1.4358,-1.4557,-1.4517,-1.4109,-1.4245,-1.4299,-1.4299,-1.4299,-1.4299,-1.4299,-1.4299,-1.4299,-1.4299,-1.4033,-1.3945,-1.3673,-1.1527,-0.8409,-0.5375,-0.5375,-0.4216,-0.2874,-0.2874,-0.2874,-0.2874,-0.2874,-0.2874,-0.2874,-0.2874,-0.2874,0.0,-0.2874,-0.2874,-0.2874,-0.2874,-0.2874,-0.2874,-0.2874,-0.2874,-0.2874,-0.2874,-0.2874,-0.2874,-0.2874,-0.2874,-0.2874,-0.2874,-0.2874,-0.2874,-0.2874,-0.2874,-0.2874,-0.2874,-0.2874,-0.2874,-0.2874,-0.2874,-0.2874,-0.2874,-0.2874,-0.2874,-0.2874,-0.2874,-0.2874,-0.2874,-0.2874,-0.2874,-0.2874,-0.2874,-0.2874,-0.2874,-0.2874,-0.2874,-0.2874,-0.2874,-0.2874,-0.2874,-0.2874,-0.2874,-0.2874,-0.2874,-0.2874,-0.2874,-1.4123,-1.4261,-1.4383,-1.4383,-1.4538,-1.4667,-1.47,-1.483,-1.4927,-1.496,-1.509,-1.5252,-1.5439,-1.5618,-1.574,-1.5772,-1.591,-1.6008,-1.5958,-1.5966,-1.5966,-1.5966,-1.5966,-1.5966,-1.5966,-1.5966,-1.5966,-1.5966,-1.5711,-1.5542,-1.5508,-1.5203,-1.4854,-1.4592,-1.4656,-1.458,-1.4258,-1.4285,-1.4299,-1.4299,-1.4299,-1.4299,-1.4299,-1.4299,-1.4299,-1.4122,-1.2509,-1.1976,-1.1438,-0.7963,-0.5288,-0.3411,-0.3411,-0.3233,-0.2874,-0.2874,-0.2874,-0.2874,-0.2874,-0.2874,-0.2874,-0.2874,-0.2874,0.0,-0.2874,-0.2874,-0.2874,-0.2874,-0.2874,-0.2874,-0.2874,-0.2874,-0.2874,-0.2874,-0.2874,-0.2874,-0.2874,-0.2874,-0.2874,-0.2874,-0.2874,-0.2874,-0.2874,-0.2874,-0.2874,-0.2874,-0.2874,-0.2874,-0.2874,-0.2874,-0.2874,-0.2874,-0.2874,-0.2874,-0.2874,-0.2874,-0.2874,-0.2874,-0.2874,-0.2874,-0.2874,-0.2874,-0.2874,-0.2874,-0.2874,-0.2874,-0.2874,-0.2874,-0.2874,-0.2874,-0.2874,-0.2874,-0.2874,-0.2874,-0.2874,-0.2874,-1.4302,-1.4448,-1.457,-1.457,-1.4716,-1.4838,-1.4838,-1.4911,-1.5,-1.509,-1.5342,-1.5536,-1.5634,-1.5804,-1.591,-1.591,-1.5991,-1.5966,-1.5966,-1.5966,-1.5966,-1.5966,-1.5966,-1.5966,-1.5966,-1.5793,-1.5711,-1.5711,-1.5301,-1.5052,-1.4974,-1.4883,-1.47,-1.4423,-1.45,-1.4407,-1.4299,-1.4299,-1.4299,-1.4299,-1.4299,-1.4299,-1.4299,-1.4299,-1.3673,-1.2692,-1.1705,-1.0189,-0.823,-0.6359,-0.4485,-0.2874,-0.2874,-0.2874,-0.2874,-0.2874,-0.2874,-0.2874,-0.2874,-0.2874,-0.2874,-0.2874,-0.2874,0.0,0.0,-0.2874,-0.2874,-0.2874,-0.2874,-0.2874,-0.2874,-0.2874,-0.2874,-0.2874,-0.2874,-0.2874,-0.2874,-0.2874,-0.2874,-0.2874,-0.2874,-0.2874,-0.2874,-0.2874,-0.2874,-0.2874,-0.2874,-0.2874,-0.2874,-0.2874,-0.2874,-0.2874,-0.2874,-0.2874,-0.2874,-0.2874,-0.2874,-0.2874,-0.2874,-0.2874,-0.2874,-0.2874,-0.2874,-0.2874,-0.2874,-0.2874,-0.2874,-0.2874,-0.2874,-0.2874,-0.2874,-0.2874,-0.2874,-0.2874,-0.2874,-0.2874,-1.4489,-1.4635,-1.4757,-1.4757,-1.4871,-1.4976,-1.5009,-1.5017,-1.5098,-1.5317,-1.5513,-1.5707,-1.574,-1.5713,-1.5711,-1.5711,-1.5711,-1.5711,-1.5711,-1.5711,-1.5711,-1.5711,-1.5711,-1.5711,-1.5711,-1.5495,-1.5262,-1.5262,-1.5013,-1.4689,-1.4387,-1.4564,-1.4437,-1.4122,-1.4245,-1.4299,-1.4299,-1.4299,-1.4299,-1.4299,-1.4299,-1.4299,-1.4299,-1.385,-1.2781,-1.1261,-1.055,-0.8052,-0.5199,-0.5199,-0.4126,-0.2874,-0.2874,-0.2874,-0.2874,-0.2874,-0.2874,-0.2874,-0.2874,-0.2874,-0.2874,-0.2874,-0.2874,-0.2874,0.0,0.0,0.0,-0.2874,-0.2874,-0.2874,-0.2874,-0.2874,-0.2874,-0.2874,-0.2874,-0.2874,-0.2874,-0.2874,-0.2874,-0.2874,-0.2874,-0.2874,-0.2874,-0.2874,-0.2874,-0.2874,-0.2874,-0.2874,-0.2874,-0.2874,-0.2874,-0.2874,-0.2874,-0.2874,-0.2874,-0.2874,-0.2874,-0.2874,-0.2874,-0.2874,-0.2874,-0.2874,-0.2874,-0.2874,-0.2874,-0.2874,-0.2874,-0.2874,-0.2874,-0.2874,-0.2874,-0.2874,-0.2874,-0.2874,-0.2874,-0.2874,-1.4708,-1.4822,-1.4935,-1.4935,-1.4952,-1.5017,-1.5179,-1.5204,-1.5325,-1.5666,-1.5432,-1.5275,-1.5416,-1.5118,-1.4878,-1.4878,-1.4878,-1.4878,-1.4878,-1.4878,-1.4878,-1.4878,-1.4878,-1.4878,-1.4878,-1.4946,-1.4937,-1.4937,-1.4677,-1.4572,-1.4627,-1.4315,-1.423,-1.4278,-1.4292,-1.4299,-1.4299,-1.4299,-1.4299,-1.4299,-1.4299,-1.4299,-1.4122,-1.242,-1.1616,-1.0994,-0.7606,-0.502,-0.3233,-0.3233,-0.3053,-0.2874,-0.2874,-0.2874,-0.2874,-0.2874,-0.2874,-0.2874,-0.2874,-0.2874,-0.2874,-0.2874,-0.2874,-0.2874,-0.2874,0.0,-0.2874,-0.2874,0.0,-0.2874,-0.2874,0.0,0.0,-0.2874,-0.2874,-0.2874,-0.2874,-0.2874,-0.2874,-0.2874,-0.2874,-0.2874,-0.2874,-0.2874,-0.2874,-0.2874,-0.2874,-0.2874,-0.2874,-0.2874,-0.2874,-0.2874,-0.2874,-0.2874,-0.2874,-0.2874,-0.2874,-0.2874,-0.2874,-0.2874,-0.2874,-0.2874,-0.2874,-0.2874,-0.2874,-0.2874,-0.2874,-0.2874,-0.2874,-0.2874,-0.2874,-0.2874,-0.2874,-0.2874,-0.2874,-0.2874,-1.4871,-1.4919,-1.4968,-1.4968,-1.5057,-1.5147,-1.5228,-1.5177,-1.5209,-1.5351,-1.5054,-1.4893,-1.4953,-1.4796,-1.4713,-1.4713,-1.4713,-1.4713,-1.4713,-1.4713,-1.4758,-1.4771,-1.4862,-1.4907,-1.5004,-1.4824,-1.4684,-1.4684,-1.4414,-1.4267,-1.4336,-1.4251,-1.4238,-1.4299,-1.4299,-1.4299,-1.4299,-1.4299,-1.4299,-1.4299,-1.4299,-1.3584,-1.2509,-1.171,-1.0011,-0.7695,-0.502,-0.359,-0.2874,-0.2874,-0.2874,-0.2874,-0.2874,-0.2874,-0.2874,-0.2874,-0.2874,-0.2874,-0.2874,-0.2874,-0.2874,-0.2874,-0.2874,-0.2874,-0.2874,-0.2874,-0.2874,-0.2874,0.0,0.0,0.0,0.0,0.0,0.0,-0.2874,-0.2874,-0.2874,-0.2874,-0.2874,-0.2874,-0.2874,-0.2874,-0.2874,-0.2874,-0.2874,-0.2874,-0.2874,-0.2874,-0.2874,-0.2874,-0.2874,-0.2874,-0.2874,-0.2874,-0.2874,-0.2874,-0.2874,-0.2874,-0.2874,-0.2874,-0.2874,-0.2874,-0.2874,-0.2874,-0.2874,-0.2874,-0.2874,-0.2874,-0.2874,-0.2874,-0.2874,-0.2874,-0.2874,-0.2874,-0.2874,-0.2874,-1.5106,-1.5074,-1.5057,-1.5106,-1.515,-1.5089,-1.4987,-1.5007,-1.4957,-1.4957,-1.4728,-1.4555,-1.4555,-1.439,-1.43,-1.43,-1.43,-1.43,-1.43,-1.4344,-1.4423,-1.4539,-1.459,-1.467,-1.4785,-1.4572,-1.4421,-1.4421,-1.4235,-1.4136,-1.4136,-1.4245,-1.4299,-1.4299,-1.4299,-1.4299,-1.4299,-1.4299,-1.4299,-1.4299,-1.4299,-1.2869,-1.055,-1.0011,-0.7784,-0.4751,-0.3411,-0.2874,-0.2874,-0.2874,-0.2874,-0.2874,-0.2874,-0.2874,-0.2874,-0.2874,-0.2874,-0.2874,-0.2874,-0.2874,-0.2874,-0.2874,-0.2874,-0.2874,-0.2874,-0.2874,-0.2874,-0.2874,-0.2874,0.0,0.0,0.0,-0.2874,-0.2874,0.0,-0.2874,-0.2874,-0.2874,-0.2874,-0.2874,-0.2874,-0.2874,-0.2874,-0.2874,-0.2874,-0.2874,-0.2874,-0.2874,-0.2874,-0.2874,-0.2874,-0.2874,-0.2874,-0.2874,-0.2874,-0.2874,-0.2874,-0.2874,-0.2874,-0.2874,-0.2874,-0.2874,-0.2874,-0.2874,-0.2874,-0.2874,-0.2874,-0.2874,-0.2874,-0.2874,-0.2874,-0.2874,-0.2874,-0.2874,-0.2874,-0.2874,-1.5463,-1.5358,-1.5285,-1.5463,-1.5098,-1.4761,-1.4518,-1.4601,-1.4706,-1.4706,-1.439,-1.4149,-1.4149,-1.3735,-1.3403,-1.3403,-1.3403,-1.3403,-1.3403,-1.3539,-1.362,-1.3627,-1.3763,-1.3838,-1.3838,-1.3987,-1.4155,-1.4155,-1.4217,-1.4292,-1.4292,-1.4299,-1.4299,-1.4299,-1.4299,-1.4299,-1.4299,-1.4299,-1.4299,-1.4299,-1.4299,-1.2065,-0.8498,-0.6627,-0.4662,-0.2964,-0.2964,-0.2874,-0.2874,-0.2874,-0.2874,-0.2874,-0.2874,-0.2874,-0.2874,-0.2874,-0.2874,-0.2874,-0.2874,-0.2874,-0.2874,-0.2874,-0.2874,-0.2874,-0.2874,-0.2874,-0.2874,-0.2874,-0.2874,-0.2874,-0.2874,-0.2874,-0.2874,-0.2874,-0.2874,0.0,0.0,-0.2874,-0.2874,-0.2874,-0.2874,-0.2874,-0.2874,-0.2874,-0.2874,-0.2874,-0.2874,-0.2874,-0.2874,-0.2874,-0.2874,-0.2874,-0.2874,-0.2874,-0.2874,-0.2874,-0.2874,-0.2874,-0.2874,-0.2874,-0.2874,-0.2874,-0.2874,-0.2874,-0.2874,-0.2874,-0.2874,-0.2874,-0.2874,-0.2874,-0.2874,-0.2874,-0.2874,-0.2874,-0.2874,-0.2874,-1.5176,-1.4999,-1.4777,-1.4962,-1.4808,-1.4614,-1.4609,-1.4436,-1.4307,-1.4307,-1.3901,-1.3652,-1.3652,-1.3486,-1.3403,-1.3403,-1.3403,-1.3403,-1.3403,-1.3546,-1.3675,-1.3763,-1.3912,-1.4041,-1.4143,-1.4197,-1.4224,-1.4224,-1.4278,-1.4299,-1.4299,-1.4299,-1.4299,-1.4299,-1.4299,-1.4299,-1.4299,-1.4299,-1.4299,-1.4122,-1.1527,-0.8943,-0.6448,-0.4574,-0.3411,-0.2874,-0.2874,-0.2874,-0.2874,-0.2874,-0.2874,-0.2874,-0.2874,-0.2874,-0.2874,-0.2874,-0.2874,-0.2874,-0.2874,-0.2874,-0.2874,-0.2874,-0.2874,-0.2874,-0.2874,-0.2874,-0.2874,-0.2874,-0.2874,-0.2874,-0.2874,-0.2874,-0.2874,-0.2874,-0.2874,-0.2874,0.0,-0.2874,-0.2874,-0.2874,-0.2874,-0.2874,-0.2874,-0.2874,-0.2874,-0.2874,-0.2874,-0.2874,-0.2874,-0.2874,-0.2874,-0.2874,-0.2874,-0.2874,-0.2874,-0.2874,-0.2874,-0.2874,-0.2874,-0.2874,-0.2874,-0.2874,-0.2874,-0.2874,-0.2874,-0.2874,-0.2874,-0.2874,-0.2874,-0.2874,-0.2874,-0.2874,-0.2874,-0.2874,-0.2874,-0.2874,-1.4942,-1.4653,-1.4453,-1.4746,-1.4578,-1.4355,-1.4286,-1.3976,-1.3818,-1.3818,-1.3569,-1.3403,-1.3403,-1.3403,-1.3403,-1.3403,-1.3451,-1.3485,-1.3485,-1.3675,-1.3824,-1.3919,-1.4068,-1.4197,-1.4299,-1.4299,-1.4299,-1.4299,-1.4299,-1.4299,-1.4299,-1.4299,-1.4299,-1.4299,-1.4299,-1.4299,-1.4299,-1.4299,-1.3938,-1.2958,-0.9121,-0.6803,-0.5465,-0.359,-0.2874,-0.2874,-0.2874,-0.2874,-0.2874,-0.2874,-0.2874,-0.2874,-0.2874,-0.2874,-0.2874,-0.2874,-0.2874,-0.2874,-0.2874,-0.2874,-0.2874,-0.2874,-0.2874,-0.2874,-0.2874,-0.2874,-0.2874,-0.2874,-0.2874,-0.2874,-0.2874,-0.2874,-0.2874,-0.2874,-0.2874,-0.2874,0.0,-0.2874,-0.2874,-0.2874,-0.2874,-0.2874,-0.2874,-0.2874,-0.2874,-0.2874,-0.2874,-0.2874,-0.2874,-0.2874,-0.2874,-0.2874,-0.2874,-0.2874,-0.2874,-0.2874,-0.2874,-0.2874,-0.2874,-0.2874,-0.2874,-0.2874,-0.2874,-0.2874,-0.2874,-0.2874,-0.2874,-0.2874,-0.2874,-0.2874,-0.2874,-0.2874,-0.2874,-0.2874,-0.2874,-0.2874,-1.4683,-1.4307,-1.4232,-1.4548,-1.4307,-1.3901,-1.3486,-1.3403,-1.3403,-1.3403,-1.3403,-1.3403,-1.3403,-1.341,-1.341,-1.341,-1.3553,-1.3641,-1.3641,-1.3912,-1.4075,-1.4075,-1.4217,-1.4299,-1.4299,-1.4299,-1.421,-1.4122,-1.4122,-1.4122,-1.4033,-1.4122,-1.4122,-1.4122,-1.4299,-1.4299,-1.4299,-1.421,-1.2958,-1.0816,-0.716,-0.5644,-0.5378,-0.359,-0.2874,-0.2874,-0.2874,-0.2874,-0.2874,-0.2874,-0.2874,-0.2874,-0.2874,-0.2874,-0.2874,-0.2874,-0.2874,-0.2874,-0.2874,-0.2874,-0.2874,-0.2874,-0.2874,-0.2874,-0.2874,-0.2874,-0.2874,-0.2874,-0.2874,-0.2874,-0.2874,-0.2874,-0.2874,0.0,0.0,0.0,-0.2874,-0.2874,-0.2874,-0.2874,-0.2874,-0.2874,-0.2874,-0.2874,-0.2874,-0.2874,-0.2874,0.0,-0.2874,-0.2874,-0.2874,-0.2874,-0.2874,-0.2874,-0.2874,-0.2874,-0.2874,-0.2874,-0.2874,-0.2874,-0.2874,-0.2874,-0.2874,-0.2874,-0.2874,-0.2874,-0.2874,-0.2874,-0.2874,-0.2874,-0.2874,-0.2874,-0.2874,-0.2874,-0.2874,-0.2874,-1.4225,-1.3901,-1.3652,-1.3728,-1.3645,-1.3569,-1.3403,-1.3403,-1.3403,-1.3403,-1.3403,-1.3403,-1.3403,-1.3505,-1.3573,-1.3573,-1.3702,-1.3783,-1.3783,-1.3966,-1.4075,-1.4075,-1.4217,-1.4299,-1.4299,-1.4299,-1.3584,-1.2154,-1.2154,-1.1438,-1.01,-1.1527,-1.2154,-1.2243,-1.3673,-1.4299,-1.421,-1.2781,-1.0194,-0.707,-0.6091,-0.4841,-0.359,-0.3053,-0.2874,-0.2874,-0.2874,-0.2874,-0.2874,-0.2874,-0.2874,-0.2874,-0.2874,-0.2874,-0.2874,-0.2874,-0.2874,-0.2874,-0.2874,-0.2874,-0.2874,-0.2874,-0.2874,-0.2874,-0.2874,-0.2874,-0.2874,-0.2874,-0.2874,-0.2874,-0.2874,-0.2874,-0.2874,-0.2874,-0.2874,-0.2874,-0.2874,-0.2874,-0.2874,-0.2874,-0.2874,-0.2874,-0.2874,-0.2874,-0.2874,-0.2874,-0.2874,-0.2874,-0.2874,-0.2874,-0.2874,-0.2874,-0.2874,-0.2874,-0.2874,-0.2874,-0.2874,-0.2874,-0.2874,-0.2874,-0.2874,-0.2874,-0.2874,-0.2874,-0.2874,-0.2874,-0.2874,-0.2874,-0.2874,-0.2874,-0.2874,-0.2874,-0.2874,-0.2874,-0.2874,-0.2874,-1.3818,-1.3569,-1.3403,-1.3403,-1.3403,-1.3403,-1.3403,-1.3458,-1.3498,-1.3498,-1.3498,-1.3526,-1.3587,-1.3614,-1.3654,-1.3715,-1.3858,-1.3939,-1.3939,-1.4082,-1.417,-1.417,-1.4251,-1.3938,-1.3046,-1.3046,-1.2065,-1.0189,-1.0189,-0.9655,-0.8587,-0.9655,-1.0189,-1.0194,-1.1349,-1.1799,-1.171,-0.9744,-0.7695,-0.5644,-0.4841,-0.3859,0.0,-0.2874,-0.2874,-0.2874,-0.2874,-0.2874,-0.2874,-0.2874,-0.2874,-0.2874,-0.2874,-0.2874,-0.2874,-0.2874,-0.2874,-0.2874,-0.2874,-0.2874,-0.2874,-0.2874,-0.2874,-0.2874,-0.2874,-0.2874,-0.2874,-0.2874,-0.2874,-0.2874,-0.2874,-0.2874,-0.2874,-0.2874,-0.2874,-0.2874,-0.2874,-0.2874,-0.2874,-0.2874,-0.2874,-0.2874,-0.2874,-0.2874,-0.2874,-0.2874,-0.2874,-0.2874,-0.2874,-0.2874,-0.2874,-0.2874,-0.2874,-0.2874,-0.2874,-0.2874,-0.2874,-0.2874,-0.2874,-0.2874,-0.2874,-0.2874,-0.2874,-0.2874,-0.2874,-0.2874,-0.2874,-0.2874,-0.2874,-0.2874,-0.2874,-0.2874,-0.2874,-0.2874,-0.2874,-0.2874,-1.3403,-1.3231,-1.3148,-1.3397,-1.3231,-1.3148,-1.3397,-1.3512,-1.36,-1.36,-1.3614,-1.3675,-1.3797,-1.3736,-1.3736,-1.3858,-1.4014,-1.4102,-1.4102,-1.396,-1.3945,-1.3945,-1.3673,-1.2781,-1.1083,-1.0994,-1.01,-0.823,-0.823,-0.8052,-0.7874,-0.8141,-0.823,-0.823,-0.8498,-0.8498,-0.8141,-0.6448,-0.5557,-0.5199,-0.359,-0.2874,-0.2874,-0.2874,-0.2874,-0.2874,-0.2874,-0.2874,-0.2874,-0.2874,-0.2874,-0.2874,-0.2874,-0.2874,-0.2874,-0.2874,-0.2874,-0.2874,-0.2874,-0.2874,-0.2874,-0.2874,-0.2874,-0.2874,-0.2874,-0.2874,-0.2874,-0.2874,-0.2874,-0.2874,-0.2874,-0.2874,-0.2874,-0.2874,-0.2874,-0.2874,-0.2874,-0.2874,-0.2874,-0.2874,-0.2874,0.0,-0.2874,-0.2874,-0.2874,-0.2874,-0.2874,-0.2874,-0.2874,-0.2874,-0.2874,-0.2874,-0.2874,-0.2874,-0.2874,-0.2874,-0.2874,-0.2874,-0.2874,-0.2874,-0.2874,-0.2874,-0.2874,-0.2874,-0.2874,-0.2874,-0.2874,-0.2874,-0.2874,-0.2874,-0.2874,-0.2874,-0.2874,-0.2874,-0.2874,-0.2874,-1.3403,-1.2229,-1.1641,-1.3148,-1.2146,-1.1641,-1.3148,-1.3424,-1.3444,-1.3444,-1.3553,-1.3641,-1.3661,-1.3865,-1.4007,-1.4027,-1.417,-1.4258,-1.4258,-1.2768,-1.1888,-1.1888,-1.0461,-0.9477,-0.9121,-0.9121,-0.8141,-0.618,-0.618,-0.5378,-0.3947,-0.5467,-0.618,-0.627,-0.7874,-0.7695,-0.618,-0.5823,-0.4841,-0.3321,-0.3053,-0.2874,-0.2874,-0.2874,-0.2874,-0.2874,-0.2874,-0.2874,-0.2874,-0.2874,-0.2874,-0.2874,-0.2874,-0.2874,-0.2874,-0.2874,-0.2874,-0.2874,-0.2874,-0.2874,-0.2874,-0.2874,-0.2874,-0.2874,-0.2874,-0.2874,-0.2874,-0.2874,-0.2874,-0.2874,-0.2874,-0.2874,-0.2874,-0.2874,-0.2874,-0.2874,-0.2874,-0.2874,-0.2874,-0.2874,-0.2874,-0.2874,-0.2874,-0.2874,-0.2874,-0.2874,-0.2874,-0.2874,-0.2874,-0.2874,-0.2874,-0.2874,-0.2874,-0.2874,-0.2874,-0.2874,-0.2874,-0.2874,-0.2874,-0.2874,-0.2874,-0.2874,-0.2874,-0.2874,-0.2874,-0.2874,-0.2874,-0.2874,-0.2874,-0.2874,-0.2874,-0.2874,-0.2874,-0.2874,-0.2874,-0.2874,-1.1813,-1.136,-1.1383,-1.3078,-1.2708,-1.2508,-1.3351,-1.3519,-1.3546,-1.362,-1.3763,-1.3892,-1.3966,-1.4034,-1.4102,-1.4183,-1.4258,-1.4299,-1.4299,-1.2509,-1.1438,-1.1438,-0.9566,-0.8141,-0.716,-0.707,-0.618,-0.4216,-0.4216,-0.3769,-0.2964,-0.3859,-0.4216,-0.4305,-0.5199,-0.5109,-0.4216,-0.4216,-0.3769,-0.2874,-0.2874,-0.2874,-0.2874,-0.2874,-0.2874,-0.2874,-0.2874,-0.2874,-0.2874,-0.2874,-0.2874,-0.2874,-0.2874,-0.2874,-0.2874,-0.2874,-0.2874,-0.2874,-0.2874,-0.2874,-0.2874,-0.2874,-0.2874,-0.2874,-0.2874,-0.2874,-0.2874,-0.2874,-0.2874,-0.2874,-0.2874,-0.2874,-0.2874,-0.2874,-0.2874,-0.2874,-0.2874,-0.2874,-0.2874,-0.2874,-0.2874,-0.2874,-0.2874,-0.2874,-0.2874,-0.2874,-0.2874,-0.2874,-0.2874,-0.2874,-0.2874,-0.2874,-0.2874,-0.2874,-0.2874,-0.2874,-0.2874,-0.2874,-0.2874,-0.2874,-0.2874,-0.2874,-0.2874,-0.2874,-0.2874,-0.2874,-0.2874,-0.2874,-0.2874,-0.2874,-0.2874,-0.2874,-0.2874,-0.2874,-0.2874,-0.2874,-1.0476,-1.0813,-1.1446,-1.3091,-1.3184,-1.3199,-1.3543,-1.3682,-1.3749,-1.3831,-1.3973,-1.4116,-1.4238,-1.4177,-1.3995,-1.3755,-1.3673,-1.3496,-1.3135,-1.1261,-1.0189,-1.0189,-0.8409,-0.6716,-0.5109,-0.5109,-0.4395,-0.2874,-0.2874,-0.2871,-0.2864,-0.2871,-0.2874,-0.2874,-0.2874,-0.2874,-0.2874,-0.2874,-0.2874,-0.2874,-0.2874,-0.2874,-0.2874,-0.2874,-0.2874,-0.2874,-0.2874,-0.2874,-0.2874,-0.2874,-0.2874,-0.2874,-0.2874,-0.2874,-0.2874,-0.2874,-0.2874,-0.2874,-0.2874,-0.2874,-0.2874,-0.2874,-0.2874,-0.2874,-0.2874,-0.2874,-0.2874,-0.2874,-0.2874,-0.2874,-0.2874,-0.2874,-0.2874,-0.2874,-0.2874,-0.2874,-0.2874,-0.2874,-0.2874,-0.2874,-0.2874,-0.2874,-0.2874,-0.2874,-0.2874,-0.2874,-0.2874,-0.2874,-0.2874,-0.2874,-0.2874,-0.2874,-0.2874,-0.2874,-0.2874,-0.2874,-0.2874,-0.2874,-0.2874,-0.2874,-0.2874,-0.2874,-0.2874,-0.2874,-0.2874,-0.2874,-0.2874,-0.2874,-0.2874,-0.2874,-0.2874,-0.2874,-0.2874,-0.2874,-0.2874,-0.2874,-1.0998,-1.0813,-1.1446,-1.3091,-1.2166,-1.1745,-1.3374,-1.3858,-1.3987,-1.3858,-1.3973,-1.4075,-1.4089,-1.4204,-1.3571,-1.1793,-1.1705,-1.0994,-0.921,-0.7338,-0.627,-0.627,-0.4395,-0.3321,-0.3143,-0.3143,-0.3053,-0.2874,-0.2874,-0.286,-0.2833,-0.2861,-0.2874,-0.2874,-0.2874,-0.2874,-0.2874,-0.2874,-0.2874,-0.2874,-0.2874,-0.2874,-0.2874,-0.2874,-0.2874,-0.2874,-0.2874,-0.2874,-0.2874,-0.2874,-0.2874,-0.2874,-0.2874,-0.2874,-0.2874,-0.2874,-0.2874,-0.2874,-0.2874,-0.2874,-0.2874,-0.2874,-0.2874,-0.2874,-0.2874,-0.2874,-0.2874,-0.2874,-0.2874,-0.2874,-0.2874,-0.2874,-0.2874,-0.2874,-0.2874,-0.2874,-0.2874,-0.2874,-0.2874,-0.2874,-0.2874,-0.2874,-0.2874,-0.2874,-0.2874,-0.2874,-0.2874,-0.2874,-0.2874,-0.2874,-0.2874,-0.2874,-0.2874,-0.2874,-0.2874,-0.2874,-0.2874,-0.2874,-0.2874,-0.2874,-0.2874,-0.2874,-0.2874,-0.2874,-0.2874,-0.2874,-0.2874,-0.2874,-0.2874,-0.2874,-0.2874,-0.2874,-0.2874,-0.2874,-0.2874,-0.2874,-1.0648,-1.0873,-1.1566,-1.3224,-1.3128,-1.2675,-1.2244,-1.3294,-1.3291,-1.0941,-1.1692,-1.2519,-1.2519,-1.15,-1.055,-0.9744,-0.9744,-0.9388,-0.8676,-0.6806,-0.5733,-0.5733,-0.3857,-0.2874,-0.2874,-0.2874,-0.2874,-0.2874,-0.2874,-0.2868,-0.2856,-0.2868,-0.2874,-0.2874,-0.2874,-0.2874,-0.2874,-0.2874,-0.2874,-0.2874,-0.2874,-0.2874,-0.2874,-0.2874,-0.2874,-0.2874,-0.2874,-0.2874,-0.2874,-0.2874,-0.2874,-0.2874,-0.2874,-0.2874,-0.2874,-0.2874,-0.2874,-0.2874,-0.2874,-0.2874,-0.2874,-0.2874,-0.2874,-0.2874,-0.2874,-0.2874,-0.2874,-0.2874,-0.2874,-0.2874,-0.2874,-0.2874,-0.2874,-0.2874,-0.2874,-0.2874,-0.2874,-0.2874,-0.2874,-0.2874,-0.2874,-0.2874,-0.2874,-0.2874,-0.2874,-0.2874,-0.2874,-0.2874,-0.2874,-0.2874,-0.2874,-0.2874,-0.2874,-0.2874,-0.2874,-0.2874,-0.2874,-0.2874,-0.2874,-0.2874,-0.2874,-0.2874,-0.2874,-0.2874,-0.2874,-0.2874,-0.2874,-0.2874,-0.2874,-0.2874,-0.2874,-0.2874,-0.2874,-0.2874,-0.2874,-0.2874,-0.9933,-1.1023,-1.2001,-1.1992,-1.2687,-1.2574,-1.0642,-1.1554,-1.1516,-0.8935,-0.9299,-0.9922,-1.0545,-0.9388,-0.8409,-0.7784,-0.7784,-0.7517,-0.6981,-0.5644,-0.4841,-0.4841,-0.359,-0.2874,-0.2874,-0.2874,-0.2874,-0.2874,-0.2874,-0.287,-0.286,-0.286,-0.2866,-0.2874,-0.2874,-0.2874,-0.2874,-0.2874,-0.2874,-0.2874,-0.2874,-0.2874,-0.2874,-0.2874,-0.2874,-0.2874,-0.2874,-0.2874,-0.2874,-0.2874,-0.2874,-0.2874,-0.2874,-0.2874,-0.2874,-0.2874,-0.2874,-0.2874,-0.2874,-0.2874,-0.2874,-0.2874,-0.2874,-0.2874,-0.2874,-0.2874,-0.2874,-0.2874,-0.2874,-0.2874,-0.2874,-0.2874,-0.2874,-0.2874,-0.2874,-0.2874,-0.2874,-0.2874,-0.2874,-0.2874,-0.2874,-0.2874,-0.2874,-0.2874,-0.2874,-0.2874,-0.2874,-0.2874,-0.2874,-0.2874,-0.2874,-0.2874,-0.2874,-0.2874,-0.2874,-0.2874,-0.2874,-0.2874,-0.2874,-0.2874,-0.2874,-0.2874,-0.2874,-0.2874,-0.2874,-0.2874,-0.2874,-0.2874,-0.2874,-0.2874,-0.2874,-0.2874,-0.2874,-0.2874,-0.2874,-0.2874,-0.8853,-1.1158,-1.2546,-0.8826,-0.9865,-1.0642,-0.8715,-0.8526,-0.8676,-0.8587,-0.6981,-0.6538,-0.8409,-0.8587,-0.7784,-0.5912,-0.5733,-0.493,-0.3053,-0.2964,-0.2964,-0.2964,-0.2874,-0.2874,-0.2874,-0.2874,-0.2874,-0.2874,-0.2874,-0.2859,-0.2829,-0.2829,-0.2845,-0.2874,-0.2874,-0.2874,-0.2874,-0.2874,-0.2874,-0.2874,-0.2874,-0.2874,-0.2874,-0.2874,-0.2874,-0.2874,-0.2874,-0.2874,-0.2874,-0.2874,-0.2874,-0.2874,-0.2874,-0.2874,-0.2874,-0.2874,-0.2874,-0.2874,-0.2874,-0.2874,-0.2874,-0.2874,-0.2874,-0.2874,-0.2874,-0.2874,-0.2874,-0.2874,-0.2874,-0.2874,-0.2874,-0.2874,-0.2874,-0.2874,-0.2874,-0.2874,-0.2874,-0.2874,-0.2874,-0.2874,-0.2874,-0.2874,-0.2874,-0.2874,-0.2874,-0.2874,-0.2874,-0.2874,-0.2874,-0.2874,-0.2874,-0.2874,-0.2874,-0.2874,-0.2874,-0.2874,-0.2874,-0.2874,-0.2874,-0.2874,-0.2874,-0.2874,-0.2874,-0.2874,-0.2874,-0.2874,-0.2874,-0.2874,-0.2874,-0.2874,-0.2874,-0.2874,-0.2874,-0.2874,-0.2874,-0.2874,-0.8603,-0.9162,-0.9715,-0.8494,-0.8921,-0.8808,-0.6859,-0.7681,-0.7695,-0.502,-0.5288,-0.5467,-0.4751,-0.4751,-0.4485,-0.3859,-0.3769,-0.35,-0.2964,-0.2874,-0.2874,-0.2874,-0.2874,-0.2874,-0.2874,-0.2874,-0.2874,-0.2874,-0.2874,-0.287,-0.286,-0.286,-0.2864,-0.2874,-0.2874,-0.2874,-0.2874,-0.2874,-0.2874,-0.2874,-0.2874,-0.2874,-0.2874,-0.2874,-0.2874,-0.2874,-0.2874,-0.2874,-0.2874,-0.2874,-0.2874,-0.2874,-0.2874,-0.2874,-0.2874,-0.2874,-0.2874,-0.2874,-0.2874,-0.2874,-0.2874,-0.2874,-0.2874,-0.2874,-0.2874,-0.2874,-0.2874,-0.2874,-0.2874,-0.2874,-0.2874,-0.2874,-0.2874,-0.2874,-0.2874,-0.2874,-0.2874,-0.2874,-0.2874,-0.2874,-0.2874,-0.2874,-0.2874,-0.2874,-0.2874,-0.2874,-0.2874,-0.2874,-0.2874,-0.2874,-0.2874,-0.2874,-0.2874,-0.2874,-0.2874,-0.2874,-0.2874,-0.2874,-0.2874,-0.2874,-0.2874,-0.2874,-0.2874,-0.2874,-0.2874,-0.2874,-0.2874,-0.2874,-0.2874,-0.2874,-0.2874,-0.2874,-0.2874,-0.2874,-0.2874,-0.2874,-0.7496,-0.7849,-0.7933,-0.6555,-0.6951,-0.6892,-0.493,-0.5644,-0.5646,-0.3233,-0.3947,-0.4216,-0.3053,-0.2874,-0.2874,-0.2874,-0.2874,-0.2874,-0.2874,-0.2874,-0.2874,-0.2874,-0.2874,-0.2874,-0.2874,-0.2874,-0.2874,-0.2874,-0.2874,-0.2874,-0.2874,-0.2874,-0.2874,-0.2874,-0.2874,-0.2874,-0.2874,-0.2874,-0.2874,-0.2874,-0.2874,-0.2874,-0.2874,-0.2874,-0.2874,-0.2874,-0.2874,-0.2874,-0.2874,-0.2874,-0.2874,-0.2874,-0.2874,-0.2874,-0.2874,-0.2874,-0.2874,-0.2874,-0.2874,-0.2874,-0.2874,-0.2874,-0.2874,-0.2874,-0.2874,-0.2874,-0.2874,-0.2874,-0.2874,-0.2874,-0.2874,-0.2874,-0.2874,-0.2874,-0.2874,-0.2874,-0.2874,-0.2874,-0.2874,-0.2874,-0.2874,-0.2874,-0.2874,-0.2874,-0.2874,-0.2874,-0.2874,-0.2874,-0.2874,-0.2874,-0.2874,-0.2874,-0.2874,-0.2874,-0.2874,-0.2874,-0.2874,-0.2874,-0.2874,-0.2874,-0.2874,-0.2874,-0.2874,-0.2874,-0.2874,-0.2874,-0.2874,-0.2874,-0.2874,-0.2874,-0.2874,-0.2874,-0.2874,-0.2874,-0.2874,-0.2874,-0.5613,-0.6784,-0.6901,-0.3494,-0.4305,-0.493,-0.3143,-0.2874,-0.2874,-0.2874,-0.2874,-0.2874,-0.2874,-0.2874,-0.2874,-0.2874,-0.2874,-0.2874,-0.2874,-0.2874,-0.2874,-0.2874,-0.2874,-0.2874,-0.2874,-0.2874,-0.2874,-0.2874,-0.2874,-0.2874,-0.2874,-0.2874,-0.2874,-0.2874,-0.2874,-0.2874,-0.2874,-0.2874,-0.2874,-0.2874,-0.2874,-0.2874,-0.2874,-0.2874,-0.2874,-0.2874,-0.2874,-0.2874,-0.2874,-0.2874,-0.2874,-0.2874,-0.2874,-0.2874,-0.2874,-0.2874,-0.2874,-0.2874,-0.2874,-0.2874,-0.2874,-0.2874,-0.2874,-0.2874,-0.2874,-0.2874,-0.2874,-0.2874,-0.2874,-0.2874,-0.2874,-0.2874,-0.2874,-0.2874,-0.2874,-0.2874,-0.2874,-0.2874,-0.2874,-0.2874,-0.2874,-0.2874,-0.2874,-0.2874,-0.2874,-0.2874,-0.2874,-0.2874,-0.2874,-0.2874,-0.2874,-0.2874,-0.2874,-0.2874,-0.2874,-0.2874,-0.2874,-0.2874,-0.2874,-0.2874,-0.2874,-0.2874,-0.2874,-0.2874,-0.2874,-0.2874,-0.2874,-0.2874,-0.2874,-0.2874,-0.2874,-0.2874,-0.2874,-0.2874,-0.2874,-0.2874,-0.3834,-0.3889,-0.3936,-0.3052,-0.3233,-0.3411,-0.2964,-0.2874,-0.2874,-0.2874,-0.2874,-0.2874,-0.2874,-0.2874,-0.2874,-0.2874,-0.2874,-0.2874,-0.2874,-0.2874,-0.2874,-0.2874,-0.2874,-0.2874,-0.2874,-0.2874,-0.2874,-0.2874,-0.2874,-0.2874,-0.2874,-0.2874,-0.2874,-0.2874,-0.2874,-0.2874,-0.2874,-0.2874,-0.2874,-0.2874,-0.2874,-0.2874,-0.2874,-0.2874,-0.2874,-0.2874,-0.2874,-0.2874,-0.2874,-0.2874,-0.2874,-0.2874,-0.2874,-0.2874,-0.2874,-0.2874,-0.2874,-0.2874,-0.2874,-0.2874,-0.2874,-0.2874,-0.2874,-0.2874,-0.2874,-0.2874,-0.2874,-0.2874,-0.2874,-0.2874,-0.2874,-0.2874,-0.2874,-0.2874,-0.2874,-0.2874,-0.2874,-0.2874,-0.2874,-0.2874,-0.2874,-0.2874,-0.2874,-0.2874,-0.2874,-0.2874,-0.2874,-0.2874,-0.2874,-0.2874,-0.2874,-0.2874,-0.2874,-0.2874,-0.2874,-0.2874,-0.2874,-0.2874,-0.2874,-0.2874,-0.2874,-0.2874,-0.2874,-0.2874,-0.2874,-0.2874,-0.2874,-0.2874,-0.2874,-0.2874,-0.2874,-0.2874,-0.2874,-0.2874,-0.2874,-0.2874,-0.2953,-0.2821,-0.2853,-0.2853,-0.2866,-0.2874,-0.2874,-0.2874,-0.2874,-0.2874,-0.2874,-0.2874,-0.2874,-0.2874,-0.2874,-0.2874,-0.2874,-0.2874,-0.2874,-0.2874,-0.2874,-0.2874,-0.2874,-0.2874,-0.2874,-0.2874,-0.2874,-0.2874,-0.2874,-0.2874,-0.2874,-0.2874,-0.2874,-0.2874,-0.2874,-0.2874,-0.2874,-0.2874,-0.2874,-0.2874,-0.2874,-0.2874,-0.2874,-0.2874,-0.2874,-0.2874,-0.2874,-0.2874,-0.2874,-0.2874,-0.2874,-0.2874,-0.2874,-0.2874,-0.2874,-0.2874,-0.2874,-0.2874,-0.2874,-0.2874,-0.2874,-0.2874,-0.2874,-0.2874,-0.2874,-0.2874,-0.2874,-0.2874,-0.2874,-0.2874,-0.2874,-0.2874,-0.2874,-0.2874,-0.2874,-0.2874,-0.2874,-0.2874,-0.2874,-0.2874,-0.2874,-0.2874,-0.2874,-0.2874,-0.2874,-0.2874,-0.2874,-0.2874,-0.2874,-0.2874,-0.2874,-0.2874,-0.2874,-0.2874,-0.2874,-0.2874,-0.2874,-0.2874,-0.2874,-0.2874,-0.2874,-0.2874,-0.2874,-0.2874,-0.2874,-0.2874,-0.2874,-0.2874,-0.2874,-0.2874,-0.2874,-0.2874,-0.2874,-0.2874,-0.2874,-0.2874,-0.2772,-0.2801,-0.2822,-0.2822,-0.2846,-0.2867,-0.2867,-0.2871,-0.2874,-0.2874,-0.2874,-0.2874,-0.2874,-0.2874,-0.2874,-0.2874,-0.2874,-0.2874,-0.2874,-0.2874,-0.2874,-0.2874,-0.2874,-0.2874,-0.2874,-0.2874,-0.2874,-0.2874,-0.2874,-0.2874,-0.2874,-0.2874,-0.2874,-0.2874,-0.2874,-0.2874,-0.2874,-0.2874,-0.2874,-0.2874,-0.2874,-0.2874,-0.2874,-0.2874,-0.2874,-0.2874,-0.2874,-0.2874,-0.2874,-0.2874,-0.2874,-0.2874,-0.2874,-0.2874,-0.2874,-0.2874,-0.2874,-0.2874,-0.2874,-0.2874,-0.2874,-0.2874,-0.2874,-0.2874,-0.2874,-0.2874,-0.2874,-0.2874,-0.2874,-0.2874,-0.2874,-0.2874,-0.2874,-0.2874,-0.2874,-0.2874,-0.2874,-0.2874,-0.2874,-0.2874,-0.2874,-0.2874,-0.2874,-0.2874,-0.2874,-0.2874,-0.2874,-0.2874,-0.2874,-0.2874,-0.2784,-0.2874,-0.2874,-0.2874,-0.2874,-0.2874,-0.2874,-0.2874,-0.2874,-0.2874,-0.2874,-0.2874,-0.2874,-0.2874,-0.2874,-0.2874,-0.2874,-0.2874,-0.2874,-0.2874,-0.2874,-0.2874,-0.2874,-0.2874,-0.2874,-0.2874,-0.2744,-0.2769,-0.2791,-0.2791,-0.2815,-0.2836,-0.2836,-0.2857,-0.2874,-0.2874,-0.2874,-0.2874,-0.2874,-0.2874,-0.2874,-0.2874,-0.2874,-0.2874,-0.2874,-0.2874,-0.2874,-0.2874,-0.2874,-0.2874,-0.2874,-0.2874,-0.2874,-0.2874,-0.2874,-0.2874,-0.2874,-0.2874,-0.2874,-0.2874,-0.2874,-0.2874,-0.2874,-0.2874,-0.2874,-0.2874,-0.2874,-0.2874,-0.2874,-0.2874,-0.2874,-0.2874,-0.2874,-0.2874,-0.2874,-0.2874,-0.2874,-0.2874,-0.2874,-0.2874,-0.2874,-0.2874,-0.2874,-0.2874,-0.2874,-0.2874,-0.2874,-0.2874,-0.2874,-0.2874,-0.2874,-0.2874,-0.2874,-0.2874,-0.2874,-0.2874,-0.2874,-0.2874,-0.2874,-0.2874,-0.2874,-0.2874,-0.2874,-0.2874,-0.2874,-0.2874,-0.2874,-0.2874,-0.2874,-0.2874,-0.2874,-0.2874,-0.2874,-0.2874,-0.2874,-0.2515,-0.2515,-0.2874,-0.2874,-0.2874,-0.2874,-0.2874,-0.2874,-0.2874,-0.2874,-0.2874,-0.2874,-0.2874,-0.2874,-0.2874,-0.2874,-0.2874,-0.2874,-0.2874,-0.2874,-0.2874,-0.2874,-0.2874,-0.2874,-0.2874,-0.2874,-0.2874,-0.2713,-0.2737,-0.2759,-0.2759,-0.2784,-0.2804,-0.2804,-0.283,-0.2849,-0.2849,-0.2864,-0.2874,-0.2874,-0.2874,-0.2874,-0.2874,-0.2874,-0.2874,-0.2874,-0.2874,-0.2874,-0.2874,-0.2874,-0.2874,-0.2874,-0.2874,-0.2874,-0.2874,-0.2874,-0.2874,-0.2874,-0.2874,-0.2874,-0.2874,-0.2874,-0.2874,-0.2874,-0.2874,-0.2874,-0.2874,-0.2874,-0.2874,-0.2874,-0.2874,-0.2874,-0.2874,-0.2874,-0.2874,-0.2874,-0.2874,-0.2874,-0.2874,-0.2874,-0.2874,-0.2874,-0.2874,-0.2874,-0.2874,-0.2874,-0.2874,-0.2874,-0.2874,-0.2874,-0.2874,-0.2874,-0.2874,-0.2874,-0.2874,-0.2694,-0.2515,-0.2515,-0.2245,-0.2156,-0.2515,-0.2245,-0.2156,-0.2515,-0.2515,-0.2425,-0.2156,-0.2335,-0.2425,-0.2156,-0.2066,-0.2066,-0.2066,-0.2066,-0.2066,-0.2066,-0.1885,-0.1885,-0.2066,-0.2335,-0.2515,-0.2515,-0.2515,-0.2694,-0.2874,-0.2874,-0.2784,-0.2515,-0.2515,-0.2515,-0.2515,-0.2245,-0.2245,-0.2515,-0.2245,-0.2066,-0.2156,-0.2425,-0.2515,-0.2515,-0.2784,-0.2874,-0.2874,-0.2692,-0.2712,-0.2728,-0.2728,-0.2752,-0.2773,-0.2773,-0.2799,-0.2818,-0.2818,-0.2838,-0.2856,-0.2863,-0.2863,-0.2867,-0.2874,-0.2874,-0.2874,-0.2874,-0.2874,-0.2874,-0.2874,-0.2874,-0.2874,-0.2874,-0.2874,-0.2874,-0.2874,-0.2874,-0.2874,-0.2874,-0.2874,-0.2874,-0.2874,-0.2874,-0.2874,-0.2874,-0.2874,-0.2874,-0.2874,-0.2874,-0.2874,-0.2874,-0.2874,-0.2874,-0.2874,-0.2874,-0.2874,-0.2874,-0.2874,-0.2874,-0.2874,-0.2874,-0.2874,-0.2874,-0.2874,-0.2784,-0.2784,-0.2874,-0.2874,-0.2874,-0.2784,-0.2694,-0.2694,-0.2604,-0.2515,-0.2515,-0.2515,-0.2245,-0.1976,-0.1976,-0.1706,-0.1526,-0.1975,-0.1706,-0.1526,-0.1975,-0.1976,-0.1885,-0.1436,-0.1795,-0.1885,-0.1436,-0.1436,-0.1436,-0.1436,-0.1436,-0.1436,-0.1436,-0.1257,-0.1167,-0.1077,-0.1706,-0.1976,-0.1976,-0.1976,-0.2156,-0.2515,-0.2515,-0.2335,-0.1976,-0.1976,-0.1976,-0.1975,-0.1616,-0.1616,-0.1975,-0.1526,-0.1436,-0.1436,-0.1885,-0.1976,-0.2066,-0.2515,-0.2694,-0.2694,-0.2692,-0.2694,-0.2697,-0.2697,-0.2721,-0.2742,-0.2742,-0.2767,-0.2787,-0.2787,-0.2788,-0.28,-0.2829,-0.2831,-0.2844,-0.2871,-0.2874,-0.2874,-0.2874,-0.2874,-0.2874,-0.2874,-0.2874,-0.2874,-0.2874,-0.2874,-0.2874,-0.2874,-0.2874,-0.2874,-0.2874,-0.2874,-0.2874,-0.2874,-0.2874,-0.2874,-0.2874,-0.2874,-0.2874,-0.2874,-0.2874,-0.2874,-0.2874,-0.2874,-0.2874,-0.2874,-0.2874,-0.2874,-0.2874,-0.2874,-0.2874,-0.2874,-0.2874,-0.2874,-0.2874,-0.2874,-0.2604,-0.2335,-0.2784,-0.2874,-0.2784,-0.2335,-0.2245,-0.2156,-0.1616,-0.1526,-0.1526,-0.1526,-0.1526,-0.1436,-0.1436,-0.1436,-0.1436,-0.1436,-0.1436,-0.1436,-0.1436,-0.1436,-0.1436,-0.1436,-0.1436,-0.1436,-0.1436,-0.1436,-0.1436,-0.1436,-0.1436,-0.1436,-0.1436,-0.0988,-0.0539,-0.009,-0.0988,-0.1436,-0.1436,-0.1436,-0.1436,-0.1526,-0.1526,-0.1526,-0.1436,-0.1436,-0.1436,-0.1436,-0.1436,-0.1436,-0.1436,-0.1436,-0.1436,-0.1436,-0.1436,-0.1436,-0.1526,-0.2066,-0.2245,-0.2245,-0.2692,-0.2692,-0.2692,-0.2692,-0.2702,-0.271,-0.271,-0.2735,-0.2755,-0.2755,-0.2772,-0.2788,-0.2799,-0.28,-0.2812,-0.2844,-0.2845,-0.2853,-0.2872,-0.2874,-0.2874,-0.2874,-0.2874,-0.2874,-0.2874,-0.2874,-0.2874,-0.2874,-0.2874,-0.2874,-0.2874,-0.2874,-0.2874,-0.2874,-0.2874,-0.2874,-0.2874,-0.2874,-0.2874,-0.2874,-0.2874,-0.2874,-0.2874,-0.2874,-0.2874,-0.2874,-0.2874,-0.2694,-0.2425,-0.2425,-0.2245,-0.1975,-0.1975,-0.1975,-0.1975,-0.1975,-0.1885,-0.1706,-0.1885,-0.1975,-0.1885,-0.1706,-0.1706,-0.1616,-0.1436,-0.1436,-0.1436,-0.1436,-0.1167,-0.0988,-0.0988,-0.0718,-0.0628,-0.0898,-0.0718,-0.0628,-0.0898,-0.0988,-0.0898,-0.0539,-0.0808,-0.0808,-0.0539,-0.0539,-0.0539,-0.0539,-0.0539,-0.0539,-0.0539,-0.0359,-0.018,0.0,-0.0359,-0.0628,-0.0988,-0.0988,-0.1077,-0.1436,-0.1436,-0.1257,-0.0988,-0.0988,-0.0988,-0.0988,-0.0628,-0.0718,-0.0988,-0.0628,-0.0539,-0.0539,-0.0808,-0.0988,-0.0988,-0.1526,-0.1706,-0.1706,-0.2692,-0.2692,-0.2692,-0.2692,-0.2692,-0.2692,-0.2692,-0.271,-0.2724,-0.2724,-0.2742,-0.2758,-0.2767,-0.2769,-0.2781,-0.2812,-0.2814,-0.2827,-0.2857,-0.2868,-0.2874,-0.2874,-0.2874,-0.2874,-0.2874,-0.2874,-0.2874,-0.2874,-0.2874,-0.2874,-0.2874,-0.2874,-0.2874,-0.2874,-0.2874,-0.2874,-0.2874,-0.2874,-0.2874,-0.2874,-0.2874,-0.2874,-0.2874,-0.2874,-0.2874,-0.2874,-0.2874,-0.2604,-0.2245,-0.2245,-0.1885,-0.1436,-0.1436,-0.1436,-0.1347,-0.1257,-0.1167,-0.1167,-0.0988,-0.0988,-0.0988,-0.1167,-0.1167,-0.1167,-0.0988,-0.0988,-0.0988,-0.0988,-0.0718,-0.0449,-0.0449,-0.018,-0.009,-0.0449,-0.018,-0.009,-0.0449,-0.0449,-0.0359,0.0,-0.0269,-0.0359,0.0,0.0,0.0,0.0,0.0,0.0,0.0,0.0,0.0,0.0,0.0,-0.018,-0.0449,-0.0449,-0.0628,-0.0988,-0.0988,-0.0808,-0.0449,-0.0449,-0.0449,-0.0449,-0.018,-0.018,-0.0449,-0.009,0.0,0.0,-0.0359,-0.0449,-0.0539,-0.0988,-0.1167,-0.1167,-0.2692,-0.2692,-0.2692,-0.2692,-0.2692,-0.2692,-0.2692,-0.2692,-0.2692,-0.2692,-0.2692,-0.2703,-0.2735,-0.2737,-0.275,-0.278,-0.2782,-0.2796,-0.2826,-0.2857,-0.2874,-0.2874,-0.2874,-0.2874,-0.2874,-0.2874,-0.2874,-0.2874,-0.2874,-0.2874,-0.2874,-0.2874,-0.2874,-0.2874,-0.2874,-0.2874,-0.2874,-0.2874,-0.2874,-0.2874,-0.2874,-0.2874,-0.2874,-0.2874,-0.2874,-0.2874,-0.2874,-0.2604,-0.2156,-0.2156,-0.1795,-0.1347,-0.1347,-0.1347,-0.1257,-0.0808,-0.0718,-0.0628,-0.009,0.0,-0.009,-0.0539,-0.0718,-0.0539,-0.009,0.0,0.0,0.0,0.0,0.0,0.0,0.0,0.0,0.0,0.0,0.0,0.0,0.0,0.0,0.0,0.0,0.0,0.0,0.0,0.0,0.0,0.0,0.0,0.0,0.0,0.0,0.0,0.0,0.0,0.0,0.0,0.0,0.0,0.0,0.0,0.0,0.0,0.0,0.0,0.0,0.0,0.0,0.0,0.0,0.0,0.0,0.0,-0.009,-0.0539,-0.0718,-0.0718,-0.2692,-0.2692,-0.2692,-0.2692,-0.2692,-0.2692,-0.2692,-0.2692,-0.2692,-0.2692,-0.2692,-0.2697,-0.2705,-0.2706,-0.2718,-0.2748,-0.2751,-0.2765,-0.2795,-0.2825,-0.2842,-0.2842,-0.2863,-0.2874,-0.2874,-0.2874,-0.2874,-0.2874,-0.2874,-0.2874,-0.2874,-0.2874,-0.2874,-0.2874,-0.2874,-0.2874,-0.2874,-0.2874,-0.2874,-0.2874,-0.2874,-0.2874,-0.2874,-0.2515,-0.2425,-0.2335,-0.1975,-0.1526,-0.1167,-0.1167,-0.0808,-0.0449,-0.0449,-0.0449,-0.0359,-0.0269,-0.018,-0.018,0.0,0.0,0.0,-0.018,-0.018,-0.018,0.0,0.0,0.0,0.0,0.0,0.0,0.0,0.0,0.0,0.0,0.0,0.0,0.0,0.0,0.0,0.0,0.0,0.0,0.0,0.0,0.0,0.0,0.0,0.0,0.0,0.0,0.0,0.0,0.0,0.0,0.0,0.0,0.0,0.0,0.0,0.0,0.0,0.0,0.0,0.0,0.0,0.0,0.0,0.0,0.0,0.0,0.0,0.0,0.0,-0.018,-0.018,-0.018,-0.2692,-0.2692,-0.2692,-0.2692,-0.2692,-0.2692,-0.2692,-0.2692,-0.2692,-0.2692,-0.2692,-0.2692,-0.2692,-0.2692,-0.2699,-0.2718,-0.2731,-0.2746,-0.2763,-0.2804,-0.2829,-0.2829,-0.2857,-0.2874,-0.2874,-0.2874,-0.2874,-0.2874,-0.2874,-0.2874,-0.2874,-0.2874,-0.2874,-0.2874,-0.2874,-0.2874,-0.2874,-0.2874,-0.2874,-0.2874,-0.2874,-0.2784,-0.2604,-0.2335,-0.2066,-0.1885,-0.1526,-0.1077,-0.0718,-0.0718,-0.0359,0.0,0.0,0.0,0.0,0.0,0.0,0.0,0.0,0.0,0.0,0.0,0.0,0.0,0.0,0.0,0.0,0.0,0.0,0.0,0.0,0.0,0.0,0.0,0.0,0.0,0.0,0.0,0.0,0.0,0.0,0.0,0.0,0.0,0.0,0.0,0.0,0.0,0.0,0.0,0.0,0.0,0.0,0.0,0.0,0.0,0.0,0.0,0.0,0.0,0.0,0.0,0.0,0.0,0.0,0.0,0.0,0.0,0.0,0.0,0.0,0.0,0.0,0.0,0.0,0.0,-0.2692,-0.2692,-0.2692,-0.2692,-0.2692,-0.2692,-0.2692,-0.2692,-0.2692,-0.2692,-0.2692,-0.2692,-0.2692,-0.2692,-0.2692,-0.2692,-0.2718,-0.2733,-0.2733,-0.2788,-0.2822,-0.2825,-0.2853,-0.2871,-0.2874,-0.2874,-0.2874,-0.2874,-0.2874,-0.2874,-0.2874,-0.2874,-0.2874,-0.2874,-0.2874,-0.2874,-0.2874,-0.2874,-0.2874,-0.2874,-0.2874,-0.2515,-0.2156,-0.2066,-0.1795,-0.1347,-0.1257,-0.0988,-0.0628,-0.0628,-0.0359,0.0,0.0,0.0,0.0,0.0,0.0,0.0,0.0,0.0,0.0,0.0,0.0,0.0,0.0,0.0,0.0,0.0,0.0,0.0,0.0,0.0,0.0,0.0,0.0,0.0,0.0,0.0,0.0,0.0,0.0,0.0,0.0,0.0,0.0,0.0,0.0,0.0,0.0,0.0,0.0,0.0,0.0,0.0,0.0,0.0,0.0,0.0,0.0,0.0,0.0,0.0,0.0,0.0,0.0,0.0,0.0,0.0,0.0,0.0,0.0,0.0,0.0,0.0,0.0,0.0,-0.2692,-0.2692,-0.2692,-0.2692,-0.2692,-0.2692,-0.2692,-0.2692,-0.2692,-0.2692,-0.2692,-0.2692,-0.2692,-0.2692,-0.2692,-0.2692,-0.2698,-0.2702,-0.2702,-0.2736,-0.2769,-0.2792,-0.2822,-0.2849,-0.2874,-0.2874,-0.2874,-0.2874,-0.2874,-0.2874,-0.2874,-0.2874,-0.2874,-0.2874,-0.2874,-0.2874,-0.2874,-0.2874,-0.2694,-0.2335,-0.2335,-0.2066,-0.1526,-0.1167,-0.0988,-0.0808,-0.0449,-0.0269,-0.018,-0.018,-0.009,0.0,0.0,0.0,0.0,0.0,0.0,0.0,0.0,0.0,0.0,0.0,0.0,0.0,0.0,0.0,0.0,0.0,0.0,0.0,0.0,0.0,0.0,0.0,0.0,0.0,0.0,0.0,0.0,0.0,0.0,0.0,0.0,0.0,0.0,0.0,0.0,0.0,0.0,0.0,0.0,0.0,0.0,0.0,0.0,0.0,0.0,0.0,0.0,0.0,0.0,0.0,0.0,0.0,0.0,0.0,0.0,0.0,0.0,0.0,0.0,0.0,0.0,0.0,0.0,0.0,-0.2692,-0.2692,-0.2692,-0.2692,-0.2692,-0.2692,-0.2692,-0.2692,-0.2692,-0.2692,-0.2692,-0.2692,-0.2692,-0.2692,-0.2692,-0.2692,-0.2692,-0.2692,-0.2692,-0.2721,-0.2751,-0.2782,-0.2812,-0.2842,-0.2874,-0.2874,-0.2874,-0.2874,-0.2874,-0.2874,-0.2874,-0.2874,-0.2874,-0.2874,-0.2874,-0.2874,-0.2874,-0.2694,-0.2425,-0.2156,-0.1885,-0.1526,-0.1077,-0.0808,-0.0539,-0.0359,-0.009,0.0,0.0,0.0,0.0,0.0,0.0,0.0,0.0,0.0,0.0,0.0,0.0,0.0,0.0,0.0,0.0,0.0,0.0,0.0,0.0,0.0,0.0,0.0,0.0,0.0,0.0,0.0,0.0,0.0,0.0,0.0,0.0,0.0,0.0,0.0,0.0,0.0,0.0,0.0,0.0,0.0,0.0,0.0,0.0,0.0,0.0,0.0,0.0,0.0,0.0,0.0,0.0,0.0,0.0,0.0,0.0,0.0,0.0,0.0,0.0,0.0,0.0,0.0,0.0,0.0,0.0,0.0,0.0,0.0,-0.2692,-0.2692,-0.2692,-0.2692,-0.2692,-0.2692,-0.2692,-0.2692,-0.2692,-0.2692,-0.2692,-0.2692,-0.2692,-0.2692,-0.2692,-0.2692,-0.2692,-0.2692,-0.2692,-0.2716,-0.2746,-0.2782,-0.2807,-0.2838,-0.2874,-0.2874,-0.2874,-0.2874,-0.2874,-0.2874,-0.2874,-0.2784,-0.2784,-0.2784,-0.2694,-0.2604,-0.2604,-0.2245,-0.1976,-0.1885,-0.1436,-0.0988,-0.0539,-0.0539,-0.0359,0.0,0.0,0.0,0.0,0.0,0.0,0.0,0.0,0.0,0.0,0.0,0.0,0.0,0.0,0.0,0.0,0.0,0.0,0.0,0.0,0.0,0.0,0.0,0.0,0.0,0.0,0.0,0.0,0.0,0.0,0.0,0.0,0.0,0.0,0.0,0.0,0.0,0.0,0.0,0.0,0.0,0.0,0.0,0.0,0.0,0.0,0.0,0.0,0.0,0.0,0.0,0.0,0.0,0.0,0.0,0.0,0.0,0.0,0.0,0.0,0.0,0.0,0.0,0.0,0.0,0.0,0.0,0.0,0.0,0.0,0.0,-0.2692,-0.2692,-0.2692,-0.2692,-0.2692,-0.2692,-0.2692,-0.2692,-0.2692,-0.2692,-0.2692,-0.2692,-0.2692,-0.2692,-0.2692,-0.2692,-0.2692,-0.2692,-0.2692,-0.2697,-0.2724,-0.2781,-0.2787,-0.2816,-0.2872,-0.2874,-0.2874,-0.2874,-0.2874,-0.2874,-0.2874,-0.2515,-0.2335,-0.2245,-0.1795,-0.1616,-0.1616,-0.1526,-0.1257,-0.0898,-0.0808,-0.0539,-0.009,-0.009,-0.009,0.0,0.0,0.0,0.0,0.0,0.0,0.0,0.0,0.0,0.0,0.0,0.0,0.0,0.0,0.0,0.0,0.0,0.0,0.0,0.0,0.0,0.0,0.0,0.0,0.0,0.0,0.0,0.0,0.0,0.0,0.0,0.0,0.0,0.0,0.0,0.0,0.0,0.0,0.0,0.0,0.0,0.0,0.0,0.0,0.0,0.0,0.0,0.0,0.0,0.0,0.0,0.0,0.0,0.0,0.0,0.0,0.0,0.0,0.0,0.0,0.0,0.0,0.0,0.0,0.0,0.0,0.0,0.0,0.0,0.0,0.0,-0.2692,-0.2524,-0.2272,-0.2272,-0.2272,-0.2272,-0.2272,-0.2524,-0.2692,-0.2692,-0.2692,-0.2692,-0.2692,-0.2692,-0.2692,-0.2692,-0.2692,-0.2692,-0.2692,-0.244,-0.2465,-0.2781,-0.2261,-0.2284,-0.2872,-0.2335,-0.2245,-0.2515,-0.2515,-0.2515,-0.2515,-0.1975,-0.1795,-0.1706,-0.1526,-0.1436,-0.1347,-0.1077,-0.0898,-0.0718,-0.0449,-0.018,0.0,0.0,0.0,0.0,0.0,0.0,0.0,0.0,0.0,0.0,0.0,0.0,0.0,0.0,0.0,0.0,0.0,0.0,0.0,0.0,0.0,0.0,0.0,0.0,0.0,0.0,0.0,0.0,0.0,0.0,0.0,0.0,0.0,0.0,0.0,0.0,0.0,0.0,0.0,0.0,0.0,0.0,0.0,0.0,0.0,0.0,0.0,0.0,0.0,0.0,0.0,0.0,0.0,0.0,0.0,0.0,0.0,0.0,0.0,0.0,0.0,0.0,0.0,0.0,0.0,0.0,0.0,0.0,0.0,0.0,0.0,0.0,0.0,0.0]}]]